[[{"header":{"parameterUnit":"m.s-1","parameterCategory":1,"la1":31.0,"la2":29.5877,"lo1":-88.7671,"lo2":-86.6584,"dy":0.0162,"dx":0.0185,"nx":115,"ny":88,"refTime":"2023-09-28T18:00:00:Z","depth":0,"parameterNumber":2,"parameterNumberName":"U-component_of_WINDS"},"data":[0.0,0.0,0.0,0.0,0.0,0.0,0.0,0.0,0.0,0.0,0.0,0.0,0.0,0.0,0.0,0.0,0.0,0.0,0.0,0.0,0.0,0.0,0.0,0.0,0.0,0.0,0.0,0.0,0.0,0.0,0.0,0.0,0.0,0.0,0.0,0.0,0.0,0.0,0.0,0.0,0.0,0.0,0.0,0.0,0.0,0.0,0.0,0.0,0.0,0.0,0.0,0.0,0.0,0.0,0.0,0.0,0.0,0.0,0.0,0.0,0.0,0.0,0.0,0.0,0.0,0.0,0.0,0.0,0.0,0.0,0.0,0.0,0.0,0.0,0.0,0.0,0.0,0.0,0.0,0.0,0.0,0.0,0.0,0.0,0.0,0.0,0.0,0.0,0.0,0.0,0.0,0.0,0.0,0.0,0.0,0.0,0.0,0.0,0.0,0.0,0.0,0.0,0.0,0.0,0.0,0.0,0.0,0.0,0.0,0.0,0.0,0.0,0.0,0.0,0.0,0.0,0.0,0.0,0.0,0.0,0.0,0.0,0.0,0.0,0.0,0.0,0.0,0.0,0.0,0.0,0.0,0.0,0.0,0.0,0.0,0.0,0.0,0.0,0.0,0.0,0.0,0.0,0.0,0.0,0.0,0.0,0.0,0.0,0.0,0.0,0.0,0.0,0.0,0.0,0.0,0.0,0.0,0.0,0.0,0.0,0.0,0.0,0.0,0.0,0.0,0.0,0.0,0.0,0.0,0.0,0.0,0.0,0.0,0.0,0.0,0.0,0.0,0.0,0.0,0.0,0.0,0.0,0.0,0.0,0.0,0.0,0.0,0.0,0.0,0.0,0.0,0.0,0.0,0.0,0.0,0.0,0.0,0.0,0.0,0.0,0.0,0.0,0.0,0.0,0.0,0.0,0.0,0.0,0.0,0.0,0.0,0.0,0.0,0.0,0.0,0.0,0.0,0.0,0.0,0.0,0.0,0.0,0.0,0.0,0.0,0.0,0.0,0.0,0.0,0.0,0.0,0.0,0.0,0.0,0.0,0.0,0.0,0.0,0.0,0.0,0.0,0.0,0.0,0.0,0.0,0.0,0.0,0.0,0.0,0.0,0.0,0.0,0.0,0.0,0.0,0.0,0.0,0.0,0.0,0.0,0.0,0.0,0.0,0.0,0.0,0.0,0.0,0.0,0.0,0.0,0.0,0.0,0.0,0.0,0.0,0.0,0.0,0.0,0.0,0.0,0.0,0.0,0.0,0.0,0.0,0.0,0.0,0.0,0.0,0.0,0.0,0.0,0.0,0.0,0.0,0.0,0.0,0.0,0.0,0.0,0.0,0.0,0.0,0.0,0.0,0.0,0.0,0.0,0.0,0.0,0.0,0.0,0.0,0.0,0.0,0.0,0.0,0.0,0.0,0.0,0.0,0.0,0.0,0.0,0.0,0.0,0.0,0.0,0.0,0.0,0.0,0.0,0.0,0.0,0.0,0.0,0.0,0.0,0.0,0.0,0.0,0.0,0.0,0.0,0.0,0.0,0.0,0.0,0.0,0.0,0.0,0.0,0.0,0.0,0.0,0.0,0.0,0.0,0.0,0.0,0.0,0.0,0.0,0.0,0.0,0.0,0.0,0.0,0.0,0.0,0.0,0.0,0.0,0.0,0.0,0.0,0.0,0.0,0.0,0.0,0.0,0.0,0.0,0.0,0.0,0.0,0.0,0.0,0.0,0.0,0.0,0.0,0.0,0.0,0.0,0.0,0.0,0.0,0.0,0.0,0.0,0.0,0.0,0.0,0.0,0.0,0.0,0.0,0.0,0.0,0.0,0.0,0.0,0.0,0.0,0.0,0.0,0.0,0.0,0.0,0.0,0.0,0.0,0.0,0.0,0.0,0.0,0.0,0.0,0.0,0.0,0.0,0.0,0.0,0.0,0.0,0.0,0.0,0.0,0.0,0.0,0.0,0.0,0.0,0.0,0.0,0.0,0.0,0.0,0.0,0.0,0.0,0.0,0.0,0.0,0.0,0.0,0.0,0.0,0.0,0.0,0.0,0.0,0.0,0.0,0.0,0.0,0.0,0.0,0.0,0.0,0.0,0.0,0.0,0.0,0.0,0.0,0.0,0.0,0.0,0.0,0.0,0.0,0.0,0.0,0.0,0.0,0.0,0.0,0.0,0.0,0.0,0.0,0.0,0.0,0.0,0.0,0.0,0.0,0.0,0.0,0.0,0.0,0.0,0.0,0.0,0.0,0.0,0.0,0.0,0.0,0.0,0.0,0.0,0.0,0.0,0.0,0.0,0.0,0.0,0.0,0.0,0.0,0.0,0.0,0.0,0.0,0.0,0.0,0.0,0.0,0.0,0.0,0.0,0.0,0.0,0.0,0.0,0.0,0.0,0.0,0.0,0.0,0.0,0.0,0.0,0.0,0.0,0.0,0.0,0.0,0.0,0.0,0.0,0.0,0.0,0.0,0.0,0.0,0.0,0.0,0.0,0.0,0.0,0.0,0.0,0.0,0.0,0.0,0.0,0.0,0.0,0.0,0.0,0.0,0.0,0.0,0.0,0.0,0.0,0.0,0.0,0.0,0.0,0.0,0.0,0.0,0.0,0.0,0.0,0.0,0.0,0.0,0.0,0.0,0.0,0.0,0.0,0.0,0.0,0.0,0.0,0.0,0.0,0.0,0.0,0.0,0.0,0.0,0.0,0.0,0.0,0.0,0.0,0.0,0.0,0.0,0.0,0.0,0.0,0.0,0.0,0.0,0.0,0.0,0.0,0.0,0.0,0.0,0.0,0.0,0.0,0.0,0.0,0.0,0.0,0.0,0.0,0.0,0.0,0.0,0.0,0.0,0.0,0.0,0.0,0.0,0.0,0.0,0.0,0.0,0.0,0.0,0.0,0.0,0.0,0.0,0.0,0.0,0.0,0.0,0.0,0.0,0.0,0.0,0.0,0.0,0.0,0.0,0.0,0.0,0.0,0.0,0.0,0.0,0.0,0.0,0.0,0.0,0.0,0.0,0.0,0.0,0.0,0.0,0.0,0.0,0.0,0.0,0.0,0.0,0.0,0.0,0.0,0.0,0.0,0.0,0.0,0.0,0.0,0.0,0.0,0.0,0.0,0.0,0.0,0.0,0.0,0.0,0.0,0.0,0.0,0.0,0.0,0.0,0.0,0.0,0.0,0.0,0.0,0.0,0.0,0.0,0.0,0.0,0.0,0.0,0.0,0.0,0.0,0.0,0.0,0.0,0.0,0.0,0.0,0.0,0.0,0.0,0.0,0.0,0.0,0.0,0.0,0.0,0.0,0.0,0.0,0.0,0.0,0.0,0.0,0.0,0.0,0.0,0.0,0.0,0.0,0.0,0.0,0.0,0.0,0.0,0.0,0.0,0.0,0.0,0.0,0.0,0.0,0.0,0.0,0.0,0.0,0.0,0.0,0.0,0.0,0.0,0.0,0.0,0.0,0.0,0.0,0.0,0.0,0.0,0.0,0.0,0.0,0.0,0.0,0.0,0.0,0.0,0.0,0.0,0.0,0.0,0.0,0.0,0.0,0.0,0.0,0.0,0.0,0.0,0.0,0.0,0.0,0.0,0.0,0.0,0.0,0.0,0.0,0.0,0.0,0.0,0.0,0.0,0.0,0.0,0.0,0.0,0.0,0.0,0.0,0.0,0.0,0.0,0.0,0.0,0.0,0.0,0.0,0.0,0.0,0.0,0.0,0.0,0.0,0.0,0.0,0.0,0.0,0.0,0.0,0.0,0.0,0.0,0.0,0.0,0.0,0.0,0.0,0.0,0.0,0.0,0.0,0.0,0.0,0.0,0.0,0.0,0.0,0.0,0.0,0.0,0.0,0.0,0.0,0.0,0.0,0.0,0.0,0.0,0.0,0.0,0.0,0.0,0.0,0.0,0.0,0.0,0.0,0.0,0.0,0.0,0.0,0.0,0.0,0.0,0.0,0.0,0.0,0.0,0.0,0.0,0.0,0.0,0.0,0.0,0.0,0.0,0.0,0.0,0.0,0.0,0.0,0.0,0.0,0.0,0.0,0.0,0.0,0.0,0.0,0.0,0.0,0.0,0.0,0.0,0.0,0.0,0.0,0.0,0.0,0.0,0.0,0.0,0.0,0.0,0.0,0.0,0.0,0.0,0.0,0.0,0.0,0.0,0.0,0.0,0.0,0.0,0.0,0.0,0.0,0.0,0.0,0.0,0.0,0.0,0.0,0.0,0.0,0.0,0.0,0.0,0.0,0.0,0.0,0.0,0.0,0.0,0.0,0.1197,0.0,0.0,0.0,0.0,0.0,0.0,0.0,0.0,0.0,0.0,0.0,0.0,0.0,0.0,0.0,0.0,0.0,0.0,0.0,0.0,0.0,0.0,0.0,0.0,0.0,0.0,0.0,0.0,0.0,0.0,0.0,0.0,0.0,0.0,0.0,0.0,0.0,0.0,0.0,0.0,0.0,0.0,0.0,0.0,0.0,0.0,0.0,0.0,0.0,0.0,0.0,0.0,0.0,0.0,0.0,0.0,0.0,0.0,0.0,0.0,0.0,0.0,0.0,0.0,0.0,0.0,0.0,0.0,0.0,0.0,0.0,0.0,0.0,0.0,0.0,0.0,0.0,0.0,0.0,0.0,0.0,0.0,0.0,0.0,0.0,0.0,0.0,0.0,0.0,0.0,0.0,0.0,0.0,0.0,0.0,0.0,0.0,0.0,0.0,0.0,0.0,0.0,0.0,0.0,0.0,0.0,0.0,0.0,0.0,0.0,0.2855,0.2128,0.1961,0.1632,0.113,0.0,0.0,0.0,0.0,0.0,0.0,0.0,0.0,0.0,0.0,0.0,0.0,0.0,0.0,0.0,0.0,0.0,0.0,0.0,0.0,0.0,0.0,0.0,0.0,0.0,0.0,0.0,0.0,0.0,0.0,0.0,0.0,0.0,0.0,0.0,0.0,0.0,0.0,0.0,0.0,0.0,0.0,0.0,0.0,0.0,0.0,0.0,0.0,0.0,0.0,0.0,0.0,0.0,0.0,0.0,0.0,0.0,0.0,0.0,0.0,0.0,0.0,0.0,0.0,0.0,0.0,0.0,0.0,0.0,0.0,0.0,0.0,0.0,0.0,0.0,0.0,0.0,0.0,0.0,0.0,0.0,0.0,0.0,0.0,0.0,0.0,0.0,0.0,0.0,0.0,0.0,0.0,0.0,0.0,0.0,0.0,0.0,0.0,0.0,0.0,0.0,0.0,0.0,0.0,0.0,0.0,0.0,0.0,0.0,0.0,0.0,0.0,0.2053,0.1578,0.1185,0.0,0.0,0.0,0.0,0.0,0.0,0.0,0.0,0.0,0.0,0.0,0.0,0.0,0.0,0.0,0.0,0.0,0.0,0.0,0.0,0.0,0.0,0.0,0.0,0.0,0.0,0.0,0.0,0.0,0.0,0.0,0.0,0.0,0.0,0.0,0.0,0.0,0.0,0.0,0.0,0.0,0.0,0.0,0.0,0.0,0.0,0.0,0.0,0.0,0.0,0.0,0.0,0.0,0.0,0.0,0.0,0.0,0.0,0.0,0.0,0.0,0.0,0.0,0.0,0.0,0.0,0.0,0.0,0.0,0.0,0.0,0.0,0.0,0.0,0.0,0.0,0.0,0.0,0.0,0.0,0.0,0.0,0.0,0.0,0.0,0.0,0.0,0.0,0.0,0.0,0.0,0.0,0.0,0.0,0.0,0.0,0.0,0.0,0.0,0.0,0.0,0.0,0.0,0.0,0.0,0.0,0.0,0.0,0.0,0.0,0.374,0.3897,0.2868,0.0,0.1414,0.0,0.0,0.0,0.0,0.0,0.0,0.0,0.0,0.0,0.0,0.0,0.0,0.0,0.0,0.0,0.0,0.0,0.0,0.0,0.0,0.0,0.0,0.0,0.0,0.0,0.0,0.0,0.0,0.0,0.0,0.0,0.0,0.0,0.0,0.0,0.0,0.0,0.0,0.0,0.0,0.0,0.0,0.0,0.0,0.0,0.0,0.0,0.0,0.0,0.0,0.0,0.0,0.0,0.0,0.0,0.0,0.0,0.0,0.0,0.0,0.0,0.0,0.0,0.0,0.0,0.0,0.0,0.0,0.0,0.0,0.0,0.0,0.0,0.0,0.0,0.0,0.0,0.0,0.0,0.0,0.0,0.0,0.0,0.0,0.0,0.0,0.0,0.0,0.0,0.0,0.0,0.0,0.0,0.0,0.0,0.0,0.0,0.0,0.0,0.0,0.0,0.0,0.0,0.0,0.0,0.0,0.0,0.0,0.0,0.0,0.4113,0.3347,0.2295,0.1629,0.0,0.0,0.0,0.0,0.0,0.0,0.0,0.0,0.0,0.0,0.0,0.0,0.0,0.0,0.0,0.0,0.0,0.0,0.0,0.0,0.0,0.0,0.0,0.0,0.0,0.0,0.0,0.0,0.0,0.0,0.0,0.0,0.0,0.0,0.0,0.0,0.0,0.0,0.0,0.0,0.0,0.0,0.0,0.0,0.0,0.0,0.0,0.0,0.0,0.0,0.0,0.0,0.0,0.0,0.0,0.0,0.0,0.0,0.0,0.0,0.0,0.0,0.0,0.0,0.0,0.0,0.0,0.0,0.0,0.0,0.0,0.0,0.0,0.0,0.0,0.0,0.0,0.0,0.0,0.0,0.0,0.0,0.0,0.0,0.0,0.0,0.0,0.0,0.0,0.0,0.0,0.0,0.0,0.0,0.0,0.0,0.0,0.0,0.0,0.0,0.0,0.0,0.0,0.0,0.0,0.0,0.0,0.0,0.0,0.0,0.5114,0.4277,0.2882,0.1949,0.1486,0.1514,0.0,0.0,0.0,0.0,0.0,0.0,0.0,0.0,0.0,0.0,0.0,0.0,0.0,0.0,0.0,0.0,0.0,0.0,0.0,0.0,0.0,0.0,0.0,0.0,0.0,0.0,0.0,0.0,0.0,0.0,0.0,0.0,0.0,0.0,0.0,0.0,0.0,0.0,0.0,0.0,0.0,0.0,0.0,0.0,0.0,0.0,0.0,0.0,0.0,0.0,0.0,0.0,0.0,0.0,0.0,0.0,0.0,0.0,0.0,0.0,0.0,0.0,0.0,0.0,0.0,0.0,0.0,0.0,0.0,0.0,0.0,0.0,0.0,0.0,0.0,0.0,0.0,0.0,0.0,0.0,0.0,0.0,0.0,0.0,0.0,0.0,0.0,0.0,0.0,0.0,0.0,0.0,0.0,0.0,0.0,0.0,0.0,0.0,0.0,0.0,0.0,0.0,0.0,0.0,0.0,0.0,0.0,0.0,0.6792,0.5502,0.4185,0.2915,0.2234,0.1926,0.0,0.0,0.0,0.0,0.0,0.0,0.0,0.0,0.0,0.0,0.0,0.0,0.0,0.0,0.0,0.0,0.0,0.0,0.0,0.0,0.0,0.0,0.0,0.0,0.0,0.0,0.0,0.0,0.0,0.0,0.0,0.0,0.0,0.0,0.0,0.0,0.0,0.0,0.0,0.0,0.0,0.0,0.0,0.0,0.0,0.0,0.0,0.0,0.0,0.0,0.0,0.0,0.0,0.0,0.0,0.0,0.0,0.0,0.0,0.0,0.0,0.0,0.0,0.0,0.0,0.0,0.0,0.0,0.0,0.0,0.0,0.0,0.0,0.0,0.0,0.0,0.0,0.0,0.0,0.0,0.0,0.0,0.0,0.0,0.0,0.0,0.0,0.0,0.0,0.0,0.0,0.0,0.0,0.0,0.0,0.0,0.0,0.0,0.0,0.0,0.0,0.0,0.0,0.0,0.0,0.0,0.0,0.0,0.0,0.5826,0.4333,0.3148,0.2419,0.216,0.2071,0.0,0.0,0.0,0.0,0.0,0.0,0.0,0.0,0.0,0.0,0.0,0.0,0.0,0.0,0.0,0.0,0.0,0.0,0.0,0.0,0.0,0.0,0.0,0.0,0.0,0.0,0.0,0.0,0.0,0.0,0.0,0.0,0.0,0.0,0.0,0.0,0.0,0.0,0.0,0.0,0.0,0.0,0.0,0.0,0.0,0.0,0.0,0.0,0.0,0.0,0.0,0.0,0.0,0.0,0.0,0.0,0.0,0.0,0.0,0.0,0.0,0.0,0.0,0.0,0.0,0.0,0.0,0.0,0.0,0.0,0.0,0.0,0.0,0.0,0.0,0.0,0.0,0.0,0.0,0.0,0.0,0.0,0.0,0.0,0.0,0.0,0.0,0.0,0.0,0.0,0.0,0.0,0.0,0.0,0.0,0.0,0.0,0.0,0.0,0.0,0.0,0.0,0.0,0.0,0.0,0.0,0.0,0.0,0.0,0.4787,0.0,0.2721,0.2409,0.2187,0.2239,0.0,0.0,0.0,0.0,0.0,0.0,0.0,0.0,0.0,0.0,0.0,0.0,0.0,0.0,0.0,0.0,0.0,0.0,0.0,0.0,0.0,0.0,0.0,0.0,0.0,0.0,0.0,0.0,0.0,0.0,0.0,0.0,0.0,0.0,0.0,0.0,0.0,0.0,0.0,0.0,0.0,0.0,0.0,0.0,0.0,0.0,0.0,0.0,0.0,0.0,0.0,0.0,0.0,0.0,0.0,0.0,0.0,0.0,0.0,0.0,0.0,0.0,0.0,0.0,0.0,0.0,0.0,0.0,0.0,0.0,0.0,0.0,0.0,0.0,0.0,0.0,0.0,0.0,0.0,0.0,0.0,0.0,0.0,0.0,0.0,0.0,0.0,0.0,0.0,0.0,0.0,0.0,0.0,0.0,0.0,0.0,0.0,0.0,0.0,0.0,0.0,0.0,0.0,0.0,0.0,0.0,0.0,0.0,0.463,0.3795,0.3245,0.2911,0.2957,0.2348,0.247,0.0,0.0,0.0,0.0,0.0,0.0,0.0,0.0,0.0,0.0,0.0,0.0,0.0,0.0,0.0,0.0,0.0,0.0,0.0,0.0,0.0,0.0,0.0,0.0,0.0,0.0,0.0,0.0,0.0,0.0,0.0,0.0,0.0,0.0,0.0,0.0,0.0,0.0,0.0,0.0,0.0,0.0,0.0,0.0,0.0,0.0,0.0,0.0,0.0,0.0,0.0,0.0,0.0,0.0,0.0,0.0,0.0,0.0,0.0,0.0,0.0,0.0,0.0,0.0,0.0,0.0,0.0,0.0,0.0,0.0,0.0,0.0,0.0,0.0,0.0,0.0,0.0,0.0,0.0,0.0,0.0,0.0,0.0,0.0,0.0,0.0,0.0,0.0,0.0,0.0,0.0,0.0,0.0,0.0,0.0,0.0,0.0,0.0,0.0,0.0,0.0,0.0,0.0,0.0,0.0,0.0,0.0,0.0,0.0,0.2486,0.2148,0.2108,0.2438,0.2334,0.2699,0.0,0.0,0.0,0.0,0.0,0.0,0.0,0.0,0.0,0.0,0.0,0.0,0.0,0.0,0.0,0.0,0.0,0.0,0.0,0.0,0.0,0.0,0.0,0.0,0.0,0.0,0.0,0.0,0.0,0.0,0.0,0.0,0.0,0.0,0.0,0.0,0.0,0.0,0.0,0.0,0.0,0.0,0.0,0.0,0.0,0.0,0.0,0.0,0.0,0.0,0.0,0.0,0.0,0.0,0.0,0.0,0.0,0.0,0.0,0.0,0.0,0.0,0.0,0.0,0.0,0.0,0.0,0.0,0.0,0.0,0.0,0.0,0.0,0.0,0.0,0.0,0.0,0.0,0.0,0.0,0.0,0.0,0.0,0.0,0.0,0.0,0.0,0.0,0.0,0.0,0.0,0.0,0.0,0.0,0.0,0.0,0.0,0.0,0.0,0.0,0.0,0.0,0.0,0.0,0.0,0.0,0.0,0.0,0.0,0.1358,0.1718,0.2086,0.2467,0.2854,0.3313,0.3854,0.0,0.0,0.0,0.0,0.0,0.0,0.0,0.0,0.0,0.0,0.0,0.0,0.0,0.0,0.0,0.0,0.0,0.0,0.0,0.0,0.0,0.0,0.0,0.0,0.0,0.0,0.0,0.0,0.0,0.0,0.0,0.0,0.0,0.0,0.0,0.0,0.0,0.0,0.0,0.0,0.0,0.0,0.0,0.0,0.0,0.0,0.0,0.0,0.0,0.0,0.0,0.0,0.0,0.0,0.0,0.0,0.0,0.0,0.0,0.0,0.0,0.0,0.0,0.0,0.0,0.0,0.0,0.0,0.0,0.0,0.0,0.0,0.0,0.0,0.0,0.0,0.0,0.0,0.0,0.0,0.0,0.0,0.0,0.0,0.0,0.0,0.0,0.0,0.0,0.0,0.0,0.0,0.0,0.0,0.0,0.0,0.0,0.0,0.0,0.0,0.0,0.0,0.0,0.0,0.0,0.0,0.0,0.0,0.0406,0.19,0.2766,0.2944,0.3661,0.4151,0.0,0.0,0.0,0.0,0.0,0.0,0.0,0.0,0.0,0.0,0.0,0.0,0.0,0.0,0.0,0.0,0.0,0.0,0.0,0.0,0.0,0.0,0.0,0.0,0.0,0.0,0.0,0.0,0.0,0.0,0.0,0.0,0.0,0.0,0.0,0.0,0.0,0.0,0.0,0.0,0.0,0.0,0.0,0.0,0.0,0.0,0.0,0.0,0.0,0.0,0.0,0.0,0.0,0.0,0.0,0.0,0.0,0.0,0.0,0.0,0.0,0.0,0.0,0.0,0.0,0.0,0.0,0.0,0.0,0.0,0.0,0.0,0.0,0.0,0.0,0.0,0.0,0.0,0.0,0.0,0.0,0.0,0.0,0.0,0.0,0.0,0.0,0.0,0.0,0.0,0.0,0.0,0.0,0.0,0.0,0.0,0.0,0.0,0.0,0.0,0.0,0.0,0.0,0.0,0.0,0.0,0.0,0.0,0.0,0.0551,0.2591,0.3549,0.3288,0.3097,0.3538,0.0,0.0,0.0,0.0,0.0,0.0,0.0,0.0,0.0,0.0,0.0,0.0,0.0,0.0,0.0,0.0,0.0,0.0,0.0,0.0,0.0,0.0,0.0,0.0,0.0,0.0,0.0,0.0,0.0,0.0,0.0,0.0,0.0,0.0,0.0,0.0,0.0,0.0,0.0,0.0,0.0,0.0,0.0,0.0,0.0,0.0,0.0,0.0,0.0,0.0,0.0,0.0,0.0,0.0,0.0,0.0,0.0,0.0,0.0,0.0,0.0,0.0,0.0,0.0,0.0,0.0,0.0,0.0,0.0,0.0,0.0,0.0,0.0,0.0,0.0,0.0,0.0,0.0,0.0,0.0,0.0,0.0,0.0,0.0,0.0,0.0,0.0,0.0,0.0,0.0,0.0,0.0,0.0,0.0,0.0,0.0,0.0,0.0,0.0,0.0,0.0,0.0,0.0,0.0,0.0,0.0,0.0,0.0,0.0214,0.0181,0.1728,0.2879,0.3571,0.4016,0.4389,0.0,0.0,0.0,0.0,0.0,0.0,0.0,0.0,0.0,0.0,0.0,0.0,0.0,0.0,0.0,0.0,0.0,0.0,0.0,0.0,0.0,0.0,0.0,0.0,0.0,0.0,0.0,0.0,0.0,0.0,0.0,0.0,0.0,0.0,0.0,0.0,0.0,0.0,0.0,0.0,0.0,0.0,0.0,0.0,0.0,0.0,0.0,0.0,0.0,0.0,0.0,0.0,0.0,0.0,0.0,0.0,0.0,0.0,0.0,0.0,0.0,0.0,0.0,0.0,0.0,0.0,0.0,0.0,0.0,0.0,0.0,0.0,0.0,0.0,0.0,0.0,0.0,0.0,0.0,0.0,0.0,0.0,0.0,0.0,0.0,0.0,0.0,0.0,0.0,0.0,0.0,0.0,0.0,0.0,0.0,0.0,0.0,0.0,0.0,0.0,0.0,0.0,0.0,0.0,0.0,0.0,0.0,0.0,-0.0152,-0.0305,0.0355,0.1671,0.3706,0.5298,0.572,0.0,0.0,0.0,0.0,0.0,0.0,0.0,0.0,0.0,0.0,0.0,0.0,0.0,0.0,0.0,0.0,0.0,0.0,0.0,0.0,0.0,0.0,0.0,0.0,0.0,0.0,0.0,0.0,0.0,0.0,0.0,0.0,0.0,0.0,0.0,0.0,0.0,0.0,0.0,0.0,0.0,0.0,0.0,0.0,0.0,0.0,0.0,0.0,0.0,0.0,0.0,0.0,0.0,0.0,0.0,0.0,0.0,0.0,0.0,0.0,0.0,0.0,0.0,0.0,0.0,0.0,0.0,0.0,0.0,0.0,0.0,0.0,0.0,0.0,0.0,0.0,0.0,0.0,0.0,0.0,0.0,0.0,0.0,0.0,0.0,0.0,0.0,0.0,0.0,0.0,0.0,0.0,0.0,0.0,0.0,0.0,0.0,0.0,0.0,0.0,0.0,0.0,0.0,0.0,0.0,0.0,0.0,0.0,-0.0381,-0.0355,0.1587,0.289,0.3463,0.3457,0.4246,0.0,0.0,0.0,0.0,0.0,0.0,0.0,0.0,0.0,0.0,0.0,0.0,0.0,0.0,0.0,0.0,0.0,0.0,0.0,0.0,0.0,0.0,0.0,0.0,0.0,0.0,0.0,0.0,0.0,0.0,0.0,0.0,0.0,0.0,0.0,0.0,0.0,0.0,0.0,0.0,0.0,0.0,0.0,0.0,0.0,0.0,0.0,0.0,1.2075,0.0,0.0,0.0,0.0,0.0,0.0,0.0,0.0,0.0,0.0,0.0,0.0,0.0,0.0,0.0,0.0,0.0,0.0,0.0,0.0,0.0,0.0,0.0,0.0,0.0,0.0,0.0,0.0,0.0,0.0,0.0,0.0,0.0,0.0,0.0,0.0,0.0,0.0,0.0,0.0,0.0,0.0,0.0,0.0,0.0,0.0,0.0,0.0,0.0,0.0,0.0,0.0,0.0,0.0,0.0,0.0,0.0,0.0,0.0,-0.0613,-0.0667,0.1222,0.2552,0.3183,0.3389,0.4317,0.0,0.0,0.0,0.0,0.0,0.0,0.0,0.0,0.0,0.0,0.0,0.0,0.0,0.0,0.0,0.0,0.0,0.0,0.0,0.0,0.0,0.0,0.0,0.0,0.0,0.0,0.0,0.0,0.0,0.0,0.0,0.0,0.0,0.0,0.0,0.0,0.0,0.0,0.0,0.0,0.0,0.0,0.0,0.0,0.0,0.0,0.0,0.0,0.0,0.0,0.0,0.0,0.0,0.0,0.0,0.0,0.0,0.0,0.0,0.0,0.0,0.0,0.0,0.0,0.0,0.0,0.0,0.0,0.0,0.0,0.0,0.0,0.0,0.0,0.0,0.0,0.0,0.0,0.0,0.0,0.0,0.0,0.0,0.0,0.0,0.0,0.0,0.0,0.0,0.0,0.0,0.0,0.0,0.0,0.0,0.0,0.0,0.0,0.0,0.0,0.0,0.0,0.0,0.0,0.0,0.0,0.0,-0.0539,-0.0758,-0.0809,0.0569,0.1935,0.3174,0.4154,0.5036,0.5807,0.0,0.0,0.0,0.0,0.0,0.0,0.0,0.0,0.0,0.0,0.0,0.0,0.0,0.0,0.0,0.0,0.0,0.0,0.0,0.0,0.0,0.0,0.0,0.0,0.0,0.0,0.0,0.0,0.0,0.0,0.0,0.0,0.0,0.0,0.0,0.0,0.0,0.0,0.7301,0.7923,0.0,0.0,0.0,0.0,0.0,0.0,0.0,0.0,1.2893,0.0,0.0,0.0,0.0,0.0,0.0,0.0,0.0,0.0,0.0,0.0,0.0,0.0,0.0,0.0,0.0,0.0,0.0,0.0,0.0,0.0,0.0,0.0,0.0,0.0,0.0,0.0,0.0,0.0,0.0,0.0,0.0,0.0,0.0,0.0,0.0,0.0,0.0,0.0,0.0,0.0,0.0,0.0,0.0,0.0,0.0,0.0,0.0,0.0,0.0,0.0,0.0,0.0,0.0,0.0,0.0,-0.0757,-0.0989,-0.069,0.0146,0.1269,0.2571,0.4048,0.4899,0.541,0.5582,0.0,0.0,0.0,0.0,0.0,0.0,0.0,0.0,0.0,0.0,0.0,0.0,0.0,0.0,0.0,0.0,0.0,0.0,0.0,0.0,0.0,0.0,0.0,0.0,0.0,0.0,0.0,0.0,0.0,0.0,0.0,0.0,0.0,0.0,0.0,0.0,0.0,0.0,0.0,0.9144,0.9876,0.0,0.0,0.0,0.0,0.0,0.0,0.0,0.0,1.2631,0.0,0.0,0.0,0.0,0.0,0.0,0.0,0.0,0.0,0.0,0.0,0.0,0.0,0.0,0.0,0.0,0.0,0.0,0.0,0.0,0.0,0.0,0.0,0.0,0.0,0.0,0.0,0.0,0.0,0.0,0.0,0.0,0.0,0.0,0.0,0.0,0.0,0.0,0.0,0.0,0.0,0.0,0.0,0.0,0.0,0.0,0.0,0.0,0.0,0.0,0.0,0.0,0.0,0.0,0.0,-0.0976,-0.0656,-0.0259,0.0222,0.1886,0.3172,0.3974,0.4871,0.5378,0.0,0.0,0.0,0.0,0.0,0.0,0.0,0.0,0.0,0.0,0.0,0.0,0.0,0.0,0.0,0.0,0.0,0.0,0.0,0.0,0.0,0.0,0.0,0.0,0.0,0.0,0.0,0.0,0.0,0.0,0.0,0.0,0.0,0.0,0.0,0.0,0.0,0.0,0.0,0.0,0.9697,1.0417,1.1579,0.0,0.0,0.0,0.0,0.0,0.0,1.3233,1.2748,0.0,0.0,0.0,0.0,0.0,0.0,0.0,0.0,0.0,0.0,0.0,0.0,0.0,0.0,0.0,0.0,0.0,0.0,0.0,0.0,0.0,0.0,0.0,0.0,0.0,0.0,0.0,0.0,0.0,0.0,0.0,0.0,0.0,0.0,0.0,0.0,0.0,0.0,0.0,0.0,0.0,0.0,0.0,0.0,0.0,0.0,0.0,0.0,0.0,0.0,0.0,0.0,0.0,0.0,0.0,-0.082,-0.0164,0.0343,0.0702,0.2472,0.3591,0.3945,0.4622,0.5062,0.0,0.0,0.0,0.0,0.0,0.0,0.0,0.0,0.0,0.0,0.0,0.0,0.0,0.0,0.0,0.0,0.0,0.0,0.0,0.0,0.0,0.0,0.0,0.0,0.0,0.0,0.0,0.0,0.0,0.0,0.0,0.0,0.0,0.0,0.0,0.0,0.0,0.0,0.0,0.0,0.0,1.0838,1.2416,1.2134,0.0,0.0,0.0,0.0,1.3793,1.3896,0.0,0.0,0.0,0.0,0.0,0.0,0.0,0.0,0.0,0.0,0.0,0.0,0.0,0.0,0.0,0.0,0.0,0.0,0.0,0.0,0.0,0.0,0.0,0.0,0.0,0.0,0.0,0.0,0.0,0.0,0.0,0.0,0.0,0.0,0.0,0.0,0.0,0.0,0.0,0.0,0.0,0.0,0.0,0.0,0.0,0.0,0.0,0.0,0.0,0.0,0.0,0.0,0.0,0.0,0.0,0.0,0.0237,0.0205,0.105,0.2727,0.304,0.3684,0.4703,0.4415,0.4491,0.0,0.0,0.0,0.0,0.0,0.0,0.0,0.0,0.0,0.0,0.0,0.0,0.0,0.0,0.0,0.0,0.0,0.0,0.0,0.0,0.0,0.0,0.0,0.0,0.0,0.0,0.0,0.0,0.0,0.0,0.0,0.0,0.0,0.0,0.0,0.0,0.0,0.0,0.0,0.0,0.0,1.1153,1.2361,1.2343,1.2303,0.0,0.0,1.4335,1.5872,1.6839,0.0,0.0,0.0,0.0,0.0,0.0,0.0,0.0,0.0,0.0,0.0,0.0,0.0,0.0,0.0,0.0,0.0,0.0,0.0,0.0,0.0,0.0,0.0,0.0,0.0,0.0,0.0,0.0,0.0,0.0,0.0,0.0,0.0,0.0,0.0,0.0,0.0,0.0,0.0,0.0,0.0,0.0,0.0,0.0,0.0,0.0,0.0,0.0,0.0,0.0,0.0,0.0,0.0,0.0,0.0,0.0433,0.042,0.0831,0.175,0.3162,0.3695,0.4247,0.4873,0.4163,0.4242,0.0,0.0,0.0,0.0,0.0,0.0,0.0,0.0,0.0,0.0,0.0,0.0,0.0,0.0,0.0,0.0,0.0,0.0,0.0,0.0,0.0,0.0,0.0,0.0,0.0,0.0,0.0,0.0,0.0,0.0,0.0,0.0,0.0,0.0,0.0,0.0,0.0,0.0,0.0,0.0,0.0,0.0,1.2639,1.3077,0.0,0.0,0.0,1.5588,1.5929,0.0,0.0,0.0,0.0,0.0,0.0,0.0,0.0,0.0,0.0,0.0,0.0,0.0,0.0,0.0,0.0,0.0,0.0,0.0,0.0,0.0,0.0,0.0,0.0,0.0,0.0,0.0,0.0,0.0,0.0,0.0,0.0,0.0,0.0,0.0,0.0,0.0,0.0,0.0,0.0,0.0,0.0,0.0,0.0,0.0,0.0,0.0,0.0,0.0,0.0,0.0,0.0,0.0,0.0,0.0,0.0,0.0,0.1004,0.1708,0.2569,0.3566,0.4248,0.4668,0.4812,0.411,0.0,0.0,0.0,0.0,0.0,0.0,0.0,0.0,0.0,0.0,0.0,0.0,0.0,0.0,0.0,0.0,0.0,0.0,0.0,0.0,0.0,0.0,0.0,0.0,0.0,0.0,0.0,0.8902,0.0,0.0,0.0,0.0,0.0,0.0,0.0,0.0,0.0,0.0,0.0,0.0,0.0,0.0,1.2641,1.2903,1.3685,1.43,0.0,0.0,1.6656,1.6327,1.8275,1.8929,0.0,0.0,0.0,0.0,0.0,0.0,0.0,0.0,0.0,0.0,0.0,0.0,0.0,0.0,0.0,0.0,0.0,0.0,0.0,0.0,0.0,0.0,0.0,0.0,0.0,0.0,0.0,0.0,0.0,0.0,0.0,0.0,0.0,0.0,0.0,0.0,0.0,0.0,0.0,0.0,0.0,0.0,0.0,0.0,0.0,0.0,0.0,0.0,0.0,0.0,0.0,0.0,0.0,0.0,0.2003,0.2614,0.2867,0.3536,0.4647,0.4639,0.4621,0.4608,0.4381,0.4549,0.0,0.0,0.0,0.0,0.0,0.0,0.0,0.0,0.0,0.0,0.0,0.0,0.0,0.0,0.0,0.0,0.0,0.0,0.0,0.0,0.0,0.0,0.0,0.0,0.0,0.0,0.0,0.0,0.0,0.0,0.0,0.0,0.0,0.0,0.0,0.0,0.0,0.0,0.0,0.0,0.0,1.2811,1.3048,1.393,1.4909,0.0,1.6691,1.7459,1.8032,2.0991,2.2059,1.8477,0.0,0.0,0.0,0.0,0.0,0.0,0.0,0.0,0.0,0.0,0.0,0.0,0.0,0.0,0.0,0.0,0.0,0.0,0.0,0.0,0.0,0.0,0.0,0.0,0.0,0.0,0.0,0.0,0.0,0.0,0.0,0.0,0.0,0.0,0.0,0.0,0.0,0.0,0.0,0.0,0.0,0.0,0.0,0.0,0.0,0.0,0.0,0.0,0.0,0.0,0.0,0.0,0.0,0.2157,0.2834,0.3015,0.3657,0.4743,0.4663,0.4621,0.4621,0.4214,0.4381,0.0,0.0,0.0,0.0,0.0,0.0,0.0,0.0,0.0,0.0,0.0,0.0,0.0,0.0,0.0,0.0,0.0,0.0,0.0,0.0,0.0,0.0,0.0,0.0,0.0,0.0,0.0,0.0,1.0738,1.1218,1.1219,0.0,0.0,0.0,0.0,0.0,0.0,0.0,0.0,0.0,0.0,1.3601,1.468,1.5288,0.0,0.0,1.821,1.9275,1.838,2.0809,2.1557,1.7934,1.7164,0.0,0.0,0.0,0.0,0.0,0.0,0.0,0.0,0.0,0.0,0.0,0.0,0.0,0.0,0.0,0.0,0.0,0.0,0.0,0.0,0.0,0.0,0.0,0.0,0.0,0.0,0.0,0.0,0.0,0.0,0.0,0.0,0.0,0.0,0.0,0.0,0.0,0.0,0.0,0.0,0.0,0.0,0.0,0.0,0.0,0.0,0.0,0.0,0.0,0.0,0.0,0.0,0.2516,0.3102,0.3383,0.395,0.478,0.4663,0.4621,0.4585,0.421,0.438,0.0,0.0,0.0,0.0,0.0,0.0,0.0,0.0,0.0,0.0,0.0,0.0,0.0,0.0,0.0,0.0,0.0,0.0,0.0,0.0,0.0,0.0,0.0,0.0,0.0,0.0,0.0,0.0,1.0798,1.1138,1.1036,0.0,0.0,0.0,0.0,0.0,0.0,0.0,0.0,0.0,0.0,1.4545,1.5415,1.5924,1.6269,1.649,1.8593,1.9729,1.8492,2.0247,2.0695,1.7653,0.0,0.0,0.0,0.0,0.0,0.0,0.0,0.0,0.0,0.0,0.0,0.0,0.0,0.0,0.0,0.0,0.0,0.0,0.0,0.0,0.0,0.0,0.0,0.0,0.0,0.0,0.0,0.4467,0.0,0.0,0.2193,0.0,0.0,0.0,0.0,0.0,0.0,0.0,0.0,0.0,0.0,0.0,0.0,0.0,0.0,0.0,0.0,0.0,0.0,0.0,0.0,0.0,0.0,0.3269,0.3592,0.4184,0.4582,0.4772,0.4663,0.4569,0.4537,0.45,0.458,0.4817,0.0,0.0,0.0,0.0,0.0,0.0,0.0,0.0,0.0,0.0,0.0,0.0,0.0,0.0,0.0,0.0,0.0,0.0,0.0,0.0,0.0,0.0,0.0,0.0,0.0,0.0,0.8319,0.9726,1.0784,0.0,0.0,0.0,0.0,0.0,0.0,0.0,0.0,0.0,0.0,1.4014,1.5547,1.4846,1.5415,1.6021,1.6302,1.7446,1.8339,1.8516,1.9608,1.9849,0.0,0.0,0.0,0.0,0.0,0.0,0.0,0.0,0.0,0.0,0.0,0.0,0.0,0.0,0.0,0.0,0.0,0.0,0.0,0.0,0.0,0.0,0.0,0.0,0.0,0.0,0.0,0.2904,0.2431,0.0,0.0,0.0,0.0,0.0,0.0,0.0,0.0,0.0,0.0,0.0,-0.1057,0.023,0.0,0.0,0.0,0.0,0.0,0.0,0.0,0.0,0.0,0.0,0.0,0.0,0.2749,0.3666,0.3631,0.3662,0.3777,0.3665,0.3284,0.2635,0.305,0.3755,0.4713,0.0,0.0,0.0,0.0,0.0,0.0,0.0,0.0,0.0,0.0,0.0,0.0,0.0,0.0,0.0,0.0,0.0,0.0,0.0,0.0,0.0,0.0,0.0,0.0,0.0,0.8795,0.0,0.0,0.0,0.0,0.0,0.0,0.0,0.0,0.0,0.0,0.0,1.1798,1.2942,1.3786,1.4473,1.4883,1.5354,1.5929,0.0,0.0,0.0,0.0,0.0,0.0,0.0,0.0,0.0,0.0,0.0,0.0,0.0,0.0,2.1645,1.9319,1.92,1.9622,2.024,0.0,0.0,0.0,0.0,0.0,0.0,0.0,0.0,0.0,0.0,0.0,0.0,0.0,0.0,0.082,0.0,0.0983,0.0,0.0,0.0,0.0,0.0,0.0,0.0,0.0,-0.127,-0.1188,-0.1804,-0.0535,0.0311,0.0,0.1103,0.1654,0.0,0.0,0.0,0.0,0.0,0.0,0.0,0.0,0.1937,0.2843,0.2666,0.2578,0.2688,0.2588,0.2222,0.1609,0.2359,0.3246,0.4207,0.5361,0.5833,0.0,0.0,0.0,0.0,0.0,0.0,0.0,0.0,0.0,0.0,0.0,0.0,0.0,0.0,0.0,0.0,0.0,0.0,0.0,0.0,0.0,0.0,0.0,0.9552,0.0,0.0,0.0,0.0,0.0,0.0,0.0,0.0,0.0,1.2069,1.2232,1.2822,1.4159,1.4413,1.457,1.4799,0.0,0.0,0.0,0.0,0.0,0.0,0.0,1.6801,1.5822,1.6033,1.6569,1.7323,1.8769,2.0023,2.0762,0.0,0.0,2.1332,2.1463,2.1888,2.2514,2.2229,2.2203,2.3141,2.2709,2.2141,0.0,0.0,0.0,0.0,0.0,0.0,0.0,0.0,-0.2267,-0.1676,0.0,-0.0213,0.0,0.0,0.0,0.0,-0.122,-0.2097,0.0,0.0,-0.1732,-0.1756,-0.1625,-0.0912,-0.0552,-0.0492,0.0169,0.0528,0.0633,0.1205,0.0,0.0,0.0,0.0,0.0,0.0,0.0969,0.1246,0.1387,0.1497,0.1543,0.1494,0.1475,0.1519,0.2422,0.3098,0.3474,0.4594,0.5307,0.5495,0.5869,0.0,0.0,0.0,0.0,0.0,0.0,0.0,0.0,0.0,0.0,0.0,0.0,0.0,0.0,0.0,0.0,0.0,0.0,0.0,0.0,0.9616,0.0,0.0,0.0,0.0,0.0,0.0,0.0,0.0,0.0,0.0,1.2418,1.3254,1.4183,1.4956,0.0,0.0,0.0,0.0,1.5141,1.4194,1.4886,1.5762,1.6297,1.7051,1.7654,1.7855,0.0,0.0,2.0135,1.9552,1.9043,1.8665,1.9765,2.1438,2.4991,2.497,2.4716,2.4779,2.3886,2.34,2.3248,2.1799,2.0342,-0.4714,0.0,0.0,0.0,0.0,-0.5255,-0.537,-0.5597,-0.4864,-0.449,-0.4334,-0.3733,0.0,0.0,0.0,0.0,0.0,0.0,-0.3386,-0.3995,-0.247,-0.2144,-0.2853,-0.1937,-0.1484,-0.1431,-0.1217,-0.0733,-0.01,-0.0528,-0.0211,0.0889,0.0,0.0,0.0,0.0,0.0303,0.1046,0.0669,0.0449,0.0473,0.0441,0.0743,0.1422,0.1669,0.2603,0.4338,0.4784,0.5161,0.5495,0.6328,0.0,0.0,0.0,0.0,0.0,0.0,0.0,0.0,0.0,0.0,0.0,0.0,0.0,0.0,0.0,0.0,0.0,0.0,0.0,0.9965,1.0345,1.0204,0.0,0.0,0.0,0.0,0.0,0.0,0.0,0.0,0.0,1.4449,1.3991,1.3822,0.0,0.0,1.4099,1.3532,1.428,1.5105,1.5605,1.6075,0.0,1.7384,1.7413,1.7243,1.702,1.8197,1.9362,1.9832,2.0233,2.0776,2.1554,2.2053,2.2923,2.4589,2.3698,2.2677,2.2802,2.2845,2.2938,2.3133,2.2852,2.2699,-0.9297,-0.8349,-0.7443,-0.753,-0.8248,-0.801,-0.8,-0.8077,-0.7186,-0.6679,-0.6513,-0.576,-0.5326,-0.5108,-0.458,0.0,0.0,0.0,-0.4672,-0.4719,-0.3271,-0.2684,-0.2777,-0.2241,-0.1906,-0.1847,-0.187,-0.1543,-0.0906,-0.1475,-0.1267,-0.0364,0.0,0.0,-0.0282,-0.0702,-0.0619,-0.0023,-0.042,-0.0687,-0.0659,-0.0246,0.0239,0.0832,0.1543,0.2702,0.4262,0.4726,0.5145,0.558,0.6291,0.6652,0.0,0.0,0.0,0.0,0.0,0.0,0.0,0.0,0.0,0.0,0.0,0.8767,0.8455,0.0,0.0,0.0,0.923,0.9583,1.0156,0.9837,0.0,0.0,0.0,0.0,0.0,0.0,0.0,1.193,1.3399,1.4666,1.539,1.498,1.4883,1.5646,1.527,1.4799,1.4425,0.0,1.5858,1.6421,1.6619,1.6946,1.7665,1.7822,1.7864,1.7976,1.8709,1.943,1.9837,2.037,2.0969,2.1695,2.2027,2.2341,2.3107,2.2036,2.1581,2.2888,2.3365,2.3614,2.3864,2.3711,2.3611,-1.2653,-1.2138,-0.9946,-0.9629,-1.0522,-1.0378,-1.0406,-1.0472,-0.9147,-0.8402,-0.8086,-0.6784,-0.6114,-0.5992,-0.6502,0.0,-0.6046,-0.6568,-0.5981,-0.4409,-0.4114,-0.3295,-0.2168,-0.2043,-0.1966,-0.1911,-0.1966,-0.1963,-0.1822,-0.1793,-0.1745,-0.1628,-0.1545,-0.1491,-0.1406,-0.153,-0.1591,-0.1596,-0.1551,-0.1515,-0.1406,-0.0472,0.0095,0.0278,0.1975,0.3163,0.3712,0.4541,0.5213,0.568,0.6011,0.6599,0.7422,0.0,0.0,0.0,0.0,0.0,0.0,0.0,0.0,0.0,0.0,0.0,0.0,0.0,0.0,0.0,0.9767,0.0,0.9843,0.861,0.0,0.0,0.0,0.8498,1.0494,1.1174,1.2066,1.3614,0.0,0.0,1.562,1.6091,1.6819,1.7859,1.7472,1.6904,1.6408,1.6742,1.7057,1.6858,1.6916,1.7138,1.779,1.8395,1.9046,1.9738,2.0074,2.0011,2.0087,2.0113,2.0106,2.0234,2.0361,2.0615,2.0583,2.0619,2.138,2.3886,2.4409,2.4455,2.424,2.3499,2.2815,-1.3028,-1.2647,-1.2074,-1.1827,-1.183,-1.1553,-1.136,-1.1192,-1.0376,-0.9898,-0.9718,-0.912,-0.8301,-0.7387,-0.8395,-0.8462,-0.7703,-0.7761,-0.7622,-0.7173,-0.5097,-0.397,-0.3631,-0.2522,-0.2018,-0.206,-0.2026,-0.1995,-0.1943,-0.1906,-0.1829,-0.1749,-0.1681,-0.1557,-0.141,-0.1476,-0.1549,-0.1596,-0.0728,0.0102,0.0858,0.1188,0.1664,0.2269,0.2733,0.3503,0.4612,0.4875,0.5213,0.5686,0.6452,0.7077,0.7457,0.7665,0.0,0.0,0.0,0.0,0.0,0.0,0.0,0.0,0.0,0.9156,0.8402,0.0,0.9288,0.0,0.8859,0.9346,0.9414,0.9076,0.0,0.0,0.8494,0.872,0.9058,1.1378,1.292,1.2692,1.4987,1.6718,1.7012,1.7327,1.7847,1.8669,1.7636,1.6742,1.6634,1.7225,1.7677,1.7681,1.8305,1.8945,1.9019,1.9275,1.9525,2.0036,1.9871,1.9807,2.0074,2.0119,2.0119,2.0106,2.017,2.0202,2.0202,2.0202,2.0425,2.1096,2.1254,2.1254,2.1254,2.1222,2.1222,-1.3133,-1.2792,-1.2697,-1.2437,-1.2026,-1.1832,-1.167,-1.1441,-1.0905,-1.0583,-1.046,-1.0222,-0.9318,-0.8013,-0.8633,-0.8372,-0.7392,-0.7221,-0.6942,-0.6421,-0.4872,-0.3831,-0.3252,-0.243,-0.208,-0.2095,-0.2063,-0.2046,-0.2045,-0.1985,-0.1929,-0.1909,-0.182,-0.1727,-0.158,-0.1563,-0.1545,-0.1591,-0.0954,-0.0102,0.0904,0.1399,0.2045,0.2891,0.3258,0.382,0.4674,0.4641,0.4823,0.5286,0.5803,0.633,0.6883,0.689,0.7155,0.0,0.0,0.0,0.0,0.0,0.0,0.0,0.0,0.0,0.0,0.0,0.8785,0.8024,0.8327,0.8502,0.8332,0.7949,0.7668,0.7547,0.7804,0.831,0.9201,1.1743,1.3573,1.3976,1.6342,1.8064,1.8209,1.8342,1.8596,1.9044,1.8342,1.7756,1.7793,1.8185,1.8408,1.8463,1.8971,1.936,1.9348,1.9392,1.9456,1.9584,1.9488,1.9456,1.9628,1.966,1.966,1.966,1.9788,1.9871,1.9871,1.9883,1.9883,1.9851,1.9756,1.9788,2.0043,2.0234,2.0425,-1.3048,-1.2724,-1.2527,-1.2147,-1.1705,-1.1705,-1.1584,-1.136,-1.1002,-1.0786,-1.065,-1.0372,-0.9469,-0.8173,-0.7975,-0.7284,-0.6251,-0.611,-0.5534,-0.4544,-0.4199,-0.3433,-0.2367,-0.22,-0.2105,-0.2107,-0.21,-0.2096,-0.2095,-0.2034,-0.1999,-0.1959,-0.1929,-0.1858,-0.1804,-0.169,-0.1543,-0.1384,-0.1375,-0.0874,0.0181,0.1039,0.1875,0.2754,0.3502,0.4009,0.4273,0.4222,0.4354,0.4771,0.483,0.5287,0.6213,0.569,0.5851,0.0,0.649,0.0,0.0,0.0,0.0,0.0,0.0,0.0,0.0,0.7916,0.8047,0.84,0.7942,0.7496,0.7157,0.6484,0.6263,0.6681,0.6855,0.7856,1.006,1.2136,1.4073,1.5908,1.7873,1.9104,1.9068,1.9104,1.9104,1.9104,1.9044,1.8947,1.9056,1.9044,1.9044,1.9104,1.9104,1.9136,1.9136,1.9136,1.9136,1.9136,1.9136,1.9104,1.9136,1.9136,1.9136,1.9136,1.936,1.9539,1.952,1.9507,1.9552,1.952,1.9328,1.9328,1.9788,1.9979,2.0138,-1.2652,-1.2322,-1.228,-1.2023,-1.1638,-1.1638,-1.1309,-1.0825,-1.0662,-1.0561,-1.0476,-0.9438,-0.8795,-0.8409,-0.7242,-0.6589,-0.6373,-0.6324,-0.6224,-0.5945,-0.4769,-0.4101,-0.3799,-0.2672,-0.2146,-0.2167,-0.212,-0.2096,-0.2096,-0.2033,-0.1936,-0.1837,-0.1836,-0.1797,-0.1802,0.0,0.0,0.0,-0.0239,0.0243,0.1346,0.1654,0.2105,0.2683,0.3082,0.0,0.4185,0.4456,0.4661,0.4787,0.4912,0.0,0.0,0.0,0.0,0.0,0.0,0.0,0.0,0.0,0.0,0.0,0.6455,0.6395,0.6994,0.6524,0.6697,0.7928,0.7239,0.6825,0.7215,0.7144,0.711,0.7328,0.7535,0.8438,1.0279,1.2343,1.4297,1.6055,1.7926,1.9104,1.9104,1.9104,1.9104,1.9104,1.9104,1.9104,1.9104,1.9104,1.9104,1.9104,1.9104,1.9104,1.9104,1.9104,1.9104,1.9104,1.9104,1.9104,1.9104,1.9104,1.9104,1.9104,1.9136,1.92,1.92,1.92,1.9232,1.92,1.9136,1.9136,1.9264,1.952,1.9807,-1.2626,-1.2308,-1.2084,-1.1784,0.0,-1.1504,-1.1253,-1.0806,-1.0907,-1.0853,-1.0585,-0.9205,-0.8207,-0.7431,-0.5992,-0.4947,-0.4284,-0.4287,-0.4289,-0.4251,-0.3526,-0.3241,-0.3262,-0.2506,-0.2174,-0.2186,-0.2157,-0.2142,-0.2139,-0.2078,-0.2024,-0.1951,-0.1919,-0.1891,-0.1891,-0.1861,-0.1495,-0.0787,-0.0808,-0.0299,0.07,0.0859,0.1262,0.1989,0.2701,0.0,0.0,0.0,0.0,0.0,0.0,0.0,0.0,0.5939,0.0,0.6799,0.6716,0.6736,0.6969,0.6813,0.6792,0.6962,0.6825,0.6698,0.672,0.6524,0.6785,0.7551,0.7142,0.698,0.7354,0.7452,0.754,0.7611,0.7818,0.8717,1.0528,1.2485,1.4377,1.619,1.8006,1.9104,1.9104,1.9104,1.9104,1.9104,1.9104,1.9104,1.9104,1.9104,1.9104,1.9104,1.9104,1.9104,1.9104,1.9104,1.9104,1.9104,1.9104,1.9104,1.9104,1.9104,1.9104,1.9104,1.9104,1.9104,1.9104,1.9104,1.9104,1.9104,1.9104,1.9104,1.9104,1.9232,1.9456,-1.2559,-1.2276,-1.194,-1.1681,-1.143,-1.1436,-1.1294,-1.1049,-1.124,0.0,0.0,-0.8912,-0.7431,-0.5949,-0.4549,-0.3272,-0.2149,-0.2124,-0.2127,-0.2117,-0.2117,-0.2131,-0.2188,-0.2189,-0.2189,-0.2189,-0.2189,-0.2186,-0.2179,-0.2121,-0.2094,-0.2096,-0.2038,-0.2015,-0.2024,-0.2023,-0.1973,-0.1873,-0.1772,-0.1316,-0.0504,-0.041,0.0105,0.1055,0.2208,0.2906,0.3089,0.4295,0.5055,0.5246,0.5288,0.5381,0.5561,0.555,0.5632,0.5739,0.5756,0.5973,0.6451,0.6638,0.6893,0.7253,0.7415,0.7317,0.6812,0.7089,0.7279,0.7387,0.7365,0.7397,0.7568,0.7886,0.8073,0.8119,0.8601,0.972,1.1593,1.3161,1.4984,1.67,1.8247,1.9104,1.9104,1.9104,1.9104,1.9104,1.9104,1.9104,1.9104,1.9104,1.9104,1.9104,1.9104,1.9104,1.9104,1.9104,1.9104,1.9104,1.9104,1.9104,1.9104,1.9104,1.9104,1.9104,1.9104,1.9104,1.9104,1.9104,1.9104,1.9104,1.9104,1.9104,1.9104,1.9104,1.9232,-1.2067,-1.1866,-1.183,-1.1698,-1.1586,-1.1586,-1.1529,-1.1462,-1.113,-1.013,-0.8673,-0.7506,-0.6077,-0.451,-0.3103,-0.2383,-0.2182,-0.2178,-0.2178,-0.2182,-0.2182,-0.2185,-0.2189,-0.2189,-0.2189,-0.2189,-0.2189,-0.2175,-0.2117,-0.2112,-0.2094,-0.21,-0.2091,-0.2087,-0.2084,-0.2084,-0.2074,-0.2056,-0.1917,-0.1753,-0.157,-0.1453,-0.0909,0.0172,0.1532,0.2615,0.3412,0.4812,0.5524,0.5464,0.5578,0.5806,0.614,0.6167,0.6358,0.6741,0.6785,0.6904,0.7132,0.7186,0.7322,0.7589,0.7533,0.7524,0.7551,0.7497,0.7557,0.7758,0.7635,0.7584,0.787,0.8762,0.949,0.99,1.1199,1.2895,1.4687,1.5529,1.6647,1.8375,1.89,1.9104,1.9104,1.9104,1.9104,1.9104,1.9104,1.9104,1.9104,1.9104,1.9104,1.9104,1.9104,1.9104,1.9104,1.9104,1.9104,1.9104,1.9104,1.9104,1.9104,1.9104,1.9104,1.9104,1.9104,1.9104,1.9104,1.9104,1.9104,1.9104,1.9104,1.9104,1.9104,1.9104,1.9232,-1.221,-1.2088,-1.2081,-1.1908,-1.1692,-1.1617,-1.1536,-1.1491,-1.1333,-1.0344,-0.8615,-0.6393,-0.5006,-0.4211,-0.2788,-0.2163,-0.2163,-0.2146,-0.2147,-0.2129,-0.2129,-0.2072,-0.1885,-0.1885,-0.1851,-0.1885,-0.1851,-0.1979,-0.2135,-0.2168,-0.2119,-0.2121,-0.2105,-0.2096,-0.2096,-0.1871,-0.1774,-0.1771,-0.1885,-0.1862,-0.1656,-0.1554,-0.1174,-0.0483,0.1474,0.2794,0.3238,0.5203,0.6293,0.6303,0.6382,0.6545,0.6828,0.6844,0.6975,0.7252,0.7274,0.7262,0.7305,0.737,0.754,0.7769,0.7741,0.7731,0.779,0.7622,0.7565,0.7788,0.8266,0.8717,0.897,1.0192,1.1086,1.1263,1.2258,1.3647,1.546,1.6096,1.7032,1.8716,1.9104,1.9104,1.9104,1.9104,1.9104,1.9104,1.9104,1.9104,1.9104,1.9104,1.9104,1.9104,1.9104,1.9104,1.9104,1.9104,1.9104,1.9104,1.9104,1.9104,1.9104,1.9104,1.9104,1.9104,1.9104,1.9104,1.9104,1.9104,1.9104,1.9104,1.9104,1.9104,1.9104,1.9232,1.9488,-1.242,-1.2291,-1.2291,-1.2115,-1.1786,-1.1681,-1.1337,-1.0918,-1.0657,-0.9636,-0.7917,-0.5799,-0.45,-0.373,-0.2627,-0.2129,-0.2125,-0.2131,-0.2064,-0.1986,-0.1986,-0.1799,-0.1513,-0.1481,-0.1481,-0.1481,-0.1515,-0.1649,-0.1918,-0.1953,-0.1942,-0.1854,-0.1866,-0.1888,-0.1855,-0.1562,-0.14,-0.143,-0.1652,-0.1659,-0.1402,-0.1332,-0.0977,-0.0234,0.1857,0.3258,0.3661,0.575,0.7008,0.7095,0.7105,0.7187,0.7332,0.7349,0.7403,0.7511,0.7506,0.7462,0.7408,0.75,0.7676,0.7881,0.7903,0.7913,0.7955,0.8079,0.8207,0.8474,0.9318,1.0023,1.0663,1.1913,1.2867,1.2942,1.3585,1.4806,1.6242,1.6666,1.7317,1.8844,1.9104,1.9104,1.9104,1.9104,1.9104,1.9104,1.9104,1.9104,1.9104,1.9104,1.9104,1.9104,1.9104,1.9104,1.9104,1.9104,1.9104,1.9104,1.9104,1.9104,1.9104,1.9104,1.9104,1.9104,1.9104,1.9104,1.9104,1.9104,1.9104,1.9104,1.9104,1.9136,1.9232,1.9584,1.9871,-1.242,-1.2298,-1.2298,-1.2115,-1.1793,-1.1608,-1.0803,-0.9454,-0.8054,-0.6568,-0.5358,-0.6183,-0.5012,-0.27,-0.2286,-0.2189,-0.2154,-0.2193,-0.1981,-0.1681,-0.1646,-0.1479,-0.1178,-0.1144,-0.1144,-0.1144,-0.1144,-0.1178,-0.1279,-0.1245,-0.1211,-0.1209,-0.1174,-0.1206,-0.1206,-0.1139,-0.1139,-0.1139,-0.1123,-0.1074,-0.1059,-0.0968,-0.0246,0.1254,0.2551,0.3969,0.5292,0.673,0.7424,0.7441,0.7435,0.7475,0.7473,0.7473,0.7527,0.7671,0.7584,0.7557,0.766,0.7774,0.787,0.7897,0.7908,0.7952,0.8107,0.9221,1.0102,1.0358,1.0607,1.1433,1.2672,1.392,1.478,1.5073,1.6244,1.7626,1.8082,1.864,1.892,1.9028,1.9104,1.9104,1.9104,1.9104,1.9104,1.9104,1.9104,1.9104,1.9104,1.9104,1.9104,1.9104,1.9104,1.9104,1.9104,1.9104,1.9104,1.9104,1.9104,1.9104,1.9104,1.9104,1.9104,1.9104,1.9104,1.9104,1.9104,1.9104,1.9104,1.92,1.92,1.9232,1.952,2.003,2.0425,-1.2467,-1.2413,-1.2413,-1.2244,-1.1878,-1.0729,-0.9873,-0.9183,-0.7657,-0.6137,-0.4872,-0.5351,-0.4387,-0.2325,-0.221,-0.2087,-0.1913,-0.1903,-0.169,-0.131,-0.13,-0.109,-0.0783,-0.0743,-0.0741,-0.0741,-0.0741,-0.0875,-0.1077,-0.1111,-0.1111,-0.1111,-0.1111,-0.1111,-0.1077,-0.0842,-0.0741,-0.074,-0.0536,-0.0399,-0.033,0.0191,0.0936,0.1897,0.3691,0.4967,0.5708,0.6877,0.7551,0.7622,0.7598,0.7655,0.7725,0.7725,0.7777,0.779,0.7693,0.7682,0.7796,0.7815,0.7832,0.7897,0.7968,0.8033,0.8119,0.8764,0.9602,1.0865,1.2339,1.3309,1.319,1.4993,1.6539,1.6831,1.746,1.8079,1.8593,1.8792,1.8923,1.9068,1.9104,1.9104,1.9104,1.9104,1.9104,1.9104,1.9104,1.9104,1.9104,1.9104,1.9104,1.9104,1.9104,1.9104,1.9104,1.9104,1.9104,1.9104,1.9104,1.9104,1.9104,1.9104,1.9104,1.9104,1.9104,1.9104,1.9104,1.9104,1.9136,1.9296,1.9616,1.9788,2.0125,2.0412,2.0699,-1.2535,-1.2424,-1.1991,-1.1396,-1.0664,-0.9291,-0.8428,-0.7951,-0.6837,-0.5452,-0.3966,-0.3894,-0.3226,-0.2121,-0.2058,-0.187,-0.1551,-0.1546,-0.1297,-0.0981,-0.0937,-0.0724,-0.0412,-0.0376,-0.0373,-0.0371,-0.0372,-0.0507,-0.0775,-0.0808,-0.0808,-0.0808,-0.0808,-0.0808,-0.0774,-0.0505,-0.037,-0.0337,-0.0135,0.0168,0.0636,0.1656,0.2326,0.2733,0.4669,0.5964,0.6358,0.7164,0.7655,0.7741,0.7747,0.7785,0.7892,0.7903,0.7903,0.7897,0.7796,0.778,0.7897,0.7796,0.7796,0.7941,0.8039,0.8115,0.8255,0.8697,0.939,1.0384,1.3069,1.4213,1.4204,1.6164,1.7744,1.804,1.8099,1.83,1.8734,1.8782,1.8911,1.9068,1.9104,1.9104,1.9104,1.9104,1.9104,1.9104,1.9104,1.9104,1.9104,1.9104,1.9104,1.9104,1.9104,1.9104,1.9104,1.9104,1.9104,1.9104,1.9104,1.9104,1.9104,1.9104,1.9104,1.9104,1.9104,1.9104,1.9136,1.9136,1.936,1.9679,1.9998,2.0304,2.0586,2.0764,2.1107,-1.2598,-1.2217,-1.065,-0.9142,-0.7549,-0.7249,-0.6289,-0.5182,-0.4833,-0.3716,-0.2153,-0.2006,-0.1677,-0.1275,-0.1546,-0.1501,-0.1178,-0.1131,-0.0915,-0.0562,-0.0526,-0.0348,-0.0034,-0.0035,0.0,0.0,0.0,0.0,0.0,0.0,-0.0067,0.0,0.0,0.0,0.0,0.0,0.0,0.0,0.0,0.0606,0.1912,0.3241,0.3902,0.4153,0.5382,0.6705,0.7739,0.7885,0.7892,0.7867,0.7903,0.7903,0.7908,0.7913,0.7919,0.7913,0.7908,0.7903,0.7913,0.7913,0.7957,0.8086,0.8099,0.8186,0.8399,0.9434,0.9877,0.9341,1.2168,1.4353,1.5421,1.6969,1.8414,1.8587,1.865,1.8746,1.9032,1.9044,1.908,1.9104,1.9104,1.9104,1.9104,1.9104,1.9104,1.9104,1.9104,1.9104,1.9104,1.9104,1.9104,1.9104,1.9104,1.9104,1.9104,1.9104,1.9104,1.9104,1.9104,1.9104,1.9104,1.9104,1.9104,1.9136,1.9168,1.92,1.92,1.9392,1.9711,2.003,2.0348,2.0667,2.0868,2.1277,2.1584,-1.1972,-1.085,-1.0102,-0.8831,-0.7209,-0.6043,-0.5066,-0.4239,-0.3254,-0.2352,-0.1529,-0.1407,-0.1181,-0.0849,-0.0948,-0.0906,-0.0797,-0.0793,-0.0576,-0.0216,-0.0178,-0.0106,0.0,0.0,0.0,0.0,0.0,0.0,0.0,0.0,0.0,0.0,0.0,0.0,0.0,0.0,0.0,0.0,0.0,0.0673,0.2084,0.3475,0.463,0.5587,0.6771,0.7658,0.8166,0.8096,0.8106,0.8074,0.8106,0.8074,0.8106,0.8106,0.8106,0.8074,0.8069,0.8074,0.8106,0.8106,0.8117,0.8166,0.8247,0.8312,0.8503,0.9124,0.9473,0.9645,1.1348,1.3134,1.3952,1.5861,1.782,1.872,1.8794,1.87,1.9032,1.9104,1.9104,1.9104,1.9104,1.9104,1.9104,1.9104,1.9104,1.9104,1.9104,1.9104,1.9104,1.9104,1.9104,1.9104,1.9104,1.9104,1.9104,1.9104,1.9104,1.9104,1.9104,1.9104,1.9104,1.9104,1.9104,1.92,1.9264,1.9424,1.952,1.9839,2.0157,2.038,2.0697,2.0877,2.1052,2.1419,2.1697,-1.0847,-0.9266,-0.8538,-0.7227,-0.5486,-0.4281,-0.3537,-0.3079,-0.2084,-0.1363,-0.1058,-0.1012,-0.0785,-0.0448,-0.0408,-0.0406,-0.0406,-0.0403,-0.0255,0.0,0.0,0.0,0.0,0.0,0.0,0.0,0.0,0.0,0.0,0.0,0.0,0.0,0.0,0.0,0.0,0.0,0.0,0.0,0.0,0.0673,0.205,0.3056,0.4532,0.6189,0.721,0.7844,0.8199,0.8226,0.8204,0.8204,0.8204,0.8204,0.8204,0.8204,0.8204,0.8204,0.8199,0.8204,0.8204,0.8204,0.822,0.8258,0.8334,0.8394,0.847,0.8872,0.9144,0.9616,1.0578,1.1736,1.266,1.4253,1.6007,1.7398,1.7586,1.7521,1.7742,1.813,1.8579,1.9008,1.9104,1.9104,1.9104,1.9104,1.9104,1.9104,1.9104,1.9104,1.9104,1.9104,1.9104,1.9104,1.9104,1.9104,1.9104,1.9104,1.9104,1.9104,1.9104,1.9104,1.9104,1.9104,1.9168,1.9296,1.9456,1.9679,1.9966,2.0316,2.0552,2.071,2.0869,2.1036,2.1259,2.1537,2.1836,-0.9273,-0.7615,-0.5781,-0.407,-0.2426,-0.2131,-0.1658,-0.1386,-0.1258,-0.0988,-0.0608,-0.0606,-0.0379,0.0,0.0,0.0,0.0,0.0,0.0,0.0,0.0,0.0,0.0,0.0,0.0,0.0,0.0,0.0,0.0,0.0,0.0,0.0,0.0,0.0,0.0,0.0,0.0,0.0,0.0,0.0,0.1916,0.2251,0.3627,0.6042,0.6527,0.7152,0.8323,0.828,0.8237,0.8231,0.8226,0.821,0.8231,0.8237,0.822,0.8237,0.822,0.8215,0.822,0.8231,0.8291,0.8426,0.8426,0.8541,0.8751,0.9011,0.9356,0.9688,1.0153,1.0916,1.2297,1.2832,1.3611,1.4707,1.5362,1.5372,1.5456,1.6236,1.7507,1.8483,1.8752,1.9008,1.904,1.9072,1.9072,1.9104,1.9104,1.9104,1.9104,1.9104,1.9104,1.9104,1.9104,1.9104,1.9104,1.9104,1.9104,1.9104,1.9104,1.9104,1.9136,1.9136,1.9328,1.9456,1.9743,1.9998,2.038,2.071,2.0826,2.0985,2.1112,2.1283,2.1523,2.181,2.2017,-0.8851,-0.6966,-0.5019,-0.3135,-0.157,-0.1486,-0.1211,-0.0781,-0.0778,-0.0544,-0.0233,-0.0192,-0.0115,0.0,0.0,0.0,0.0,0.0,0.0,0.0,0.0,0.0,0.0,0.0,0.0,0.0,0.0,0.0,0.0,0.0,0.0,0.0,0.0,0.0,0.0,0.0,0.0,0.0,0.0,0.0,0.195,0.2084,0.3492,0.6042,0.641,0.706,0.8436,0.8497,0.8475,0.847,0.8475,0.8481,0.8475,0.8475,0.8475,0.8481,0.8481,0.8475,0.8475,0.847,0.8612,0.8822,0.8861,0.9049,0.935,0.9622,0.9854,1.006,1.0359,1.0883,1.1214,1.1347,1.2388,1.4642,1.4903,1.4772,1.4805,1.5261,1.5684,1.6213,1.7055,1.7571,1.7861,1.8323,1.9008,1.9104,1.9104,1.9104,1.9104,1.9104,1.9104,1.9104,1.9104,1.9104,1.9104,1.9136,1.92,1.92,1.92,1.92,1.9232,1.936,1.952,1.9743,2.003,2.0348,2.0761,2.0977,2.1049,2.1246,2.1403,2.1609,2.185,2.2031,2.2258,-0.6949,-0.5627,-0.3698,-0.218,-0.1068,-0.1028,-0.0789,-0.0393,-0.0393,-0.0236,0.0,0.0,0.0,0.0,0.0,0.0,0.0,0.0,0.0,0.0,0.0,0.0,0.0,0.0,0.0,0.0,0.0,0.0,0.0,0.0,0.0,0.0,0.0,0.0,0.0,0.0,0.0,0.0,0.0,0.0443,0.1256,0.1829,0.324,0.5309,0.6142,0.7145,0.8451,0.8623,0.8623,0.8623,0.8623,0.8623,0.8623,0.8617,0.8623,0.8623,0.8617,0.8584,0.8623,0.874,0.8851,0.9084,0.9222,0.9422,0.9728,0.9994,1.0193,1.0226,1.0518,1.0717,1.0717,1.0717,1.1604,1.3079,1.3243,1.3604,1.3932,1.4128,1.4488,1.4977,1.5749,1.6365,1.7109,1.7592,1.8579,1.8912,1.9104,1.9104,1.9104,1.9104,1.9104,1.9104,1.9104,1.9104,1.9104,1.92,1.9296,1.9328,1.9328,1.936,1.9392,1.9647,1.9839,2.0157,2.0443,2.0666,2.1014,2.1046,2.1117,2.1395,2.1622,2.1729,2.1903,2.2164,2.2378,-0.4001,-0.3707,-0.2001,-0.1009,-0.06,-0.056,-0.0398,0.0,0.0,0.0,0.0,0.0,0.0,0.0,0.0,0.0,0.0,0.0,0.0,0.0,0.0,0.0,0.0,0.0,0.0,0.0,0.0,0.0,0.0,0.0,0.0,0.0,0.0,0.0,0.0,0.0,0.0,0.0,0.0,0.0,0.0,0.1203,0.2767,0.435,0.5524,0.6895,0.8383,0.8634,0.8623,0.8623,0.8623,0.8623,0.8623,0.8623,0.8623,0.8623,0.8623,0.8656,0.8684,0.8884,0.915,0.9283,0.9555,0.9728,0.9861,1.0127,1.0293,1.0293,1.0518,1.0717,1.0717,1.0717,1.085,1.075,1.1214,1.167,1.2487,1.2684,1.3112,1.4095,1.4716,1.5261,1.6495,1.6915,1.7797,1.8708,1.9104,1.9104,1.9104,1.9104,1.9104,1.9104,1.9136,1.9232,1.9296,1.952,1.9616,1.9647,1.9679,1.9711,1.9711,1.9934,2.0221,2.0539,2.0729,2.0951,2.1077,2.1109,2.1283,2.1596,2.1743,2.1783,2.2037,2.2378,2.2512,-0.3449,-0.3097,-0.118,-0.0284,-0.0162,-0.0162,0.0,0.0,0.0,0.0,0.0,0.0,0.0,0.0,0.0,0.0,0.0,0.0,0.0,0.0,0.0,0.0,0.0,0.0,0.0,0.0,0.0,0.0,0.0,0.0,0.0,0.0,0.0,0.0,0.0,0.0,0.0,0.0,0.0,0.0,0.0,0.0384,0.1844,0.4255,0.4726,0.6202,0.8405,0.8633,0.8623,0.8623,0.8623,0.8623,0.8623,0.8623,0.8623,0.8623,0.8623,0.8723,0.8917,0.9056,0.9356,0.9854,0.9954,1.0193,1.0425,1.0518,1.0585,1.0591,1.0658,1.0724,1.0724,1.0731,1.0731,1.0717,1.0738,1.089,1.1214,1.128,1.1446,1.1835,1.275,1.3955,1.5163,1.6333,1.741,1.8579,1.9072,1.9104,1.9104,1.9168,1.92,1.9232,1.9264,1.9392,1.9552,1.9807,1.9979,2.0011,2.0106,2.0234,2.0234,2.0297,2.0602,2.0919,2.0887,2.1077,2.1077,2.1109,2.1416,2.1697,2.1877,2.1957,2.2412,2.2752,2.2739,-0.1866,-0.1689,-0.0495,0.0,0.0,0.0,0.0,0.0,0.0,0.0,0.0,0.0,0.0,0.0,0.0,0.0,0.0,0.0,0.0,0.0,0.0,0.0,0.0,0.0,0.0,0.0,0.0,0.0,0.0,0.0,0.0,0.0,0.0,0.0,0.0,0.0,0.0,0.0,0.0,0.0,0.0,0.0638,0.1653,0.3396,0.3954,0.5526,0.755,0.84,0.8698,0.8622,0.8623,0.8623,0.8623,0.8623,0.8623,0.8623,0.8667,0.8812,0.9067,0.9257,0.9637,1.0106,1.0293,1.0485,1.0651,1.0717,1.0717,1.0684,1.0717,1.0718,1.0786,1.0867,1.09,1.0914,1.0819,1.0759,1.0731,1.0812,1.0745,1.0911,1.1439,1.2454,1.3866,1.5303,1.6667,1.7893,1.8752,1.8944,1.9104,1.92,1.9328,1.9392,1.9552,1.9743,1.9903,2.0125,2.0284,2.0361,2.0488,2.0615,2.0615,2.0615,2.0792,2.1014,2.1077,2.1109,2.1109,2.1176,2.1416,2.167,2.1871,2.2224,2.2653,2.2893,2.2893,0.0,0.0,0.0,0.0,0.0,0.0,0.0,0.0,0.0,0.0,0.0,0.0,0.0,0.0,0.0,0.0,0.0,0.0,0.0,0.0,0.0,0.0,0.0,0.0,0.0,0.0,0.0,0.0,0.0,0.0,0.0,0.0,0.0,0.0,0.0,0.0,0.0,0.0,0.0,0.0,0.0,0.0907,0.1725,0.2486,0.4215,0.5324,0.6821,0.7985,0.8811,0.8638,0.8622,0.8649,0.8644,0.8633,0.8638,0.8694,0.8838,0.9019,0.9243,0.9685,1.0001,1.0357,1.0632,1.0732,1.0799,1.0812,1.0819,1.0826,1.0738,1.0826,1.0921,1.1084,1.1145,1.1138,1.1002,1.0901,1.0792,1.084,1.0867,1.0792,1.0798,1.1434,1.2807,1.4155,1.5603,1.8247,1.8874,1.9269,1.9427,1.9539,1.9606,1.9679,1.9871,2.0138,2.0265,2.0425,2.0583,2.0666,2.0824,2.0919,2.0919,2.0951,2.1014,2.1109,2.1109,2.1109,2.1109,2.1256,2.1483,2.175,2.2017,2.2398,2.2733,2.2853,2.2893,0.0,0.0,0.0,0.0,0.0,0.0,0.0,0.0,0.0,0.0,0.0,0.0,0.0,0.0,0.0,0.0,0.0,0.0,0.0,0.0,0.0,0.0,0.0,0.0,0.0,0.0,0.0,0.0,0.0,0.0,0.0,0.0,0.0,0.0,0.0,0.0,0.0,0.0,0.0,0.0,0.0,0.0,0.1074,0.2194,0.4597,0.6075,0.6763,0.8084,0.8823,0.8854,0.8849,0.8859,0.8822,0.8851,0.8851,0.8925,0.9188,0.9515,0.9841,1.0191,1.0588,1.0879,1.0995,1.1063,1.1104,1.1084,1.1091,1.1097,1.1104,1.1063,1.1118,1.1179,1.1227,1.124,1.124,1.1219,1.1132,1.0968,1.0995,1.1016,1.1022,1.1761,1.411,1.4684,1.6239,1.8353,1.9242,1.9666,1.9809,1.9849,1.995,2.0049,2.0265,2.0488,2.0552,2.0692,2.0845,2.0948,2.112,2.1203,2.1189,2.1216,2.1256,2.1189,2.1109,2.1136,2.1229,2.139,2.1676,2.1911,2.2178,2.2472,2.2746,2.284,2.2907,0.0,0.0,0.0,0.0,0.0,0.0,0.0,0.0,0.0,0.0,0.0,0.0,0.0,0.0,0.0,0.0,0.0,0.0,0.0,0.0,0.0,0.0,0.0,0.0,0.0,0.0,0.0,0.0,0.0,0.0,0.0,0.0,0.0,0.0,0.0,0.0,0.0,0.0,0.0,0.0,0.0,0.0,0.0227,0.1387,0.3471,0.4909,0.575,0.7248,0.8425,0.9033,0.928,0.913,0.8986,0.9093,0.9162,0.9266,0.9643,1.0003,1.0326,1.0566,1.085,1.1172,1.12,1.12,1.12,1.12,1.12,1.12,1.12,1.122,1.1302,1.1355,1.1362,1.1369,1.1382,1.1382,1.1355,1.1246,1.1138,1.12,1.1125,1.2142,1.351,1.4987,1.6329,1.8161,1.9676,2.0112,2.0075,2.0145,2.0342,2.0483,2.0673,2.0837,2.0856,2.0959,2.112,2.1232,2.1358,2.1422,2.1422,2.1416,2.1456,2.1349,2.1243,2.139,2.1529,2.1689,2.1863,2.2111,2.2378,2.2579,2.2779,2.2966,2.3,0.0,0.0,0.0,0.0,0.0,0.0,0.0,0.0,0.0,0.0,0.0,0.0,0.0,0.0,0.0,0.0,0.0,0.0,0.0,0.0,0.0,0.0,0.0,0.0,0.0,0.0,0.0,0.0,0.0,0.0,0.0,0.0,0.0,0.0,0.0,0.0,0.0,0.0,0.0,0.0,0.0,0.0,0.0,0.0496,0.2339,0.3805,0.5193,0.6803,0.8347,0.9591,0.9741,0.9522,0.9336,0.9408,0.9672,0.9689,1.0208,1.0528,1.0652,1.0889,1.1127,1.1288,1.1308,1.1295,1.1302,1.137,1.1404,1.1356,1.137,1.1369,1.145,1.1511,1.1579,1.1586,1.1504,1.1525,1.1565,1.1511,1.1416,1.135,1.1823,1.2876,1.4105,1.5462,1.6695,1.7957,1.9494,2.0481,2.0454,2.0493,2.0728,2.0764,2.0895,2.0951,2.0982,2.12,2.1349,2.1456,2.1596,2.1649,2.1676,2.181,2.179,2.1523,2.1456,2.1649,2.181,2.1943,2.2124,2.2365,2.2552,2.2739,2.2939,2.314,2.31,0.0,0.0,0.0,0.0,0.0,0.0,0.0,0.0,0.0,0.0,0.0,0.0,0.0,0.0,0.0,0.0,0.0,0.0,0.0,0.0,0.0,0.0,0.0,0.0,0.0,0.0,0.0,0.0,0.0,0.0,0.0,0.0,0.0,0.0,0.0,0.0,0.0,0.0,0.0,0.0,0.0,0.0,0.0,0.0545,0.276,0.4347,0.5422,0.7633,0.9441,0.9703,1.0003,1.0108,1.0139,1.019,1.0315,1.0505,1.0925,1.1179,1.1103,1.1372,1.1523,1.1577,1.1626,1.1633,1.1626,1.1764,1.1735,1.1708,1.1687,1.1678,1.1748,1.1708,1.1597,1.164,1.1701,1.1678,1.1681,1.1687,1.1674,1.1567,1.2481,1.3633,1.4874,1.6289,1.7844,1.9084,2.0335,2.0965,2.09,2.1011,2.1208,2.114,2.1059,2.1077,2.1077,2.1344,2.1582,2.167,2.181,2.1911,2.1991,2.2191,2.2138,2.1857,2.179,2.197,2.2117,2.2191,2.2325,2.2512,2.2686,2.2873,2.3033,2.3193,2.3265,0.0,0.0,0.0,0.0,0.0,0.0,0.0,0.0,0.0,0.0,0.0,0.0,0.0,0.0,0.0,0.0,0.0,0.0,0.0,0.0,0.0,0.0,0.0,0.0,0.0,0.0,0.0,0.0,0.0,0.0,0.0,0.0,0.0,0.0,0.0,0.0,0.0,0.0,0.0,0.0,0.0,0.0766,0.1321,0.1977,0.3599,0.5364,0.6729,0.7688,0.9425,1.0315,1.0691,1.092,1.1028,1.1118,1.1088,1.1201,1.1543,1.1753,1.162,1.1844,1.1904,1.187,1.1918,1.1918,1.1898,1.1952,1.2033,1.1986,1.1952,1.1952,1.1938,1.1877,1.1857,1.1857,1.1904,1.1898,1.187,1.1911,1.1843,1.1844,1.2853,1.4127,1.57,1.7246,1.9036,2.0302,2.1271,2.1433,2.135,2.1534,2.1701,2.1561,2.1443,2.1443,2.1443,2.1603,2.1836,2.1911,2.2077,2.2164,2.2285,2.2445,2.2392,2.2164,2.2205,2.2331,2.2338,2.2432,2.2539,2.2632,2.2766,2.2947,2.3121,2.3233,2.338,0.0,0.0,0.0,0.0,0.0,0.0,0.0,0.0,0.0,0.0,0.0,0.0,0.0,0.0,0.0,0.0,0.0,0.0,0.0,0.0,0.0,0.0,0.0,0.0,0.0,0.0,0.0,0.0,0.0,0.0,0.0,0.0,0.0,0.0,0.0,0.0,0.0,0.0,0.0,0.0,0.0,0.1671,0.2674,0.2886,0.4676,0.6677,0.7814,0.8836,0.9841,1.0847,1.1378,1.1521,1.1837,1.196,1.1932,1.1781,1.2005,1.2128,1.2104,1.2139,1.2125,1.2057,1.2118,1.2125,1.2104,1.2111,1.2173,1.2179,1.2152,1.2145,1.2139,1.2104,1.2026,1.1993,1.2006,1.207,1.1959,1.1938,1.1938,1.2349,1.3285,1.4445,1.5867,1.8336,2.0108,2.0626,2.1562,2.1787,2.1753,2.2016,2.2118,2.1965,2.1871,2.1871,2.1884,2.1937,2.2098,2.2205,2.2352,2.2498,2.2612,2.2719,2.2586,2.2445,2.2565,2.2679,2.2659,2.2645,2.2712,2.28,2.2867,2.3054,2.3335,2.3522,2.3621,0.0,0.0,0.0,0.0,0.0,0.0,0.0,0.0,0.0,0.0,0.0,0.0,0.0,0.0,0.0,0.0,0.0,0.0,0.0,0.0,0.0,0.0,0.0,0.0,0.0,0.0,0.0,0.0,0.0,0.0,0.0,0.0,0.0,0.0,0.0,0.0,0.0,0.0,0.0,0.0,0.0,0.2062,0.2949,0.3899,0.6102,0.8308,0.8993,1.0011,1.1163,1.1388,1.1758,1.1856,1.196,1.2269,1.2379,1.2383,1.2388,1.2338,1.2207,1.2234,1.2261,1.2207,1.2241,1.2213,1.2207,1.2254,1.2305,1.244,1.2338,1.2302,1.2275,1.2193,1.2026,1.2013,1.2067,1.1959,1.1857,1.2101,1.2088,1.246,1.3278,1.4444,1.5756,1.8595,2.1069,2.1415,2.1734,2.1949,2.2185,2.2396,2.2498,2.2345,2.2265,2.2265,2.2291,2.2345,2.2365,2.2485,2.2592,2.2773,2.28,2.2827,2.284,2.28,2.2893,2.2893,2.2827,2.2827,2.288,2.2893,2.2893,2.3228,2.3656,2.379,2.3843,0.0,0.0,0.0,0.0,0.0,0.0,0.0,0.0,0.0,0.0,0.0,0.0,0.0,0.0,0.0,0.0,0.0,0.0,0.0,0.0,0.0,0.0,0.0,0.0,0.0,0.0,0.0,0.0,0.0,0.0,0.0,0.0,0.0,0.0,0.0,0.0,0.0,0.0,0.0,0.0,0.0,0.4288,0.6002,0.606,0.8874,1.0149,1.0781,1.1296,1.2104,1.2251,1.2503,1.2529,1.2568,1.268,1.2739,1.2637,1.2718,1.2649,1.2379,1.2386,1.2359,1.2338,1.2404,1.2379,1.2377,1.2397,1.242,1.2488,1.2447,1.2406,1.24,1.2352,1.2291,1.225,1.2196,1.2115,1.204,1.2189,1.2398,1.2839,1.3245,1.4208,1.5423,1.7924,2.0,2.0651,2.153,2.2497,2.263,2.273,2.2739,2.2639,2.2599,2.2599,2.2626,2.2679,2.2679,2.2712,2.2699,2.2853,2.2867,2.2893,2.2893,2.2893,2.2893,2.2893,2.2893,2.2893,2.2893,2.2893,2.2893,2.3228,2.3514,2.379,2.391,0.0,0.0,0.0,0.0,0.0,0.0,0.0,0.0,0.0,0.0,0.0,0.0,0.0,0.0,0.0,0.0,0.0,0.0,0.0,0.0,0.0,0.0,0.0,0.0,0.0,0.0,0.0,0.0,0.0,0.0,0.0,0.0,0.0,0.0,0.0,0.0,0.0,0.0,0.1805,0.2602,0.3397,0.6658,0.8169,0.9288,1.0702,1.2194,1.2355,1.25,1.2728,1.2889,1.2916,1.2875,1.2922,1.2908,1.2921,1.282,1.2914,1.2873,1.2717,1.263,1.2583,1.2528,1.2501,1.2474,1.2481,1.2501,1.2501,1.2501,1.2494,1.2488,1.2494,1.2488,1.242,1.2386,1.2386,1.2332,1.2291,1.2332,1.239,1.2567,1.2919,1.331,1.484,1.7101,1.8722,1.967,2.1043,2.2602,2.2916,2.2793,2.2839,2.2712,2.281,2.281,2.2878,2.2918,2.2953,2.296,2.2947,2.292,2.2947,2.292,2.2893,2.2893,2.2934,2.2893,2.2893,2.2893,2.2893,2.2893,2.2934,2.3046,2.33,2.3607,2.4004,0.0,0.0,0.0,0.0,0.0,0.0,0.0,0.0,0.0,0.0,0.0,0.0,0.0,0.0,0.0,0.0,0.0,0.0,0.0,0.0,0.0,0.0,0.0,0.0,0.0,0.0,0.0,0.0,0.0,0.0,0.0,0.0,0.0,0.0,0.0,0.0,0.0,0.0,0.231,0.3442,0.4614,0.7121,0.9452,0.9956,1.1374,1.2672,1.2694,1.2941,1.3078,1.32,1.3118,1.3071,1.3084,1.3077,1.305,1.3016,1.3037,1.3009,1.2921,1.2873,1.2752,1.2603,1.2515,1.2522,1.2501,1.2501,1.2501,1.2501,1.2501,1.2501,1.2501,1.2494,1.2454,1.2427,1.24,1.2325,1.2291,1.2318,1.2332,1.2356,1.2599,1.2984,1.3266,1.5316,1.7076,1.8084,1.9879,2.1462,2.2222,2.2322,2.2611,2.2709,2.2937,2.3016,2.3059,2.3081,2.3092,2.3113,2.3113,2.3081,2.3027,2.2987,2.2966,2.3054,2.3108,2.3,2.292,2.3,2.2979,2.2934,2.296,2.3073,2.342,2.3848,2.4182,0.0,0.0,0.0,0.0,0.0,0.0,0.0,0.0,0.0,0.0,0.0,0.0,0.0,0.0,0.0,0.0,0.0,0.0,0.0,0.0,0.0,0.0,0.0,0.0,0.0,0.0,0.0,0.0,0.0,0.0,0.0,0.0,0.0,0.0,0.0,0.0,0.0,0.0,0.3024,0.4907,0.587,0.9003,1.1433,1.1605,1.227,1.3065,1.3176,1.326,1.3322,1.3295,1.3247,1.322,1.32,1.3207,1.3207,1.3159,1.3159,1.3125,1.3037,1.3003,1.2854,1.2718,1.2637,1.261,1.2549,1.2515,1.2501,1.2501,1.2522,1.2542,1.2508,1.2508,1.2481,1.2433,1.2393,1.2332,1.2356,1.2366,1.2379,1.2438,1.2465,1.2622,1.286,1.3245,1.496,1.6541,1.8488,2.0162,2.1027,2.1474,2.1582,2.1724,2.1877,2.2042,2.2053,2.2576,2.3134,2.3209,2.3165,2.3169,2.3081,2.318,2.3207,2.3233,2.3247,2.318,2.314,2.3153,2.3073,2.296,2.2987,2.3121,2.3527,2.4048,2.4292,0.0,0.0,0.0,0.0,0.0,0.0,0.0,0.0,0.0,0.0,0.0,0.0,0.0,0.0,0.0,0.0,0.0,0.0,0.0,0.0,0.0,0.0,0.0,0.0,0.0,0.0,0.0,0.0,0.0,0.0,0.0,0.0,0.0,0.0,0.0,0.0,0.0,0.0,0.3801,0.6107,0.6783,1.0362,1.2775,1.2816,1.3189,1.3314,1.3355,1.3383,1.3383,1.3383,1.3376,1.339,1.339,1.3383,1.3342,1.3315,1.3302,1.3288,1.3146,1.303,1.2942,1.2888,1.2813,1.2752,1.2671,1.2637,1.2724,1.271,1.2657,1.2637,1.2623,1.2671,1.2637,1.261,1.2576,1.2528,1.2481,1.2488,1.2488,1.2488,1.2508,1.254,1.2772,1.3112,1.4429,1.5975,1.7463,1.9048,2.0007,2.0272,2.001,2.0199,2.035,2.0568,2.0738,2.1031,2.1447,2.2487,2.2607,2.3098,2.3152,2.3241,2.3403,2.3549,2.3536,2.342,2.334,2.326,2.31,2.2947,2.3067,2.322,2.3688,2.4168,2.4332,0.0,0.0,0.0,0.0,0.0,0.0,0.0,0.0,0.0,0.0,0.0,0.0,0.0,0.0,0.0,0.0,0.0,0.0,0.0,0.0,0.0,0.0,0.0,0.0,0.0,0.0,0.0,0.0,0.0,0.0,0.0,0.0,0.0,0.0,0.0,0.0,0.0,0.0,0.0,0.6266,0.7646,1.1023,1.2977,1.3346,1.3368,1.3444,1.3444,1.341,1.3403,1.3397,1.3397,1.3397,1.3397,1.3397,1.3383,1.3383,1.3383,1.3383,1.3363,1.3119,1.3057,1.3078,1.299,1.2962,1.2969,1.2962,1.2928,1.2873,1.2914,1.2941,1.2962,1.2955,1.286,1.2773,1.2739,1.2679,1.2671,1.2644,1.2651,1.2637,1.2556,1.2547,1.2811,1.3274,1.4422,1.5633,1.6741,1.7805,1.8717,1.8666,1.8248,1.8506,1.8704,1.9197,1.9376,1.9329,1.9798,2.1049,2.1861,2.221,2.2796,2.308,2.333,2.3678,2.3817,2.3728,2.3492,2.3305,2.326,2.3233,2.326,2.3474,2.3915,2.4226,2.4426,0.0,0.0,0.0,0.0,0.0,0.0,0.0,0.0,0.0,0.0,0.0,0.0,0.0,0.0,0.0,0.0,0.0,0.0,0.0,0.0,0.0,0.0,0.0,0.0,0.0,0.0,0.0,0.0,0.0,0.0,0.0,0.0,0.0671,0.0,0.0,0.0481,0.0,0.0,0.4791,0.7402,0.7828,1.1221,1.3675,1.3668,1.3593,1.3553,1.3497,1.3485,1.3424,1.3417,1.3417,1.3397,1.3397,1.3397,1.3397,1.3397,1.3397,1.3397,1.339,1.3281,1.3268,1.3227,1.3139,1.3105,1.303,1.3003,1.2996,1.3016,1.3043,1.3037,1.2989,1.2996,1.2941,1.2941,1.2888,1.2881,1.2861,1.2887,1.288,1.2813,1.2752,1.2844,1.3014,1.3433,1.443,1.493,1.588,1.5995,1.6666,1.6447,1.6145,1.6592,1.6991,1.7672,1.8065,1.8036,1.8626,1.9866,2.0544,2.0918,2.1605,2.253,2.3248,2.3627,2.3862,2.4022,2.3808,2.3647,2.3634,2.3634,2.3634,2.3701,2.4022,2.4292,2.4519,0.0,0.0,0.0179,0.0135,0.0,0.0,0.0,0.0,0.0,0.0,0.0,0.0,0.0,0.0,0.0,0.0,0.0,0.0,0.0,0.0,0.0,0.0,0.0,0.0,0.0,0.018,0.0269,0.0,0.0,0.0,0.0673,0.0942,0.1257,0.1297,0.1154,0.1192,0.1057,0.2374,0.5078,0.753,0.8731,1.1128,1.3738,1.3754,1.3707,1.366,1.3619,1.3538,1.3478,1.3471,1.3437,1.341,1.3403,1.3403,1.3403,1.3397,1.3397,1.3397,1.339,1.339,1.3322,1.3275,1.3254,1.3207,1.3132,1.3146,1.318,1.318,1.3146,1.3146,1.3146,1.3132,1.3111,1.3111,1.3077,1.3077,1.3064,1.305,1.303,1.2963,1.2981,1.3107,1.335,1.3802,1.4415,1.4631,1.4891,1.4938,1.5015,1.5006,1.5006,1.542,1.5718,1.6303,1.6733,1.6859,1.7615,1.8771,1.9172,1.9377,2.078,2.1759,2.267,2.356,2.3896,2.413,2.4066,2.3981,2.3875,2.3888,2.3955,2.4048,2.4195,2.4382,2.4572,0.0,0.009,0.0494,0.0449,0.0,0.0,0.0,0.0,0.0,0.0,0.0,0.0,0.0,0.0,0.0,0.0,0.0,0.0,0.0,0.0,0.0,0.0,0.0,0.0,0.0449,0.0629,0.0765,0.0902,0.1304,0.131,0.1354,0.1442,0.1627,0.1847,0.1887,0.1793,0.1655,0.2849,0.553,0.7487,0.8703,1.1654,1.3515,1.3876,1.3842,1.3808,1.3761,1.3722,1.3654,1.3551,1.3463,1.3451,1.3417,1.3403,1.3403,1.3397,1.3397,1.3397,1.3397,1.3397,1.3397,1.3356,1.337,1.3383,1.3363,1.3315,1.3302,1.3308,1.3302,1.3336,1.3356,1.3322,1.3288,1.3247,1.3227,1.3214,1.32,1.318,1.3159,1.3118,1.3151,1.33,1.3769,1.418,1.4579,1.4788,1.498,1.5019,1.5041,1.5015,1.5015,1.5045,1.5228,1.5122,1.5433,1.5904,1.6256,1.7283,1.7398,1.7796,1.9338,2.0853,2.1826,2.2757,2.387,2.4258,2.4256,2.4155,2.3995,2.4048,2.4182,2.4142,2.4209,2.4436,2.4572,0.0804,0.0533,0.0671,0.0628,0.0539,0.0853,0.0628,0.0,0.0,0.0,0.0,0.0,0.0,0.0,0.0,0.0,0.0,0.0,0.0,0.0359,0.0495,0.0719,0.0853,0.0944,0.1078,0.1171,0.1265,0.1361,0.1546,0.178,0.1969,0.1973,0.2241,0.251,0.2546,0.2586,0.2577,0.3505,0.6471,0.7873,0.933,1.2208,1.3554,1.4116,1.4041,1.4014,1.3973,1.3858,1.3754,1.3714,1.3599,1.3566,1.3524,1.3471,1.3397,1.3397,1.3397,1.3397,1.3397,1.3397,1.3397,1.3397,1.3397,1.3397,1.3397,1.3397,1.3397,1.3397,1.3397,1.3397,1.3397,1.3383,1.337,1.3336,1.3295,1.3288,1.3275,1.3268,1.3288,1.3432,1.3417,1.3722,1.4186,1.46,1.4948,1.5088,1.5124,1.5163,1.5106,1.5072,1.5015,1.5006,1.5006,1.5006,1.5006,1.5365,1.5412,1.5612,1.5956,1.6492,1.7768,1.9273,2.0714,2.2185,2.3574,2.424,2.4519,2.4382,2.4182,2.4262,2.4369,2.4275,2.4249,2.4462,2.4506,0.1253,0.1024,0.1209,0.1302,0.1302,0.1347,0.1032,0.0584,0.0359,0.0269,0.0269,0.0,0.0359,0.0,0.0,0.0,0.0,0.0,0.082,0.0956,0.0996,0.1134,0.136,0.1489,0.1491,0.1633,0.1776,0.1917,0.2066,0.2304,0.2497,0.2541,0.2915,0.2951,0.3121,0.3709,0.4201,0.517,0.6845,0.8644,1.0644,1.2609,1.3761,1.4285,1.419,1.417,1.4136,1.4007,1.3946,1.3869,1.379,1.3673,1.3666,1.3578,1.3532,1.3532,1.3505,1.3458,1.3424,1.3397,1.3397,1.3403,1.341,1.3397,1.3397,1.3397,1.3397,1.3397,1.3397,1.3397,1.3397,1.3397,1.3397,1.3397,1.3397,1.3397,1.339,1.339,1.3507,1.3707,1.3938,1.4202,1.4564,1.4984,1.5241,1.5304,1.535,1.531,1.5236,1.509,1.5055,1.5006,1.5006,1.5006,1.5006,1.5015,1.513,1.5207,1.5275,1.588,1.6712,1.7996,1.9736,2.1651,2.3537,2.4092,2.4572,2.4506,2.4422,2.4452,2.4452,2.4396,2.4356,2.4462,2.4449,0.1481,0.1526,0.1976,0.2111,0.2156,0.1751,0.1526,0.1392,0.1032,0.0808,0.0763,0.0763,0.0944,0.1173,0.1269,0.1276,0.1234,0.1241,0.1335,0.1527,0.1558,0.1649,0.174,0.1593,0.2007,0.2157,0.2305,0.2448,0.2827,0.2934,0.2891,0.3016,0.3021,0.3205,0.3845,0.4856,0.5853,0.7421,0.8483,0.9908,1.1409,1.3045,1.4319,1.4326,1.4299,1.4278,1.4251,1.4177,1.4089,1.4041,1.3966,1.3871,1.3774,1.3761,1.3687,1.3646,1.3605,1.3551,1.3539,1.3512,1.3492,1.3478,1.3437,1.3464,1.3478,1.3417,1.3403,1.3397,1.3397,1.3397,1.3397,1.3397,1.3397,1.3397,1.3397,1.3397,1.3397,1.3438,1.3562,1.3845,1.423,1.4542,1.4865,1.5239,1.5521,1.5553,1.5536,1.5536,1.5439,1.5252,1.5169,1.5088,1.508,1.5088,1.5023,1.5031,1.5031,1.5031,1.5039,1.5122,1.5774,1.7207,1.8868,2.1426,2.3994,2.4253,2.4572,2.4532,2.4506,2.4532,2.4519,2.4452,2.4452,2.4506,2.4422,0.2335,0.2021,0.2156,0.22,0.2245,0.2425,0.2335,0.2021,0.1931,0.1617,0.1302,0.1258,0.1353,0.1544,0.1596,0.165,0.1614,0.1762,0.1759,0.1947,0.2031,0.2219,0.25,0.244,0.2628,0.273,0.2837,0.2856,0.3014,0.3071,0.3075,0.317,0.3306,0.3858,0.5281,0.6348,0.7585,0.9622,1.0673,1.1296,1.2159,1.3386,1.4462,1.4421,1.4394,1.4319,1.4285,1.4272,1.4238,1.4217,1.4089,1.3966,1.3802,1.3808,1.3788,1.3754,1.3747,1.3707,1.3673,1.3639,1.3639,1.366,1.3653,1.3605,1.3545,1.3471,1.341,1.3403,1.3397,1.3397,1.3397,1.3397,1.3397,1.3397,1.3397,1.3397,1.3397,1.3528,1.3652,1.4059,1.4473,1.4818,1.5169,1.5471,1.5723,1.5804,1.5731,1.5699,1.5658,1.5528,1.5374,1.5285,1.5195,1.5163,1.5098,1.509,1.513,1.5122,1.513,1.5112,1.5039,1.7368,1.9734,2.2346,2.4451,2.4616,2.4666,2.4599,2.4586,2.4599,2.4586,2.4519,2.4546,2.4586,2.4449,0.2739,0.2515,0.2515,0.2515,0.256,0.2784,0.2739,0.256,0.2515,0.2341,0.2033,0.19,0.186,0.2104,0.2162,0.2122,0.2136,0.2199,0.2394,0.2534,0.2567,0.276,0.2943,0.3024,0.2988,0.3045,0.3016,0.3036,0.3099,0.3242,0.3286,0.4145,0.4524,0.5365,0.7212,0.8242,0.9624,1.1867,1.2731,1.3194,1.3216,1.4101,1.4577,1.4509,1.4448,1.4373,1.4306,1.4299,1.4299,1.4292,1.4204,1.4163,1.4082,1.4031,1.4021,1.3966,1.3933,1.3869,1.3829,1.3815,1.3822,1.3822,1.3802,1.3714,1.37,1.3592,1.347,1.3498,1.341,1.3397,1.3397,1.3397,1.3397,1.3397,1.3397,1.3397,1.3521,1.3694,1.3976,1.439,1.4796,1.5242,1.55,1.5705,1.5918,1.591,1.5894,1.5878,1.5837,1.578,1.5634,1.552,1.5399,1.5335,1.5325,1.5317,1.5325,1.5309,1.5277,1.5337,1.5716,1.828,2.0812,2.2702,2.4128,2.4826,2.485,2.4759,2.4626,2.4599,2.4599,2.4586,2.4639,2.4719,2.4676,0.2874,0.2919,0.2874,0.2874,0.2919,0.2919,0.2874,0.2874,0.2875,0.289,0.2777,0.2418,0.2604,0.2809,0.2971,0.3022,0.2944,0.2785,0.2994,0.2991,0.2974,0.3024,0.3017,0.3053,0.3065,0.3078,0.3092,0.3096,0.31,0.3623,0.4621,0.59,0.6755,0.7511,0.9453,1.0961,1.2253,1.3087,1.3936,1.4819,1.5012,1.493,1.4746,1.4618,1.4536,1.4475,1.4394,1.434,1.434,1.4312,1.4306,1.4258,1.4245,1.4224,1.4183,1.4129,1.4102,1.4041,1.393,1.396,1.3903,1.3883,1.3849,1.3842,1.3842,1.3768,1.3646,1.3545,1.3505,1.3437,1.3437,1.3403,1.3403,1.3397,1.3397,1.3486,1.3652,1.3859,1.4266,1.4679,1.5133,1.5546,1.5752,1.5966,1.6007,1.6007,1.6007,1.6007,1.5983,1.591,1.5804,1.5723,1.5699,1.5594,1.548,1.5528,1.5528,1.5472,1.5471,1.5619,1.6442,1.8884,2.0836,2.2057,2.3328,2.4716,2.5077,2.5037,2.4839,2.4746,2.4839,2.4933,2.4933,2.4986,2.4997,0.2919,0.2919,0.2919,0.2919,0.2919,0.2919,0.2919,0.2919,0.292,0.289,0.287,0.2899,0.2917,0.2987,0.2969,0.3027,0.3065,0.3093,0.3097,0.3094,0.3089,0.3093,0.3092,0.3078,0.3089,0.3096,0.31,0.31,0.3386,0.4621,0.5662,0.628,0.8127,0.9453,1.1296,1.2522,1.3093,1.404,1.4563,1.5181,1.5147,1.5038,1.4996,1.4841,1.476,1.4706,1.4631,1.4536,1.4489,1.4441,1.4367,1.4312,1.4299,1.4299,1.4265,1.4245,1.4224,1.4204,1.4143,1.4136,1.4129,1.4143,1.4122,1.4102,1.4082,1.4027,1.3912,1.3761,1.3666,1.36,1.3566,1.3464,1.3431,1.341,1.3397,1.3652,1.3901,1.4108,1.439,1.4844,1.534,1.5669,1.5875,1.6007,1.6007,1.6007,1.6007,1.6007,1.6007,1.5999,1.5991,1.5934,1.5869,1.5748,1.5585,1.5691,1.5707,1.5642,1.5953,1.6637,1.7734,1.9464,2.1146,2.2549,2.3831,2.5234,2.5371,2.5291,2.5277,2.5211,2.528,2.5346,2.5331,2.5304,2.5264]},{"header":{"parameterUnit":"m.s-1","parameterCategory":1,"la1":31.0,"la2":29.5877,"lo1":-88.7671,"lo2":-86.6584,"dy":0.0162,"dx":0.0185,"nx":115,"ny":88,"refTime":"2023-09-28T18:00:00:Z","depth":0,"parameterNumber":3,"parameterNumberName":"V-component_of_WINDS"},"data":[0.0,0.0,0.0,0.0,0.0,0.0,0.0,0.0,0.0,0.0,0.0,0.0,0.0,0.0,0.0,0.0,0.0,0.0,0.0,0.0,0.0,0.0,0.0,0.0,0.0,0.0,0.0,0.0,0.0,0.0,0.0,0.0,0.0,0.0,0.0,0.0,0.0,0.0,0.0,0.0,0.0,0.0,0.0,0.0,0.0,0.0,0.0,0.0,0.0,0.0,0.0,0.0,0.0,0.0,0.0,0.0,0.0,0.0,0.0,0.0,0.0,0.0,0.0,0.0,0.0,0.0,0.0,0.0,0.0,0.0,0.0,0.0,0.0,0.0,0.0,0.0,0.0,0.0,0.0,0.0,0.0,0.0,0.0,0.0,0.0,0.0,0.0,0.0,0.0,0.0,0.0,0.0,0.0,0.0,0.0,0.0,0.0,0.0,0.0,0.0,0.0,0.0,0.0,0.0,0.0,0.0,0.0,0.0,0.0,0.0,0.0,0.0,0.0,0.0,0.0,0.0,0.0,0.0,0.0,0.0,0.0,0.0,0.0,0.0,0.0,0.0,0.0,0.0,0.0,0.0,0.0,0.0,0.0,0.0,0.0,0.0,0.0,0.0,0.0,0.0,0.0,0.0,0.0,0.0,0.0,0.0,0.0,0.0,0.0,0.0,0.0,0.0,0.0,0.0,0.0,0.0,0.0,0.0,0.0,0.0,0.0,0.0,0.0,0.0,0.0,0.0,0.0,0.0,0.0,0.0,0.0,0.0,0.0,0.0,0.0,0.0,0.0,0.0,0.0,0.0,0.0,0.0,0.0,0.0,0.0,0.0,0.0,0.0,0.0,0.0,0.0,0.0,0.0,0.0,0.0,0.0,0.0,0.0,0.0,0.0,0.0,0.0,0.0,0.0,0.0,0.0,0.0,0.0,0.0,0.0,0.0,0.0,0.0,0.0,0.0,0.0,0.0,0.0,0.0,0.0,0.0,0.0,0.0,0.0,0.0,0.0,0.0,0.0,0.0,0.0,0.0,0.0,0.0,0.0,0.0,0.0,0.0,0.0,0.0,0.0,0.0,0.0,0.0,0.0,0.0,0.0,0.0,0.0,0.0,0.0,0.0,0.0,0.0,0.0,0.0,0.0,0.0,0.0,0.0,0.0,0.0,0.0,0.0,0.0,0.0,0.0,0.0,0.0,0.0,0.0,0.0,0.0,0.0,0.0,0.0,0.0,0.0,0.0,0.0,0.0,0.0,0.0,0.0,0.0,0.0,0.0,0.0,0.0,0.0,0.0,0.0,0.0,0.0,0.0,0.0,0.0,0.0,0.0,0.0,0.0,0.0,0.0,0.0,0.0,0.0,0.0,0.0,0.0,0.0,0.0,0.0,0.0,0.0,0.0,0.0,0.0,0.0,0.0,0.0,0.0,0.0,0.0,0.0,0.0,0.0,0.0,0.0,0.0,0.0,0.0,0.0,0.0,0.0,0.0,0.0,0.0,0.0,0.0,0.0,0.0,0.0,0.0,0.0,0.0,0.0,0.0,0.0,0.0,0.0,0.0,0.0,0.0,0.0,0.0,0.0,0.0,0.0,0.0,0.0,0.0,0.0,0.0,0.0,0.0,0.0,0.0,0.0,0.0,0.0,0.0,0.0,0.0,0.0,0.0,0.0,0.0,0.0,0.0,0.0,0.0,0.0,0.0,0.0,0.0,0.0,0.0,0.0,0.0,0.0,0.0,0.0,0.0,0.0,0.0,0.0,0.0,0.0,0.0,0.0,0.0,0.0,0.0,0.0,0.0,0.0,0.0,0.0,0.0,0.0,0.0,0.0,0.0,0.0,0.0,0.0,0.0,0.0,0.0,0.0,0.0,0.0,0.0,0.0,0.0,0.0,0.0,0.0,0.0,0.0,0.0,0.0,0.0,0.0,0.0,0.0,0.0,0.0,0.0,0.0,0.0,0.0,0.0,0.0,0.0,0.0,0.0,0.0,0.0,0.0,0.0,0.0,0.0,0.0,0.0,0.0,0.0,0.0,0.0,0.0,0.0,0.0,0.0,0.0,0.0,0.0,0.0,0.0,0.0,0.0,0.0,0.0,0.0,0.0,0.0,0.0,0.0,0.0,0.0,0.0,0.0,0.0,0.0,0.0,0.0,0.0,0.0,0.0,0.0,0.0,0.0,0.0,0.0,0.0,0.0,0.0,0.0,0.0,0.0,0.0,0.0,0.0,0.0,0.0,0.0,0.0,0.0,0.0,0.0,0.0,0.0,0.0,0.0,0.0,0.0,0.0,0.0,0.0,0.0,0.0,0.0,0.0,0.0,0.0,0.0,0.0,0.0,0.0,0.0,0.0,0.0,0.0,0.0,0.0,0.0,0.0,0.0,0.0,0.0,0.0,0.0,0.0,0.0,0.0,0.0,0.0,0.0,0.0,0.0,0.0,0.0,0.0,0.0,0.0,0.0,0.0,0.0,0.0,0.0,0.0,0.0,0.0,0.0,0.0,0.0,0.0,0.0,0.0,0.0,0.0,0.0,0.0,0.0,0.0,0.0,0.0,0.0,0.0,0.0,0.0,0.0,0.0,0.0,0.0,0.0,0.0,0.0,0.0,0.0,0.0,0.0,0.0,0.0,0.0,0.0,0.0,0.0,0.0,0.0,0.0,0.0,0.0,0.0,0.0,0.0,0.0,0.0,0.0,0.0,0.0,0.0,0.0,0.0,0.0,0.0,0.0,0.0,0.0,0.0,0.0,0.0,0.0,0.0,0.0,0.0,0.0,0.0,0.0,0.0,0.0,0.0,0.0,0.0,0.0,0.0,0.0,0.0,0.0,0.0,0.0,0.0,0.0,0.0,0.0,0.0,0.0,0.0,0.0,0.0,0.0,0.0,0.0,0.0,0.0,0.0,0.0,0.0,0.0,0.0,0.0,0.0,0.0,0.0,0.0,0.0,0.0,0.0,0.0,0.0,0.0,0.0,0.0,0.0,0.0,0.0,0.0,0.0,0.0,0.0,0.0,0.0,0.0,0.0,0.0,0.0,0.0,0.0,0.0,0.0,0.0,0.0,0.0,0.0,0.0,0.0,0.0,0.0,0.0,0.0,0.0,0.0,0.0,0.0,0.0,0.0,0.0,0.0,0.0,0.0,0.0,0.0,0.0,0.0,0.0,0.0,0.0,0.0,0.0,0.0,0.0,0.0,0.0,0.0,0.0,0.0,0.0,0.0,0.0,0.0,0.0,0.0,0.0,0.0,0.0,0.0,0.0,0.0,0.0,0.0,0.0,0.0,0.0,0.0,0.0,0.0,0.0,0.0,0.0,0.0,0.0,0.0,0.0,0.0,0.0,0.0,0.0,0.0,0.0,0.0,0.0,0.0,0.0,0.0,0.0,0.0,0.0,0.0,0.0,0.0,0.0,0.0,0.0,0.0,0.0,0.0,0.0,0.0,0.0,0.0,0.0,0.0,0.0,0.0,0.0,0.0,0.0,0.0,0.0,0.0,0.0,0.0,0.0,0.0,0.0,0.0,0.0,0.0,0.0,0.0,0.0,0.0,0.0,0.0,0.0,0.0,0.0,0.0,0.0,0.0,0.0,0.0,0.0,0.0,0.0,0.0,0.0,0.0,0.0,0.0,0.0,0.0,0.0,0.0,0.0,0.0,0.0,0.0,0.0,0.0,0.0,0.0,0.0,0.0,0.0,0.0,0.0,0.0,0.0,0.0,0.0,0.0,0.0,0.0,0.0,0.0,0.0,0.0,0.0,0.0,0.0,0.0,0.0,0.0,0.0,0.0,0.0,0.0,0.0,0.0,0.0,0.0,0.0,0.0,0.0,0.0,0.0,0.0,0.0,0.0,0.0,0.0,0.0,0.0,0.0,0.0,0.0,0.0,0.0,0.0,0.0,0.0,0.0,0.0,0.0,0.0,0.0,0.0,0.0,0.0,0.0,0.0,0.0,0.0,0.0,0.0,0.0,0.0,0.0,0.0,0.0,0.0,0.0,0.0,0.0,0.0,0.0,0.0,0.0,0.0,0.0,0.0,0.0,0.0,0.0,0.0,0.0,0.0,0.0,0.0,0.0,0.0,0.0,0.0,0.0,0.0,0.0,0.0,0.0,0.0,0.0,0.0,0.0,0.0,0.0,0.0,0.0,0.0,0.0,0.0,0.0,0.0,0.0,0.0,0.0,0.0,0.0,0.0,0.0,0.0,0.0,0.0,0.0,0.0,0.0,0.0,0.0,0.0,0.0,0.0,0.0,0.0,0.0,0.0,0.0,0.0,0.0,0.0,1.5422,0.0,0.0,0.0,0.0,0.0,0.0,0.0,0.0,0.0,0.0,0.0,0.0,0.0,0.0,0.0,0.0,0.0,0.0,0.0,0.0,0.0,0.0,0.0,0.0,0.0,0.0,0.0,0.0,0.0,0.0,0.0,0.0,0.0,0.0,0.0,0.0,0.0,0.0,0.0,0.0,0.0,0.0,0.0,0.0,0.0,0.0,0.0,0.0,0.0,0.0,0.0,0.0,0.0,0.0,0.0,0.0,0.0,0.0,0.0,0.0,0.0,0.0,0.0,0.0,0.0,0.0,0.0,0.0,0.0,0.0,0.0,0.0,0.0,0.0,0.0,0.0,0.0,0.0,0.0,0.0,0.0,0.0,0.0,0.0,0.0,0.0,0.0,0.0,0.0,0.0,0.0,0.0,0.0,0.0,0.0,0.0,0.0,0.0,0.0,0.0,0.0,0.0,0.0,0.0,0.0,0.0,0.0,0.0,0.0,0.0,1.5084,1.5203,1.562,1.5697,1.5427,0.0,0.0,0.0,0.0,0.0,0.0,0.0,0.0,0.0,0.0,0.0,0.0,0.0,0.0,0.0,0.0,0.0,0.0,0.0,0.0,0.0,0.0,0.0,0.0,0.0,0.0,0.0,0.0,0.0,0.0,0.0,0.0,0.0,0.0,0.0,0.0,0.0,0.0,0.0,0.0,0.0,0.0,0.0,0.0,0.0,0.0,0.0,0.0,0.0,0.0,0.0,0.0,0.0,0.0,0.0,0.0,0.0,0.0,0.0,0.0,0.0,0.0,0.0,0.0,0.0,0.0,0.0,0.0,0.0,0.0,0.0,0.0,0.0,0.0,0.0,0.0,0.0,0.0,0.0,0.0,0.0,0.0,0.0,0.0,0.0,0.0,0.0,0.0,0.0,0.0,0.0,0.0,0.0,0.0,0.0,0.0,0.0,0.0,0.0,0.0,0.0,0.0,0.0,0.0,0.0,0.0,0.0,0.0,0.0,0.0,0.0,0.0,1.6002,1.6291,1.6559,0.0,0.0,0.0,0.0,0.0,0.0,0.0,0.0,0.0,0.0,0.0,0.0,0.0,0.0,0.0,0.0,0.0,0.0,0.0,0.0,0.0,0.0,0.0,0.0,0.0,0.0,0.0,0.0,0.0,0.0,0.0,0.0,0.0,0.0,0.0,0.0,0.0,0.0,0.0,0.0,0.0,0.0,0.0,0.0,0.0,0.0,0.0,0.0,0.0,0.0,0.0,0.0,0.0,0.0,0.0,0.0,0.0,0.0,0.0,0.0,0.0,0.0,0.0,0.0,0.0,0.0,0.0,0.0,0.0,0.0,0.0,0.0,0.0,0.0,0.0,0.0,0.0,0.0,0.0,0.0,0.0,0.0,0.0,0.0,0.0,0.0,0.0,0.0,0.0,0.0,0.0,0.0,0.0,0.0,0.0,0.0,0.0,0.0,0.0,0.0,0.0,0.0,0.0,0.0,0.0,0.0,0.0,0.0,0.0,0.0,1.5653,1.7181,1.8173,0.0,1.9911,0.0,0.0,0.0,0.0,0.0,0.0,0.0,0.0,0.0,0.0,0.0,0.0,0.0,0.0,0.0,0.0,0.0,0.0,0.0,0.0,0.0,0.0,0.0,0.0,0.0,0.0,0.0,0.0,0.0,0.0,0.0,0.0,0.0,0.0,0.0,0.0,0.0,0.0,0.0,0.0,0.0,0.0,0.0,0.0,0.0,0.0,0.0,0.0,0.0,0.0,0.0,0.0,0.0,0.0,0.0,0.0,0.0,0.0,0.0,0.0,0.0,0.0,0.0,0.0,0.0,0.0,0.0,0.0,0.0,0.0,0.0,0.0,0.0,0.0,0.0,0.0,0.0,0.0,0.0,0.0,0.0,0.0,0.0,0.0,0.0,0.0,0.0,0.0,0.0,0.0,0.0,0.0,0.0,0.0,0.0,0.0,0.0,0.0,0.0,0.0,0.0,0.0,0.0,0.0,0.0,0.0,0.0,0.0,0.0,0.0,1.6728,1.7575,1.8609,1.9346,0.0,0.0,0.0,0.0,0.0,0.0,0.0,0.0,0.0,0.0,0.0,0.0,0.0,0.0,0.0,0.0,0.0,0.0,0.0,0.0,0.0,0.0,0.0,0.0,0.0,0.0,0.0,0.0,0.0,0.0,0.0,0.0,0.0,0.0,0.0,0.0,0.0,0.0,0.0,0.0,0.0,0.0,0.0,0.0,0.0,0.0,0.0,0.0,0.0,0.0,0.0,0.0,0.0,0.0,0.0,0.0,0.0,0.0,0.0,0.0,0.0,0.0,0.0,0.0,0.0,0.0,0.0,0.0,0.0,0.0,0.0,0.0,0.0,0.0,0.0,0.0,0.0,0.0,0.0,0.0,0.0,0.0,0.0,0.0,0.0,0.0,0.0,0.0,0.0,0.0,0.0,0.0,0.0,0.0,0.0,0.0,0.0,0.0,0.0,0.0,0.0,0.0,0.0,0.0,0.0,0.0,0.0,0.0,0.0,0.0,1.6859,1.7774,1.8725,1.9041,1.9279,1.9512,0.0,0.0,0.0,0.0,0.0,0.0,0.0,0.0,0.0,0.0,0.0,0.0,0.0,0.0,0.0,0.0,0.0,0.0,0.0,0.0,0.0,0.0,0.0,0.0,0.0,0.0,0.0,0.0,0.0,0.0,0.0,0.0,0.0,0.0,0.0,0.0,0.0,0.0,0.0,0.0,0.0,0.0,0.0,0.0,0.0,0.0,0.0,0.0,0.0,0.0,0.0,0.0,0.0,0.0,0.0,0.0,0.0,0.0,0.0,0.0,0.0,0.0,0.0,0.0,0.0,0.0,0.0,0.0,0.0,0.0,0.0,0.0,0.0,0.0,0.0,0.0,0.0,0.0,0.0,0.0,0.0,0.0,0.0,0.0,0.0,0.0,0.0,0.0,0.0,0.0,0.0,0.0,0.0,0.0,0.0,0.0,0.0,0.0,0.0,0.0,0.0,0.0,0.0,0.0,0.0,0.0,0.0,0.0,1.8853,1.7925,1.8637,2.1246,1.9993,1.9554,0.0,0.0,0.0,0.0,0.0,0.0,0.0,0.0,0.0,0.0,0.0,0.0,0.0,0.0,0.0,0.0,0.0,0.0,0.0,0.0,0.0,0.0,0.0,0.0,0.0,0.0,0.0,0.0,0.0,0.0,0.0,0.0,0.0,0.0,0.0,0.0,0.0,0.0,0.0,0.0,0.0,0.0,0.0,0.0,0.0,0.0,0.0,0.0,0.0,0.0,0.0,0.0,0.0,0.0,0.0,0.0,0.0,0.0,0.0,0.0,0.0,0.0,0.0,0.0,0.0,0.0,0.0,0.0,0.0,0.0,0.0,0.0,0.0,0.0,0.0,0.0,0.0,0.0,0.0,0.0,0.0,0.0,0.0,0.0,0.0,0.0,0.0,0.0,0.0,0.0,0.0,0.0,0.0,0.0,0.0,0.0,0.0,0.0,0.0,0.0,0.0,0.0,0.0,0.0,0.0,0.0,0.0,0.0,0.0,1.7863,1.8724,1.9948,2.1544,2.1101,2.0913,0.0,0.0,0.0,0.0,0.0,0.0,0.0,0.0,0.0,0.0,0.0,0.0,0.0,0.0,0.0,0.0,0.0,0.0,0.0,0.0,0.0,0.0,0.0,0.0,0.0,0.0,0.0,0.0,0.0,0.0,0.0,0.0,0.0,0.0,0.0,0.0,0.0,0.0,0.0,0.0,0.0,0.0,0.0,0.0,0.0,0.0,0.0,0.0,0.0,0.0,0.0,0.0,0.0,0.0,0.0,0.0,0.0,0.0,0.0,0.0,0.0,0.0,0.0,0.0,0.0,0.0,0.0,0.0,0.0,0.0,0.0,0.0,0.0,0.0,0.0,0.0,0.0,0.0,0.0,0.0,0.0,0.0,0.0,0.0,0.0,0.0,0.0,0.0,0.0,0.0,0.0,0.0,0.0,0.0,0.0,0.0,0.0,0.0,0.0,0.0,0.0,0.0,0.0,0.0,0.0,0.0,0.0,0.0,0.0,1.8935,0.0,2.2059,2.2449,2.1962,2.1524,0.0,0.0,0.0,0.0,0.0,0.0,0.0,0.0,0.0,0.0,0.0,0.0,0.0,0.0,0.0,0.0,0.0,0.0,0.0,0.0,0.0,0.0,0.0,0.0,0.0,0.0,0.0,0.0,0.0,0.0,0.0,0.0,0.0,0.0,0.0,0.0,0.0,0.0,0.0,0.0,0.0,0.0,0.0,0.0,0.0,0.0,0.0,0.0,0.0,0.0,0.0,0.0,0.0,0.0,0.0,0.0,0.0,0.0,0.0,0.0,0.0,0.0,0.0,0.0,0.0,0.0,0.0,0.0,0.0,0.0,0.0,0.0,0.0,0.0,0.0,0.0,0.0,0.0,0.0,0.0,0.0,0.0,0.0,0.0,0.0,0.0,0.0,0.0,0.0,0.0,0.0,0.0,0.0,0.0,0.0,0.0,0.0,0.0,0.0,0.0,0.0,0.0,0.0,0.0,0.0,0.0,0.0,0.0,1.9055,2.2455,2.4237,2.4712,2.4195,2.2574,2.1263,0.0,0.0,0.0,0.0,0.0,0.0,0.0,0.0,0.0,0.0,0.0,0.0,0.0,0.0,0.0,0.0,0.0,0.0,0.0,0.0,0.0,0.0,0.0,0.0,0.0,0.0,0.0,0.0,0.0,0.0,0.0,0.0,0.0,0.0,0.0,0.0,0.0,0.0,0.0,0.0,0.0,0.0,0.0,0.0,0.0,0.0,0.0,0.0,0.0,0.0,0.0,0.0,0.0,0.0,0.0,0.0,0.0,0.0,0.0,0.0,0.0,0.0,0.0,0.0,0.0,0.0,0.0,0.0,0.0,0.0,0.0,0.0,0.0,0.0,0.0,0.0,0.0,0.0,0.0,0.0,0.0,0.0,0.0,0.0,0.0,0.0,0.0,0.0,0.0,0.0,0.0,0.0,0.0,0.0,0.0,0.0,0.0,0.0,0.0,0.0,0.0,0.0,0.0,0.0,0.0,0.0,0.0,0.0,0.0,2.1104,2.2829,2.4244,2.5038,2.2928,2.1787,0.0,0.0,0.0,0.0,0.0,0.0,0.0,0.0,0.0,0.0,0.0,0.0,0.0,0.0,0.0,0.0,0.0,0.0,0.0,0.0,0.0,0.0,0.0,0.0,0.0,0.0,0.0,0.0,0.0,0.0,0.0,0.0,0.0,0.0,0.0,0.0,0.0,0.0,0.0,0.0,0.0,0.0,0.0,0.0,0.0,0.0,0.0,0.0,0.0,0.0,0.0,0.0,0.0,0.0,0.0,0.0,0.0,0.0,0.0,0.0,0.0,0.0,0.0,0.0,0.0,0.0,0.0,0.0,0.0,0.0,0.0,0.0,0.0,0.0,0.0,0.0,0.0,0.0,0.0,0.0,0.0,0.0,0.0,0.0,0.0,0.0,0.0,0.0,0.0,0.0,0.0,0.0,0.0,0.0,0.0,0.0,0.0,0.0,0.0,0.0,0.0,0.0,0.0,0.0,0.0,0.0,0.0,0.0,0.0,2.4376,2.5998,2.7068,2.7507,2.5544,2.3952,2.2802,0.0,0.0,0.0,0.0,0.0,0.0,0.0,0.0,0.0,0.0,0.0,0.0,0.0,0.0,0.0,0.0,0.0,0.0,0.0,0.0,0.0,0.0,0.0,0.0,0.0,0.0,0.0,0.0,0.0,0.0,0.0,0.0,0.0,0.0,0.0,0.0,0.0,0.0,0.0,0.0,0.0,0.0,0.0,0.0,0.0,0.0,0.0,0.0,0.0,0.0,0.0,0.0,0.0,0.0,0.0,0.0,0.0,0.0,0.0,0.0,0.0,0.0,0.0,0.0,0.0,0.0,0.0,0.0,0.0,0.0,0.0,0.0,0.0,0.0,0.0,0.0,0.0,0.0,0.0,0.0,0.0,0.0,0.0,0.0,0.0,0.0,0.0,0.0,0.0,0.0,0.0,0.0,0.0,0.0,0.0,0.0,0.0,0.0,0.0,0.0,0.0,0.0,0.0,0.0,0.0,0.0,0.0,0.0,3.1052,3.2836,3.2852,3.1111,2.9815,2.7264,0.0,0.0,0.0,0.0,0.0,0.0,0.0,0.0,0.0,0.0,0.0,0.0,0.0,0.0,0.0,0.0,0.0,0.0,0.0,0.0,0.0,0.0,0.0,0.0,0.0,0.0,0.0,0.0,0.0,0.0,0.0,0.0,0.0,0.0,0.0,0.0,0.0,0.0,0.0,0.0,0.0,0.0,0.0,0.0,0.0,0.0,0.0,0.0,0.0,0.0,0.0,0.0,0.0,0.0,0.0,0.0,0.0,0.0,0.0,0.0,0.0,0.0,0.0,0.0,0.0,0.0,0.0,0.0,0.0,0.0,0.0,0.0,0.0,0.0,0.0,0.0,0.0,0.0,0.0,0.0,0.0,0.0,0.0,0.0,0.0,0.0,0.0,0.0,0.0,0.0,0.0,0.0,0.0,0.0,0.0,0.0,0.0,0.0,0.0,0.0,0.0,0.0,0.0,0.0,0.0,0.0,0.0,0.0,0.0,3.3667,3.7058,3.7724,3.5355,3.1449,2.8177,0.0,0.0,0.0,0.0,0.0,0.0,0.0,0.0,0.0,0.0,0.0,0.0,0.0,0.0,0.0,0.0,0.0,0.0,0.0,0.0,0.0,0.0,0.0,0.0,0.0,0.0,0.0,0.0,0.0,0.0,0.0,0.0,0.0,0.0,0.0,0.0,0.0,0.0,0.0,0.0,0.0,0.0,0.0,0.0,0.0,0.0,0.0,0.0,0.0,0.0,0.0,0.0,0.0,0.0,0.0,0.0,0.0,0.0,0.0,0.0,0.0,0.0,0.0,0.0,0.0,0.0,0.0,0.0,0.0,0.0,0.0,0.0,0.0,0.0,0.0,0.0,0.0,0.0,0.0,0.0,0.0,0.0,0.0,0.0,0.0,0.0,0.0,0.0,0.0,0.0,0.0,0.0,0.0,0.0,0.0,0.0,0.0,0.0,0.0,0.0,0.0,0.0,0.0,0.0,0.0,0.0,0.0,0.0,3.2695,3.6835,4.0588,4.2167,4.133,3.5594,3.0624,0.0,0.0,0.0,0.0,0.0,0.0,0.0,0.0,0.0,0.0,0.0,0.0,0.0,0.0,0.0,0.0,0.0,0.0,0.0,0.0,0.0,0.0,0.0,0.0,0.0,0.0,0.0,0.0,0.0,0.0,0.0,0.0,0.0,0.0,0.0,0.0,0.0,0.0,0.0,0.0,0.0,0.0,0.0,0.0,0.0,0.0,0.0,0.0,0.0,0.0,0.0,0.0,0.0,0.0,0.0,0.0,0.0,0.0,0.0,0.0,0.0,0.0,0.0,0.0,0.0,0.0,0.0,0.0,0.0,0.0,0.0,0.0,0.0,0.0,0.0,0.0,0.0,0.0,0.0,0.0,0.0,0.0,0.0,0.0,0.0,0.0,0.0,0.0,0.0,0.0,0.0,0.0,0.0,0.0,0.0,0.0,0.0,0.0,0.0,0.0,0.0,0.0,0.0,0.0,0.0,0.0,0.0,0.0,3.4726,3.9921,4.3358,4.5712,4.6767,4.0239,3.3618,0.0,0.0,0.0,0.0,0.0,0.0,0.0,0.0,0.0,0.0,0.0,0.0,0.0,0.0,0.0,0.0,0.0,0.0,0.0,0.0,0.0,0.0,0.0,0.0,0.0,0.0,0.0,0.0,0.0,0.0,0.0,0.0,0.0,0.0,0.0,0.0,0.0,0.0,0.0,0.0,0.0,0.0,0.0,0.0,0.0,0.0,0.0,0.0,0.0,0.0,0.0,0.0,0.0,0.0,0.0,0.0,0.0,0.0,0.0,0.0,0.0,0.0,0.0,0.0,0.0,0.0,0.0,0.0,0.0,0.0,0.0,0.0,0.0,0.0,0.0,0.0,0.0,0.0,0.0,0.0,0.0,0.0,0.0,0.0,0.0,0.0,0.0,0.0,0.0,0.0,0.0,0.0,0.0,0.0,0.0,0.0,0.0,0.0,0.0,0.0,0.0,0.0,0.0,0.0,0.0,0.0,0.0,0.0,3.4959,4.0701,4.4073,4.5612,4.5258,3.9262,3.4269,0.0,0.0,0.0,0.0,0.0,0.0,0.0,0.0,0.0,0.0,0.0,0.0,0.0,0.0,0.0,0.0,0.0,0.0,0.0,0.0,0.0,0.0,0.0,0.0,0.0,0.0,0.0,0.0,0.0,0.0,0.0,0.0,0.0,0.0,0.0,0.0,0.0,0.0,0.0,0.0,0.0,0.0,0.0,0.0,0.0,0.0,0.0,0.0,2.0994,0.0,0.0,0.0,0.0,0.0,0.0,0.0,0.0,0.0,0.0,0.0,0.0,0.0,0.0,0.0,0.0,0.0,0.0,0.0,0.0,0.0,0.0,0.0,0.0,0.0,0.0,0.0,0.0,0.0,0.0,0.0,0.0,0.0,0.0,0.0,0.0,0.0,0.0,0.0,0.0,0.0,0.0,0.0,0.0,0.0,0.0,0.0,0.0,0.0,0.0,0.0,0.0,0.0,0.0,0.0,0.0,0.0,0.0,0.0,3.6245,4.2143,4.4788,4.5827,4.5161,4.0248,3.5638,0.0,0.0,0.0,0.0,0.0,0.0,0.0,0.0,0.0,0.0,0.0,0.0,0.0,0.0,0.0,0.0,0.0,0.0,0.0,0.0,0.0,0.0,0.0,0.0,0.0,0.0,0.0,0.0,0.0,0.0,0.0,0.0,0.0,0.0,0.0,0.0,0.0,0.0,0.0,0.0,0.0,0.0,0.0,0.0,0.0,0.0,0.0,0.0,0.0,0.0,0.0,0.0,0.0,0.0,0.0,0.0,0.0,0.0,0.0,0.0,0.0,0.0,0.0,0.0,0.0,0.0,0.0,0.0,0.0,0.0,0.0,0.0,0.0,0.0,0.0,0.0,0.0,0.0,0.0,0.0,0.0,0.0,0.0,0.0,0.0,0.0,0.0,0.0,0.0,0.0,0.0,0.0,0.0,0.0,0.0,0.0,0.0,0.0,0.0,0.0,0.0,0.0,0.0,0.0,0.0,0.0,0.0,3.2925,3.757,4.3625,4.5387,4.6053,4.5749,4.1708,3.7003,3.1818,0.0,0.0,0.0,0.0,0.0,0.0,0.0,0.0,0.0,0.0,0.0,0.0,0.0,0.0,0.0,0.0,0.0,0.0,0.0,0.0,0.0,0.0,0.0,0.0,0.0,0.0,0.0,0.0,0.0,0.0,0.0,0.0,0.0,0.0,0.0,0.0,0.0,0.0,1.9957,2.0641,0.0,0.0,0.0,0.0,0.0,0.0,0.0,0.0,2.2191,0.0,0.0,0.0,0.0,0.0,0.0,0.0,0.0,0.0,0.0,0.0,0.0,0.0,0.0,0.0,0.0,0.0,0.0,0.0,0.0,0.0,0.0,0.0,0.0,0.0,0.0,0.0,0.0,0.0,0.0,0.0,0.0,0.0,0.0,0.0,0.0,0.0,0.0,0.0,0.0,0.0,0.0,0.0,0.0,0.0,0.0,0.0,0.0,0.0,0.0,0.0,0.0,0.0,0.0,0.0,0.0,3.1553,3.2954,3.722,4.4492,4.5607,4.5709,4.4857,4.1391,3.7029,3.1858,0.0,0.0,0.0,0.0,0.0,0.0,0.0,0.0,0.0,0.0,0.0,0.0,0.0,0.0,0.0,0.0,0.0,0.0,0.0,0.0,0.0,0.0,0.0,0.0,0.0,0.0,0.0,0.0,0.0,0.0,0.0,0.0,0.0,0.0,0.0,0.0,0.0,0.0,0.0,2.3938,2.4406,0.0,0.0,0.0,0.0,0.0,0.0,0.0,0.0,2.4427,0.0,0.0,0.0,0.0,0.0,0.0,0.0,0.0,0.0,0.0,0.0,0.0,0.0,0.0,0.0,0.0,0.0,0.0,0.0,0.0,0.0,0.0,0.0,0.0,0.0,0.0,0.0,0.0,0.0,0.0,0.0,0.0,0.0,0.0,0.0,0.0,0.0,0.0,0.0,0.0,0.0,0.0,0.0,0.0,0.0,0.0,0.0,0.0,0.0,0.0,0.0,0.0,0.0,0.0,0.0,3.2524,3.5384,3.9608,4.5312,4.5469,4.5005,4.404,4.0214,3.5849,0.0,0.0,0.0,0.0,0.0,0.0,0.0,0.0,0.0,0.0,0.0,0.0,0.0,0.0,0.0,0.0,0.0,0.0,0.0,0.0,0.0,0.0,0.0,0.0,0.0,0.0,0.0,0.0,0.0,0.0,0.0,0.0,0.0,0.0,0.0,0.0,0.0,0.0,0.0,0.0,2.6067,2.7006,2.8436,0.0,0.0,0.0,0.0,0.0,0.0,2.6182,2.5638,0.0,0.0,0.0,0.0,0.0,0.0,0.0,0.0,0.0,0.0,0.0,0.0,0.0,0.0,0.0,0.0,0.0,0.0,0.0,0.0,0.0,0.0,0.0,0.0,0.0,0.0,0.0,0.0,0.0,0.0,0.0,0.0,0.0,0.0,0.0,0.0,0.0,0.0,0.0,0.0,0.0,0.0,0.0,0.0,0.0,0.0,0.0,0.0,0.0,0.0,0.0,0.0,0.0,0.0,0.0,3.3388,3.7617,4.1874,4.5932,4.5284,4.4386,4.3454,3.8867,3.4514,0.0,0.0,0.0,0.0,0.0,0.0,0.0,0.0,0.0,0.0,0.0,0.0,0.0,0.0,0.0,0.0,0.0,0.0,0.0,0.0,0.0,0.0,0.0,0.0,0.0,0.0,0.0,0.0,0.0,0.0,0.0,0.0,0.0,0.0,0.0,0.0,0.0,0.0,0.0,0.0,0.0,2.9477,3.1928,2.9939,0.0,0.0,0.0,0.0,2.6817,2.8295,0.0,0.0,0.0,0.0,0.0,0.0,0.0,0.0,0.0,0.0,0.0,0.0,0.0,0.0,0.0,0.0,0.0,0.0,0.0,0.0,0.0,0.0,0.0,0.0,0.0,0.0,0.0,0.0,0.0,0.0,0.0,0.0,0.0,0.0,0.0,0.0,0.0,0.0,0.0,0.0,0.0,0.0,0.0,0.0,0.0,0.0,0.0,0.0,0.0,0.0,0.0,0.0,0.0,0.0,0.0,0.0,3.3358,3.7617,4.1862,4.5817,4.5249,4.4339,4.3379,3.7829,3.341,0.0,0.0,0.0,0.0,0.0,0.0,0.0,0.0,0.0,0.0,0.0,0.0,0.0,0.0,0.0,0.0,0.0,0.0,0.0,0.0,0.0,0.0,0.0,0.0,0.0,0.0,0.0,0.0,0.0,0.0,0.0,0.0,0.0,0.0,0.0,0.0,0.0,0.0,0.0,0.0,0.0,3.144,3.2201,3.1999,3.1134,0.0,0.0,3.4186,3.2677,3.6369,0.0,0.0,0.0,0.0,0.0,0.0,0.0,0.0,0.0,0.0,0.0,0.0,0.0,0.0,0.0,0.0,0.0,0.0,0.0,0.0,0.0,0.0,0.0,0.0,0.0,0.0,0.0,0.0,0.0,0.0,0.0,0.0,0.0,0.0,0.0,0.0,0.0,0.0,0.0,0.0,0.0,0.0,0.0,0.0,0.0,0.0,0.0,0.0,0.0,0.0,0.0,0.0,0.0,0.0,0.0,3.0544,3.3474,3.9054,4.3324,4.5946,4.477,4.3857,4.3399,3.6718,3.2222,0.0,0.0,0.0,0.0,0.0,0.0,0.0,0.0,0.0,0.0,0.0,0.0,0.0,0.0,0.0,0.0,0.0,0.0,0.0,0.0,0.0,0.0,0.0,0.0,0.0,0.0,0.0,0.0,0.0,0.0,0.0,0.0,0.0,0.0,0.0,0.0,0.0,0.0,0.0,0.0,0.0,0.0,3.5264,3.5687,0.0,0.0,0.0,3.5903,3.3257,0.0,0.0,0.0,0.0,0.0,0.0,0.0,0.0,0.0,0.0,0.0,0.0,0.0,0.0,0.0,0.0,0.0,0.0,0.0,0.0,0.0,0.0,0.0,0.0,0.0,0.0,0.0,0.0,0.0,0.0,0.0,0.0,0.0,0.0,0.0,0.0,0.0,0.0,0.0,0.0,0.0,0.0,0.0,0.0,0.0,0.0,0.0,0.0,0.0,0.0,0.0,0.0,0.0,0.0,0.0,0.0,0.0,3.3461,4.012,4.4379,4.5955,4.4367,4.35,4.3288,3.6606,0.0,0.0,0.0,0.0,0.0,0.0,0.0,0.0,0.0,0.0,0.0,0.0,0.0,0.0,0.0,0.0,0.0,0.0,0.0,0.0,0.0,0.0,0.0,0.0,0.0,0.0,0.0,1.8302,0.0,0.0,0.0,0.0,0.0,0.0,0.0,0.0,0.0,0.0,0.0,0.0,0.0,0.0,3.7373,3.7944,3.9121,3.9897,0.0,0.0,3.7909,3.5315,3.8154,3.8226,0.0,0.0,0.0,0.0,0.0,0.0,0.0,0.0,0.0,0.0,0.0,0.0,0.0,0.0,0.0,0.0,0.0,0.0,0.0,0.0,0.0,0.0,0.0,0.0,0.0,0.0,0.0,0.0,0.0,0.0,0.0,0.0,0.0,0.0,0.0,0.0,0.0,0.0,0.0,0.0,0.0,0.0,0.0,0.0,0.0,0.0,0.0,0.0,0.0,0.0,0.0,0.0,0.0,0.0,3.1616,3.3453,4.0054,4.4312,4.5898,4.4367,4.3505,4.3389,3.8266,3.3836,0.0,0.0,0.0,0.0,0.0,0.0,0.0,0.0,0.0,0.0,0.0,0.0,0.0,0.0,0.0,0.0,0.0,0.0,0.0,0.0,0.0,0.0,0.0,0.0,0.0,0.0,0.0,0.0,0.0,0.0,0.0,0.0,0.0,0.0,0.0,0.0,0.0,0.0,0.0,0.0,0.0,3.8922,3.8926,4.1556,4.4317,0.0,4.4346,4.2279,4.1783,4.5079,4.4609,3.5212,0.0,0.0,0.0,0.0,0.0,0.0,0.0,0.0,0.0,0.0,0.0,0.0,0.0,0.0,0.0,0.0,0.0,0.0,0.0,0.0,0.0,0.0,0.0,0.0,0.0,0.0,0.0,0.0,0.0,0.0,0.0,0.0,0.0,0.0,0.0,0.0,0.0,0.0,0.0,0.0,0.0,0.0,0.0,0.0,0.0,0.0,0.0,0.0,0.0,0.0,0.0,0.0,0.0,3.1841,3.4101,4.0278,4.4302,4.5849,4.4365,4.3505,4.3505,3.8481,3.4291,0.0,0.0,0.0,0.0,0.0,0.0,0.0,0.0,0.0,0.0,0.0,0.0,0.0,0.0,0.0,0.0,0.0,0.0,0.0,0.0,0.0,0.0,0.0,0.0,0.0,0.0,0.0,0.0,2.5529,2.5876,2.4163,0.0,0.0,0.0,0.0,0.0,0.0,0.0,0.0,0.0,0.0,4.1705,4.4681,4.662,0.0,0.0,4.7362,4.5203,4.2781,4.3567,4.18,3.3953,3.1529,0.0,0.0,0.0,0.0,0.0,0.0,0.0,0.0,0.0,0.0,0.0,0.0,0.0,0.0,0.0,0.0,0.0,0.0,0.0,0.0,0.0,0.0,0.0,0.0,0.0,0.0,0.0,0.0,0.0,0.0,0.0,0.0,0.0,0.0,0.0,0.0,0.0,0.0,0.0,0.0,0.0,0.0,0.0,0.0,0.0,0.0,0.0,0.0,0.0,0.0,0.0,0.0,3.1971,3.4588,4.0445,4.4316,4.5963,4.4365,4.3505,4.3391,3.9228,3.5512,0.0,0.0,0.0,0.0,0.0,0.0,0.0,0.0,0.0,0.0,0.0,0.0,0.0,0.0,0.0,0.0,0.0,0.0,0.0,0.0,0.0,0.0,0.0,0.0,0.0,0.0,0.0,0.0,2.715,2.7224,2.5572,0.0,0.0,0.0,0.0,0.0,0.0,0.0,0.0,0.0,0.0,4.4766,4.7441,4.8919,4.9792,5.0007,4.7968,4.5645,4.3498,4.245,3.9915,3.4276,0.0,0.0,0.0,0.0,0.0,0.0,0.0,0.0,0.0,0.0,0.0,0.0,0.0,0.0,0.0,0.0,0.0,0.0,0.0,0.0,0.0,0.0,0.0,0.0,0.0,0.0,0.0,2.265,0.0,0.0,2.2903,0.0,0.0,0.0,0.0,0.0,0.0,0.0,0.0,0.0,0.0,0.0,0.0,0.0,0.0,0.0,0.0,0.0,0.0,0.0,0.0,0.0,0.0,3.1942,3.454,4.0448,4.4295,4.5885,4.4365,4.3471,4.3396,4.0886,3.781,3.4272,0.0,0.0,0.0,0.0,0.0,0.0,0.0,0.0,0.0,0.0,0.0,0.0,0.0,0.0,0.0,0.0,0.0,0.0,0.0,0.0,0.0,0.0,0.0,0.0,0.0,0.0,2.341,2.497,2.6482,0.0,0.0,0.0,0.0,0.0,0.0,0.0,0.0,0.0,0.0,4.3132,4.785,4.5778,4.7441,4.9216,4.9987,4.5897,4.3139,4.4632,4.2964,4.0473,0.0,0.0,0.0,0.0,0.0,0.0,0.0,0.0,0.0,0.0,0.0,0.0,0.0,0.0,0.0,0.0,0.0,0.0,0.0,0.0,0.0,0.0,0.0,0.0,0.0,0.0,0.0,2.7346,2.7784,0.0,0.0,0.0,0.0,0.0,0.0,0.0,0.0,0.0,0.0,0.0,3.4593,3.5194,0.0,0.0,0.0,0.0,0.0,0.0,0.0,0.0,0.0,0.0,0.0,0.0,3.2227,3.5436,4.0737,4.4067,4.5155,4.4106,4.3235,4.2692,4.0745,3.7704,3.3538,0.0,0.0,0.0,0.0,0.0,0.0,0.0,0.0,0.0,0.0,0.0,0.0,0.0,0.0,0.0,0.0,0.0,0.0,0.0,0.0,0.0,0.0,0.0,0.0,0.0,2.7372,0.0,0.0,0.0,0.0,0.0,0.0,0.0,0.0,0.0,0.0,0.0,3.6377,3.9907,4.2508,4.4544,4.5889,4.7256,4.8753,0.0,0.0,0.0,0.0,0.0,0.0,0.0,0.0,0.0,0.0,0.0,0.0,0.0,0.0,3.5847,3.0071,2.9636,3.0433,3.1429,0.0,0.0,0.0,0.0,0.0,0.0,0.0,0.0,0.0,0.0,0.0,0.0,0.0,0.0,3.1982,0.0,3.1078,0.0,0.0,0.0,0.0,0.0,0.0,0.0,0.0,3.7557,3.9591,4.0311,4.0895,4.0702,0.0,3.8891,3.5235,0.0,0.0,0.0,0.0,0.0,0.0,0.0,0.0,3.346,3.6373,4.1359,4.4535,4.5585,4.4299,4.3302,4.2743,4.0752,3.83,3.5376,3.2807,3.0184,0.0,0.0,0.0,0.0,0.0,0.0,0.0,0.0,0.0,0.0,0.0,0.0,0.0,0.0,0.0,0.0,0.0,0.0,0.0,0.0,0.0,0.0,0.0,3.0123,0.0,0.0,0.0,0.0,0.0,0.0,0.0,0.0,0.0,3.5175,3.6892,3.9535,4.3578,4.4358,4.4841,4.5547,0.0,0.0,0.0,0.0,0.0,0.0,0.0,3.9165,3.7502,3.8176,3.9392,4.0811,4.291,4.4191,4.3589,0.0,0.0,3.617,3.5501,3.6293,3.7239,3.7364,3.7788,3.9139,3.9482,3.9892,0.0,0.0,0.0,0.0,0.0,0.0,0.0,0.0,3.6414,3.6563,0.0,3.5585,0.0,0.0,0.0,0.0,3.15,3.6933,0.0,0.0,4.6687,4.8757,4.6534,4.6436,4.5973,4.5114,4.4257,4.2067,3.8667,3.451,0.0,0.0,0.0,0.0,0.0,0.0,3.5534,3.744,4.236,4.5718,4.7123,4.4897,4.3608,4.3489,4.1061,3.9645,3.9457,3.6273,3.4358,3.4091,2.934,0.0,0.0,0.0,0.0,0.0,0.0,0.0,0.0,0.0,0.0,0.0,0.0,0.0,0.0,0.0,0.0,0.0,0.0,0.0,0.0,3.1576,0.0,0.0,0.0,0.0,0.0,0.0,0.0,0.0,0.0,0.0,3.8147,4.0791,4.3652,4.603,0.0,0.0,0.0,0.0,4.6257,4.2497,4.1389,4.1398,4.2113,4.3286,4.4392,4.5111,0.0,0.0,4.7723,4.6273,4.5343,4.4443,4.6352,4.6637,4.3892,4.255,4.2065,4.2119,4.2004,4.1784,4.178,4.2554,4.2708,4.3259,0.0,0.0,0.0,0.0,4.0087,4.2396,4.5792,4.3754,4.3401,4.4006,4.112,0.0,0.0,0.0,0.0,0.0,0.0,4.1855,4.4273,4.7631,4.9719,5.074,5.1448,5.1307,5.0448,4.9555,4.8002,4.582,4.3981,3.8671,3.0182,0.0,0.0,0.0,0.0,3.703,3.9947,4.3823,4.574,4.5622,4.4881,4.3939,4.2711,4.0786,3.9719,3.9607,3.8611,3.6867,3.4329,3.3231,0.0,0.0,0.0,0.0,0.0,0.0,0.0,0.0,0.0,0.0,0.0,0.0,0.0,0.0,0.0,0.0,0.0,0.0,0.0,3.3307,3.4171,3.2989,0.0,0.0,0.0,0.0,0.0,0.0,0.0,0.0,0.0,4.4469,4.3139,4.2619,0.0,0.0,4.3392,4.1646,4.4031,4.6145,4.6638,4.652,0.0,4.8087,4.712,4.635,4.6682,4.9911,5.2396,5.2346,5.3405,5.4034,5.3349,5.3821,5.3839,5.2581,4.9546,4.761,4.7939,4.8438,4.8912,4.9468,5.0071,5.0611,5.2226,4.7197,4.4776,4.4405,4.5469,4.5868,4.8129,5.1361,4.956,4.9276,4.9889,4.6913,4.4172,4.1602,3.9815,0.0,0.0,0.0,4.5896,4.958,5.0754,5.2314,5.4108,5.4759,5.4576,5.3718,5.3561,5.236,5.0343,4.9157,4.4669,3.7107,0.0,0.0,3.4452,3.7845,4.0542,4.2617,4.535,4.6635,4.6441,4.5116,4.3749,4.2375,4.0986,4.0222,4.0126,4.0113,3.9077,3.6924,3.6136,3.4123,0.0,0.0,0.0,0.0,0.0,0.0,0.0,0.0,0.0,0.0,0.0,2.6394,2.6168,0.0,0.0,0.0,3.3072,3.4555,3.549,3.5174,0.0,0.0,0.0,0.0,0.0,0.0,0.0,3.6991,4.1237,4.5138,4.7367,4.6104,4.5807,4.8064,4.6995,4.5547,4.4395,0.0,4.8447,4.9166,4.9223,4.9566,5.0764,5.0502,5.0446,5.1566,5.3668,5.5444,5.5922,5.7225,5.8006,5.7738,5.757,5.7449,5.7103,5.4713,5.2833,5.2876,5.3179,5.3667,5.4155,5.4776,5.5371,5.9689,5.7722,5.0873,4.8825,5.0038,5.0866,5.2614,5.4829,5.4115,5.4196,5.4718,5.2414,5.0018,4.7514,4.433,0.0,4.794,4.866,5.1254,5.5254,5.5355,5.5879,5.6755,5.6721,5.6294,5.5592,5.6294,5.5356,5.3015,5.1336,4.9188,4.6612,4.4934,4.2708,4.0249,4.3137,4.4855,4.5011,4.6615,4.7867,4.8612,4.5544,4.3437,4.2499,4.1594,4.105,4.0886,4.0842,4.0801,4.0739,3.836,3.6835,3.628,0.0,0.0,0.0,0.0,0.0,0.0,0.0,0.0,0.0,0.0,0.0,0.0,0.0,0.0,0.0,3.6933,0.0,3.7721,3.5775,0.0,0.0,0.0,3.7086,4.0579,4.1976,4.2784,4.3014,0.0,0.0,4.8073,4.9522,5.1667,5.4862,5.3673,5.1927,5.0404,5.1528,5.2206,5.075,5.0648,5.0944,5.2126,5.3612,5.5412,5.7322,5.8404,5.8219,5.8234,5.8308,5.8393,5.8349,5.8305,5.8215,5.8227,5.7924,5.7856,5.6528,5.6389,5.6411,5.6419,5.6732,5.7095,6.2125,6.1646,5.9849,5.8623,5.7826,5.8081,5.8955,6.002,5.866,5.7791,5.7307,5.5426,5.3935,5.2767,5.1903,5.2684,5.4813,5.5002,5.6007,5.7641,5.7901,5.8146,5.8324,5.7757,5.7777,5.8088,5.7112,5.6254,5.563,5.4576,5.239,4.9305,4.8135,4.5286,4.103,4.2279,4.3683,4.5011,4.601,4.6914,4.7687,4.6352,4.4852,4.33,4.2412,4.1611,4.0873,4.0804,4.0801,4.0777,4.003,3.8654,3.6552,3.379,0.0,0.0,0.0,0.0,0.0,0.0,0.0,0.0,0.0,2.9715,2.9003,0.0,3.4069,0.0,3.8566,4.162,4.2245,4.1799,0.0,0.0,4.0286,4.0917,4.1284,4.5111,4.7088,4.5286,4.8642,5.1454,5.2262,5.3227,5.4825,5.735,5.4277,5.1528,5.1193,5.3014,5.4304,5.4016,5.5208,5.6519,5.6535,5.7191,5.7725,5.8293,5.8432,5.8454,5.8404,5.843,5.843,5.8393,5.8371,5.836,5.836,5.836,5.8282,5.796,5.7902,5.7902,5.7902,5.7914,5.7914,6.3659,6.3051,6.3469,6.2883,6.169,6.1767,6.1838,6.192,6.1065,6.021,5.9319,5.7973,5.7017,5.6347,5.6295,5.7084,5.8362,5.8029,5.8378,5.9223,5.9018,5.8938,5.8973,5.8582,5.8635,5.9064,5.8166,5.7698,5.7659,5.684,5.524,5.3012,5.2117,4.9462,4.5246,4.4074,4.4231,4.5558,4.6006,4.664,4.7374,4.662,4.5149,4.3028,4.1395,3.9896,3.8585,3.7802,3.7582,3.7914,3.7839,3.7081,3.5511,3.3398,3.1702,0.0,0.0,0.0,0.0,0.0,0.0,0.0,0.0,0.0,0.0,0.0,3.6858,3.775,4.1158,4.3234,4.2989,4.3022,4.3073,4.3213,4.4397,4.5815,4.7476,5.0488,5.2129,5.1375,5.366,5.5493,5.5939,5.6347,5.7127,5.8502,5.6347,5.4648,5.476,5.5865,5.6655,5.6719,5.7744,5.8604,5.8566,5.8593,5.8572,5.8529,5.8561,5.8572,5.8556,5.8545,5.8545,5.8545,5.8502,5.8432,5.8432,5.8469,5.8469,5.848,5.8513,5.8502,5.8415,5.8349,5.8282,6.4673,6.3424,6.4259,6.4173,6.354,6.354,6.2887,6.1856,6.1802,6.1364,6.0594,5.9969,5.9367,5.8849,5.8837,5.932,6.0105,5.9374,5.9509,6.0258,5.9579,5.9315,5.9406,5.9295,5.9338,5.9416,5.922,5.9103,5.9064,5.8246,5.7231,5.6098,5.524,5.321,5.0085,4.6923,4.5599,4.6112,4.6659,4.7101,4.746,4.6434,4.4609,4.2019,3.9533,3.7364,3.5604,3.4233,3.3783,3.4358,3.4507,3.4598,3.4682,3.2474,3.1572,0.0,3.0289,0.0,0.0,0.0,0.0,0.0,0.0,0.0,0.0,3.9129,4.0338,4.3215,4.4055,4.4054,4.32,4.3227,4.4562,4.754,4.8778,5.1039,5.4946,5.6045,5.6838,5.7974,5.8461,5.8687,5.8576,5.8687,5.8687,5.8687,5.8502,5.8205,5.8539,5.8502,5.8502,5.8687,5.8687,5.8677,5.8677,5.8677,5.8677,5.8677,5.8677,5.8687,5.8677,5.8677,5.8677,5.8677,5.8604,5.8503,5.8551,5.8513,5.854,5.8551,5.8614,5.8614,5.8502,5.8437,5.8382,6.5468,6.5293,6.546,6.5468,6.5378,6.5378,6.3731,6.1,6.0275,5.9896,5.9792,6.0439,6.0655,6.0552,6.0623,6.0777,6.0957,6.0805,6.0815,6.1039,6.1025,6.1034,6.1015,6.0449,6.0509,6.1094,5.9767,5.9103,5.9103,5.8207,5.6334,5.3445,5.2585,5.1453,5.0046,0.0,0.0,0.0,4.8632,4.9452,4.7442,4.5243,4.2839,4.0262,3.8353,0.0,3.4867,3.503,3.4964,3.4474,3.5087,0.0,0.0,0.0,0.0,0.0,0.0,0.0,0.0,0.0,0.0,0.0,4.0188,4.0237,4.0177,4.0335,4.2285,4.6596,4.6194,4.6889,4.995,5.0237,5.0794,5.2144,5.3614,5.4823,5.5462,5.6999,5.8151,5.8015,5.8405,5.8687,5.8687,5.8687,5.8687,5.8687,5.8687,5.8687,5.8687,5.8687,5.8687,5.8687,5.8687,5.8687,5.8687,5.8687,5.8687,5.8687,5.8687,5.8687,5.8687,5.8687,5.8687,5.8687,5.8677,5.8656,5.8656,5.8656,5.8646,5.8656,5.8677,5.8677,5.8635,5.8551,5.8454,6.7104,6.6408,6.6409,6.5987,0.0,6.5243,6.382,6.1479,6.1858,6.155,6.0804,6.091,6.1052,6.1073,6.0838,6.0736,6.0787,6.0356,6.0395,6.0789,6.0914,6.1203,6.1593,6.1238,6.1289,6.1641,6.0821,6.0392,6.0314,5.9495,5.7972,5.5864,5.4966,5.4147,5.3326,5.2467,5.0759,4.8118,4.9407,4.9882,4.9331,4.7727,4.5373,4.2375,4.0535,0.0,0.0,0.0,0.0,0.0,0.0,0.0,0.0,3.7897,0.0,3.9695,3.9472,3.9983,4.1647,4.3018,4.4287,4.5565,4.6889,4.6552,4.3982,4.4998,4.6973,4.9782,4.9448,5.0062,5.2535,5.3231,5.3652,5.4155,5.5625,5.6638,5.6806,5.7808,5.8614,5.8626,5.8666,5.8687,5.8687,5.8687,5.8687,5.8687,5.8687,5.8687,5.8687,5.8687,5.8687,5.8687,5.8687,5.8687,5.8687,5.8687,5.8687,5.8687,5.8687,5.8687,5.8687,5.8687,5.8687,5.8687,5.8687,5.8687,5.8687,5.8687,5.8687,5.8687,5.8687,5.8687,5.8687,5.8646,5.8572,6.8387,6.7049,6.707,6.6244,6.482,6.4859,6.4051,6.2864,6.3743,0.0,0.0,6.1466,6.1348,6.1431,6.0767,6.0536,6.0587,5.9884,5.9962,6.0627,6.0627,6.1017,6.168,6.1719,6.1719,6.1719,6.1719,6.1641,6.1446,6.0744,5.9963,5.9103,5.8363,5.7699,5.7073,5.7034,5.5629,5.2818,5.075,5.0256,5.1326,5.0115,4.8008,4.4988,4.3029,4.0912,3.8705,3.7332,3.6842,3.7328,3.748,3.8138,3.9256,3.9337,3.9917,4.1164,4.128,4.267,4.5719,4.7231,4.9049,5.1405,5.2763,5.2066,4.8666,5.0244,5.1796,5.2767,5.2612,5.2844,5.3846,5.4392,5.4838,5.5148,5.6497,5.7505,5.7953,5.8459,5.8865,5.9092,5.8878,5.8687,5.8687,5.8687,5.8687,5.8687,5.8687,5.8687,5.8687,5.8687,5.8687,5.8687,5.8687,5.8687,5.8687,5.8687,5.8687,5.8687,5.8687,5.8687,5.8687,5.8687,5.8687,5.8687,5.8687,5.8687,5.8687,5.8687,5.8687,5.8687,5.8687,5.8687,5.8687,5.8687,5.8646,6.8,6.7083,6.709,6.6558,6.5705,6.5705,6.5596,6.5211,6.3326,6.199,6.1225,6.1969,6.24,6.2533,6.1797,6.1516,6.1524,6.1407,6.1407,6.1524,6.1524,6.1602,6.1719,6.1719,6.1719,6.1719,6.1719,6.1328,6.0627,6.0471,5.9963,5.922,5.8947,5.883,5.8752,5.8752,5.8479,5.7971,5.4888,5.2666,5.1382,4.8416,4.628,4.4961,4.255,4.058,3.9501,3.9906,3.9774,3.9191,3.9846,4.1313,4.3514,4.3708,4.5061,4.7966,4.8275,4.9126,5.0948,5.1335,5.2302,5.4,5.3811,5.3536,5.373,5.3343,5.3768,5.52,5.4112,5.3962,5.5342,5.4931,5.5047,5.6324,5.7115,5.7718,5.8094,5.8723,5.9025,5.8838,5.8712,5.8687,5.8687,5.8687,5.8687,5.8687,5.8687,5.8687,5.8687,5.8687,5.8687,5.8687,5.8687,5.8687,5.8687,5.8687,5.8687,5.8687,5.8687,5.8687,5.8687,5.8687,5.8687,5.8687,5.8687,5.8687,5.8687,5.8687,5.8687,5.8687,5.8687,5.8687,5.8687,5.8687,5.8646,6.9244,6.8552,6.8513,6.775,6.6519,6.6096,6.5634,6.5166,6.448,6.3736,6.3047,6.28,6.273,6.2671,6.1538,6.0977,6.0977,6.0509,6.0548,6.0978,6.0978,6.1254,6.169,6.169,6.1691,6.169,6.1691,6.1491,6.1134,6.1133,6.0666,5.9806,5.9338,5.9103,5.9103,5.9111,5.9114,5.9036,5.6648,5.5047,5.4193,5.1773,5.0064,4.9177,4.7399,4.6087,4.5236,4.5013,4.4952,4.503,4.5413,4.6573,4.8585,4.8701,4.9629,5.1602,5.1757,5.1877,5.2186,5.2651,5.3652,5.5277,5.5084,5.5006,5.5432,5.4233,5.4043,5.5195,5.4494,5.4463,5.5649,5.516,5.5107,5.5828,5.6458,5.6982,5.7448,5.8165,5.8672,5.8689,5.8687,5.8687,5.8687,5.8687,5.8687,5.8687,5.8687,5.8687,5.8687,5.8687,5.8687,5.8687,5.8687,5.8687,5.8687,5.8687,5.8687,5.8687,5.8687,5.8687,5.8687,5.8687,5.8687,5.8687,5.8687,5.8687,5.8687,5.8687,5.8687,5.8687,5.8687,5.8687,5.8687,5.8646,5.8561,7.0437,6.9706,6.9706,6.8706,6.7058,6.6244,6.555,6.5027,6.5664,6.5703,6.5067,6.3878,6.3356,6.3249,6.1702,6.0978,6.0861,6.0079,6.0043,6.067,6.067,6.1067,6.1622,6.1701,6.1701,6.1701,6.17,6.1697,6.1689,6.1727,6.1375,6.0675,6.001,5.9657,5.9659,5.9667,5.9671,5.9592,5.8219,5.7359,5.7131,5.5492,5.4249,5.3515,5.235,5.142,5.0766,4.9983,4.9861,5.048,5.0558,5.1138,5.238,5.2496,5.2883,5.3656,5.3618,5.3308,5.2921,5.3579,5.4619,5.5853,5.6008,5.6085,5.6158,5.4877,5.4305,5.5055,5.5314,5.5429,5.5667,5.5453,5.532,5.5503,5.5912,5.6611,5.7232,5.7883,5.8344,5.8648,5.8687,5.8687,5.8687,5.8687,5.8687,5.8687,5.8687,5.8687,5.8687,5.8687,5.8687,5.8687,5.8687,5.8687,5.8687,5.8687,5.8687,5.8687,5.8687,5.8687,5.8687,5.8687,5.8687,5.8687,5.8687,5.8687,5.8687,5.8687,5.8687,5.8687,5.8687,5.8677,5.8646,5.8529,5.8432,7.0437,6.9744,6.9744,6.8706,6.7096,6.6256,6.5878,6.5966,6.6191,6.6316,6.6229,6.5333,6.5041,6.51,6.3474,6.2696,6.2658,6.1836,6.153,6.1618,6.1579,6.1623,6.1707,6.1708,6.1708,6.1708,6.1708,6.1707,6.1705,6.1706,6.1668,6.159,6.1512,6.1394,6.1394,6.1396,6.1435,6.1435,6.0536,5.9678,5.8818,5.7218,5.6288,5.608,5.4354,5.3407,5.3135,5.313,5.3037,5.3153,5.3115,5.3188,5.3386,5.3386,5.3772,5.4581,5.3962,5.3768,5.4503,5.5316,5.5776,5.5969,5.6046,5.6356,5.7004,5.6043,5.5693,5.64,5.7228,5.6989,5.6286,5.583,5.5891,5.65,5.6419,5.6985,5.8234,5.8673,5.8665,5.8671,5.8687,5.8687,5.8687,5.8687,5.8687,5.8687,5.8687,5.8687,5.8687,5.8687,5.8687,5.8687,5.8687,5.8687,5.8687,5.8687,5.8687,5.8687,5.8687,5.8687,5.8687,5.8687,5.8687,5.8687,5.8687,5.8687,5.8687,5.8687,5.8687,5.8656,5.8656,5.8646,5.8551,5.8378,5.8282,7.0706,7.0398,7.0398,6.9436,6.7795,6.6563,6.6063,6.6123,6.6238,6.6396,6.654,6.6151,6.583,6.5545,6.4298,6.3755,6.376,6.3409,6.3219,6.3189,6.2721,6.2451,6.2417,6.1909,6.1714,6.1714,6.1714,6.1712,6.1709,6.1709,6.1709,6.1709,6.1709,6.1709,6.1709,6.1713,6.1714,6.1675,6.1365,6.0975,6.0429,5.8398,5.7219,5.7,5.5385,5.4383,5.431,5.382,5.373,5.4233,5.4275,5.4465,5.4967,5.4967,5.5118,5.5432,5.4735,5.4658,5.547,5.5389,5.5505,5.5969,5.6472,5.6936,5.7318,5.7776,5.8158,5.8094,5.728,5.6661,5.6849,5.6077,5.5722,5.6369,5.6014,5.6268,5.7867,5.805,5.813,5.8576,5.8687,5.8687,5.8687,5.8687,5.8687,5.8687,5.8687,5.8687,5.8687,5.8687,5.8687,5.8687,5.8687,5.8687,5.8687,5.8687,5.8687,5.8687,5.8687,5.8687,5.8687,5.8687,5.8687,5.8687,5.8687,5.8687,5.8687,5.8687,5.8677,5.8625,5.8519,5.8502,5.8345,5.8246,5.8351,7.1091,7.0912,7.0709,6.9976,6.8787,6.7173,6.6539,6.6558,6.6446,6.6495,6.664,6.6644,6.6406,6.5903,6.5045,6.466,6.463,6.4395,6.4284,6.425,6.3626,6.3238,6.2967,6.2655,6.2147,6.1796,6.1952,6.1951,6.1753,6.1713,6.1713,6.1713,6.1713,6.1713,6.1714,6.1717,6.1717,6.1718,6.1718,6.1718,6.1364,5.9508,5.8391,5.8217,5.6565,5.5579,5.5536,5.4649,5.4465,5.5084,5.5122,5.5393,5.593,5.6008,5.6008,5.5969,5.547,5.5354,5.5969,5.547,5.547,5.6278,5.6975,5.7516,5.8049,5.8853,5.9498,5.965,5.7758,5.7005,5.7369,5.6604,5.617,5.6568,5.6016,5.632,5.7658,5.7806,5.8093,5.8576,5.8687,5.8687,5.8687,5.8687,5.8687,5.8687,5.8687,5.8687,5.8687,5.8687,5.8687,5.8687,5.8687,5.8687,5.8687,5.8687,5.8687,5.8687,5.8687,5.8687,5.8687,5.8687,5.8687,5.8687,5.8687,5.8687,5.8677,5.8677,5.8604,5.8497,5.8389,5.8449,5.864,5.8535,5.8787,7.1675,7.0869,7.0212,7.0031,6.9985,6.8249,6.7638,6.7732,6.7013,6.6732,6.6879,6.6845,6.6815,6.6785,6.5919,6.553,6.5458,6.4795,6.4486,6.4451,6.4295,6.3827,6.3086,6.3789,6.332,6.1953,6.25,6.2461,6.1758,6.1719,6.1719,6.1719,6.1719,6.1719,6.1719,6.1719,6.1719,6.1719,6.1719,6.1677,6.1494,6.0577,6.0029,5.9856,5.8228,5.7186,5.7095,5.6326,5.593,5.5973,5.6008,5.6008,5.6046,5.6085,5.6124,5.6085,5.6046,5.6008,5.6085,5.6085,5.6394,5.7086,5.74,5.8019,5.9291,5.8937,5.9221,6.0691,5.9311,5.8379,5.8186,5.7632,5.731,5.7418,5.7398,5.7695,5.8465,5.8502,5.8613,5.8687,5.8687,5.8687,5.8687,5.8687,5.8687,5.8687,5.8687,5.8687,5.8687,5.8687,5.8687,5.8687,5.8687,5.8687,5.8687,5.8687,5.8687,5.8687,5.8687,5.8687,5.8687,5.8687,5.8687,5.8677,5.8667,5.8656,5.8656,5.8593,5.8486,5.8378,5.8268,5.8363,5.8623,5.9058,5.9403,7.1782,7.1012,7.0214,7.0031,7.006,6.9072,6.868,6.8697,6.8516,6.8436,6.8342,6.7876,6.7646,6.769,6.6829,6.6439,6.6401,6.6089,6.5974,6.5898,6.539,6.4961,6.4687,6.4453,6.3711,6.2734,6.2851,6.2539,6.1797,6.1719,6.1719,6.1719,6.1719,6.1719,6.1719,6.1719,6.1719,6.1719,6.1719,6.1676,6.1605,6.119,6.0957,6.0798,5.9145,5.817,5.8101,5.7834,5.7675,5.768,5.7675,5.768,5.7675,5.7675,5.7675,5.768,5.7641,5.768,5.7675,5.7675,5.7753,5.8101,5.8681,5.9145,5.9789,5.9934,6.0236,6.0683,6.0309,5.9705,5.9399,5.8554,5.7947,5.8155,5.7843,5.7874,5.8465,5.8687,5.8687,5.8687,5.8687,5.8687,5.8687,5.8687,5.8687,5.8687,5.8687,5.8687,5.8687,5.8687,5.8687,5.8687,5.8687,5.8687,5.8687,5.8687,5.8687,5.8687,5.8687,5.8687,5.8687,5.8687,5.8687,5.8656,5.8635,5.8582,5.8551,5.8443,5.8334,5.8257,5.8145,5.8247,5.8433,5.9048,5.9612,7.2039,7.159,7.0815,7.0608,7.0686,6.9986,6.9676,6.9658,6.9461,6.9401,6.9289,6.8742,6.855,6.8514,6.7967,6.7733,6.7616,6.7186,6.6913,6.6836,6.6289,6.5859,6.5586,6.5273,6.4531,6.3555,6.3398,6.2969,6.2187,6.2109,6.1953,6.1719,6.1719,6.1719,6.1719,6.1719,6.1719,6.1719,6.1719,6.1676,6.1606,6.1526,6.1435,6.1133,6.0077,5.9327,5.9043,5.8763,5.8608,5.8608,5.8608,5.8608,5.8608,5.8608,5.8608,5.8608,5.8569,5.8608,5.8608,5.8608,5.8724,5.8995,5.9537,5.9962,6.0267,6.0722,6.0958,6.0925,6.0766,6.0553,6.0207,5.9368,5.8838,5.8971,5.8548,5.8446,5.895,5.8955,5.8815,5.8719,5.8687,5.8687,5.8687,5.8687,5.8687,5.8687,5.8687,5.8687,5.8687,5.8687,5.8687,5.8687,5.8687,5.8687,5.8687,5.8687,5.8687,5.8687,5.8687,5.8687,5.8687,5.8687,5.8667,5.8625,5.8572,5.8497,5.84,5.8279,5.8238,5.8182,5.8125,5.8189,5.8607,5.9171,5.9893,7.2574,7.2452,7.1955,7.1681,7.1717,7.1023,7.0684,7.0572,6.991,6.968,6.9724,6.945,6.9413,6.9375,6.9258,6.9336,6.8945,6.7773,6.7187,6.7148,6.7031,6.6601,6.6015,6.664,6.6015,6.4492,6.4336,6.3867,6.3047,6.2969,6.2656,6.1953,6.1875,6.1875,6.1758,6.1758,6.1719,6.1719,6.1719,6.168,6.1611,6.156,6.1495,6.1344,6.1137,6.0713,5.9933,5.915,5.884,5.8802,5.8763,5.8647,5.8802,5.884,5.8724,5.884,5.8724,5.8685,5.8724,5.8802,5.9227,5.9721,5.9957,6.0296,6.0819,6.0978,6.1005,6.0953,6.0878,6.0746,6.0441,6.021,5.9999,5.982,5.9534,5.9572,5.9631,5.9423,5.9102,5.8845,5.8801,5.8719,5.8708,5.8698,5.8698,5.8687,5.8687,5.8687,5.8687,5.8687,5.8687,5.8687,5.8687,5.8687,5.8687,5.8687,5.8687,5.8687,5.8687,5.8687,5.8677,5.8677,5.8614,5.8572,5.8476,5.8389,5.8257,5.8182,5.8306,5.8249,5.8203,5.8474,5.9134,5.982,6.0493,7.2745,7.1929,7.1778,7.1806,7.1975,7.1703,7.1591,7.1597,7.1285,7.1209,7.1093,7.0546,7.0312,7.0156,6.9726,6.9453,6.9414,6.8867,6.8633,6.8672,6.8633,6.8437,6.832,6.8555,6.7812,6.6211,6.5469,6.4765,6.4062,6.3906,6.3711,6.3437,6.2851,6.2617,6.2578,6.2031,6.1719,6.1719,6.1719,6.168,6.161,6.1605,6.1502,6.1344,6.1306,6.1078,6.0745,6.046,6.0306,6.0267,6.0306,6.0344,6.0306,6.0306,6.0306,6.0344,6.0344,6.0306,6.0306,6.0267,6.0326,6.0611,6.0645,6.0775,6.0967,6.0964,6.0927,6.0933,6.0883,6.0752,6.0691,6.0667,6.0383,5.9836,5.9772,5.9804,5.9796,5.9681,5.9571,5.947,5.9234,5.9083,5.8996,5.8895,5.8719,5.8687,5.8687,5.8687,5.8687,5.8687,5.8687,5.8687,5.8687,5.8687,5.8687,5.8677,5.8656,5.8656,5.8656,5.8656,5.8646,5.8604,5.8551,5.8476,5.8378,5.8268,5.8122,5.8127,5.8226,5.857,5.8804,5.9269,5.993,6.0529,6.1153,7.3853,7.3026,7.2836,7.2662,7.2492,7.2493,7.23,7.203,7.1991,7.1992,7.1875,7.1445,7.1172,7.1094,7.0625,7.039,7.039,7.039,7.039,7.0273,6.9609,6.9453,6.9492,6.9453,6.9023,6.793,6.6992,6.6133,6.5273,6.4922,6.4609,6.4219,6.375,6.3476,6.3437,6.2969,6.2656,6.2695,6.2695,6.2498,6.2214,6.2082,6.1829,6.1451,6.1334,6.1225,6.1098,6.1113,6.1113,6.1113,6.1113,6.1113,6.1113,6.1075,6.1113,6.1113,6.1075,6.1079,6.1113,6.0978,6.1041,6.1007,6.1026,6.0995,6.0987,6.0944,6.0911,6.0905,6.0816,6.0781,6.0781,6.0781,6.0578,6.0237,6.0201,6.0121,6.0045,6.0,5.9914,5.9793,5.9554,5.9388,5.9178,5.9036,5.8815,5.875,5.8687,5.8687,5.8687,5.8687,5.8687,5.8687,5.8687,5.8687,5.8687,5.8656,5.8625,5.8614,5.8614,5.8604,5.8593,5.8508,5.8443,5.8334,5.8234,5.8156,5.8031,5.802,5.8118,5.8682,5.9306,5.96,6.0077,6.0896,6.1484,7.5558,7.5456,7.4856,7.4016,7.3396,7.3357,7.3007,7.2305,7.2148,7.2226,7.2226,7.1992,7.207,7.2109,7.2031,7.1914,7.207,7.2148,7.2031,7.164,7.0781,7.0156,6.9961,6.9883,6.9726,6.9336,6.8672,6.789,6.707,6.6406,6.539,6.4922,6.4726,6.4414,6.4336,6.4297,6.4101,6.4023,6.414,6.375,6.3086,6.2996,6.2595,6.1722,6.1589,6.1411,6.1344,6.1191,6.1113,6.1113,6.1113,6.1113,6.1113,6.1113,6.1113,6.1113,6.1113,6.1109,6.1065,6.1036,6.0997,6.0977,6.0974,6.0987,6.0965,6.0922,6.0894,6.0894,6.0816,6.0781,6.0781,6.0781,6.0757,6.0775,6.0691,6.0565,6.0362,6.0321,6.023,6.0007,5.9858,5.9681,5.9352,5.9234,5.9015,5.8774,5.8687,5.8687,5.8687,5.8687,5.8687,5.8687,5.8677,5.8646,5.8625,5.8551,5.8519,5.8508,5.8497,5.8486,5.8486,5.8411,5.8312,5.8201,5.8133,5.8054,5.8008,5.7997,5.8474,5.9233,5.9636,5.9747,6.0444,6.1484,6.1851,7.5233,7.4662,7.46,7.4452,7.4257,7.4257,7.414,7.3828,7.3203,7.3281,7.3555,7.2539,7.2773,7.375,7.3203,7.2969,7.3086,7.3555,7.3515,7.3086,7.3281,7.2422,7.1562,7.1328,7.0976,7.0469,7.0117,6.9609,6.8867,6.8398,6.789,6.7148,6.6445,6.5898,6.5312,6.4726,6.4336,6.4297,6.4336,6.4297,6.4062,6.3944,6.3762,6.3334,6.2673,6.227,6.2011,6.1427,6.1113,6.1113,6.1113,6.1113,6.1113,6.1113,6.1113,6.1113,6.1113,6.1099,6.1032,6.1051,6.1005,6.0927,6.0911,6.0911,6.0871,6.0816,6.0804,6.0843,6.0831,6.0819,6.0819,6.0858,6.0858,6.0781,6.0896,6.079,6.0691,6.0679,6.0648,6.0533,6.0307,6.0,5.9706,5.9397,5.9131,5.8815,5.8698,5.8687,5.8687,5.8667,5.8656,5.8646,5.8635,5.8593,5.854,5.8454,5.8437,5.8426,5.8393,5.8349,5.8349,5.8327,5.8179,5.8065,5.8077,5.8008,5.8008,5.7997,5.8841,5.9612,6.0003,6.0224,6.1471,6.2511,6.2475,7.5993,7.5528,7.5662,7.5508,7.5156,7.5156,7.4922,7.457,7.4101,7.4101,7.4297,7.3594,7.3672,7.4453,7.4062,7.3828,7.3945,7.4375,7.4258,7.4023,7.4258,7.3906,7.3242,7.3086,7.2656,7.1797,7.1406,7.0781,7.0039,6.9648,6.918,6.8672,6.8242,6.7539,6.6758,6.625,6.5937,6.5898,6.5625,6.539,6.539,6.4958,6.4471,6.4129,6.351,6.3157,6.2908,6.2485,6.1892,6.135,6.1113,6.1113,6.1113,6.1113,6.1113,6.1113,6.1423,6.1481,6.1128,6.1257,6.1278,6.1004,6.0894,6.0821,6.0793,6.0781,6.0781,6.0787,6.0781,6.0979,6.1364,6.1627,6.182,6.1897,6.1556,6.121,6.0858,6.1121,6.1133,6.0905,6.061,6.0369,6.0061,5.9711,5.9344,5.8986,5.8801,5.8739,5.8687,5.8656,5.8614,5.8593,5.854,5.8476,5.8422,5.8345,5.829,5.8305,5.826,5.8215,5.8215,5.8215,5.8111,5.8031,5.8008,5.7997,5.7997,5.818,5.8841,5.9538,6.0089,6.0958,6.2132,6.2793,6.2793,7.7226,7.7187,7.7187,7.6758,7.6094,7.6015,7.5664,7.5,7.4805,7.4844,7.4883,7.4726,7.4648,7.4844,7.4883,7.4726,7.4726,7.5039,7.5,7.5,7.5078,7.4961,7.4883,7.4375,7.3945,7.3242,7.25,7.1797,7.1094,7.0273,6.9687,6.957,6.9531,6.9101,6.832,6.8164,6.832,6.8008,6.7461,6.7148,6.7031,6.6517,6.5876,6.507,6.4315,6.4076,6.3895,6.3602,6.2941,6.1466,6.135,6.1543,6.1505,6.1427,6.1466,6.1616,6.2148,6.2201,6.1615,6.2022,6.2051,6.1477,6.1272,6.1056,6.1243,6.132,6.1358,6.1396,6.1095,6.1595,6.2133,6.2858,6.3006,6.2968,6.2595,6.2018,6.1402,6.1672,6.1826,6.1204,6.1044,6.0769,6.0415,6.0114,5.9794,5.945,5.9295,5.9414,5.924,5.9038,5.881,5.8497,5.8432,5.8382,5.8338,5.8282,5.8227,5.8156,5.8099,5.8065,5.8065,5.8054,5.8031,5.7997,5.7997,5.7997,5.7997,5.84,5.9024,5.9758,6.0493,6.1435,6.2352,6.2683,6.2793,7.7226,7.7226,7.7226,7.7109,7.6914,7.6914,7.6797,7.6562,7.5898,7.5937,7.6211,7.5234,7.543,7.6523,7.5898,7.5625,7.5703,7.6211,7.664,7.664,7.664,7.664,7.6289,7.539,7.457,7.414,7.3437,7.293,7.2539,7.1797,7.1055,7.0508,7.043,7.0,6.9258,6.914,6.918,6.918,6.8906,6.8789,6.8789,6.8555,6.7921,6.7034,6.5738,6.4951,6.4686,6.4102,6.3531,6.325,6.3212,6.3289,6.3018,6.2975,6.2975,6.3004,6.3124,6.3194,6.3025,6.3009,6.3062,6.2696,6.2557,6.2743,6.2775,6.266,6.2698,6.2737,6.2775,6.2743,6.3051,6.3198,6.3468,6.3545,6.3743,6.3628,6.2929,6.2403,6.2358,6.2474,6.2115,6.1582,6.0966,6.0871,6.0475,6.003,5.9998,6.0189,5.9854,5.9429,5.8983,5.8537,5.8338,5.826,5.8238,5.823,5.8258,5.8345,5.8325,5.8253,5.8217,5.829,5.84,5.8217,5.7997,5.807,5.8327,5.8767,5.9453,6.0199,6.0933,6.1741,6.2389,6.2646,6.2829,7.7226,7.7226,7.7226,7.7226,7.7226,7.7226,7.7226,7.7148,7.6719,7.6758,7.6953,7.6133,7.6367,7.7109,7.6719,7.6523,7.6601,7.6953,7.7187,7.7148,7.7187,7.7187,7.7109,7.6328,7.5664,7.5234,7.4765,7.4375,7.3789,7.3086,7.2344,7.1875,7.1523,7.0859,7.0117,7.0039,7.0039,6.9922,6.9609,6.957,6.9922,6.9648,6.9335,6.8736,6.7645,6.7047,6.698,6.652,6.6224,6.6104,6.6031,6.5223,6.3942,6.369,6.368,6.3665,6.4044,6.383,6.362,6.3779,6.3771,6.3358,6.3314,6.3314,6.3314,6.3314,6.3314,6.3314,6.3314,6.3429,6.3891,6.4397,6.4436,6.4474,6.4551,6.4551,6.4397,6.3782,6.3166,6.3314,6.2891,6.2464,6.2062,6.1682,6.134,6.0945,6.0555,6.0659,5.9889,5.9453,5.8973,5.8552,5.8278,5.8136,5.8088,5.8176,5.8325,5.8534,5.8779,5.8756,5.8756,5.8841,5.8951,5.8657,5.8364,5.8767,5.9049,5.949,5.9967,6.075,6.1484,6.2034,6.2585,6.3099,6.3086,7.7226,7.7226,7.7226,7.7226,7.7226,7.7226,7.7226,7.7226,7.7226,7.7148,7.7187,7.7226,7.7031,7.7187,7.7187,7.7187,7.7187,7.7148,7.7226,7.7226,7.7226,7.7226,7.7148,7.6953,7.668,7.6133,7.5781,7.5351,7.4687,7.3984,7.3476,7.332,7.2812,7.2226,7.1523,7.1133,7.1211,7.1172,7.0742,7.0625,7.1055,7.0625,7.0312,6.992,6.914,6.8997,6.8867,6.8687,6.8595,6.8788,6.8766,6.7219,6.5391,6.4394,6.4237,6.4353,6.5142,6.5091,6.4517,6.4636,6.4754,6.3814,6.3929,6.3852,6.3891,6.4275,6.4468,6.4199,6.4275,6.4474,6.4936,6.5282,6.5667,6.5705,6.5243,6.5359,6.559,6.5282,6.4743,6.3962,6.3598,6.3114,6.2811,6.245,6.2172,6.186,6.1475,6.0989,6.0256,5.9623,5.9252,5.8535,5.8198,5.8054,5.8042,5.8545,5.8657,5.8951,5.9233,5.938,5.9453,5.982,5.9869,5.9134,5.8951,5.938,5.982,6.0187,6.0786,6.1447,6.1961,6.2475,6.3025,6.3576,6.3466,7.7226,7.7226,7.7226,7.7226,7.7226,7.7226,7.7226,7.7226,7.7226,7.7226,7.7226,7.7226,7.7226,7.7226,7.7226,7.7226,7.7226,7.7226,7.7226,7.7226,7.7226,7.7226,7.7226,7.7187,7.707,7.6836,7.6367,7.5859,7.5547,7.4844,7.4414,7.4336,7.414,7.3828,7.3515,7.3281,7.2734,7.2695,7.2461,7.2539,7.2578,7.25,7.2031,7.1404,7.0258,6.9826,6.9868,6.9347,6.8808,6.8772,6.8729,6.8398,6.784,6.7675,6.726,6.6796,6.7085,6.6805,6.5907,6.6178,6.6192,6.5865,6.5936,6.5974,6.5936,6.6506,6.6551,6.6397,6.6282,6.6442,6.6628,6.6397,6.5981,6.6013,6.6359,6.6442,6.6244,6.6282,6.6205,6.5391,6.4586,6.3794,6.3476,6.3127,6.2746,6.2544,6.2354,6.165,6.0805,6.0271,5.9787,5.8982,5.8056,5.8008,5.8008,5.8742,5.9196,5.9538,5.982,6.0199,6.0419,6.097,6.0823,6.0052,5.9869,6.026,6.0664,6.097,6.1337,6.1851,6.2328,6.2842,6.3282,6.3723,6.4029,7.7226,7.7226,7.7226,7.7226,7.7226,7.7226,7.7226,7.7226,7.7226,7.7226,7.7226,7.7226,7.7226,7.7226,7.7226,7.7226,7.7226,7.7226,7.7226,7.7226,7.7226,7.7226,7.7226,7.7226,7.7226,7.7109,7.6758,7.6523,7.6484,7.5664,7.5312,7.5156,7.4883,7.4609,7.4531,7.414,7.3984,7.3984,7.3984,7.3984,7.3945,7.3902,7.3386,7.2473,7.1667,7.1126,7.0696,7.0559,7.0111,7.0065,6.9969,6.9934,6.9877,6.9705,6.9274,6.8306,6.8289,6.8174,6.7404,6.7603,6.7513,6.7321,6.759,6.759,6.7475,6.7782,6.8244,6.7975,6.7782,6.7782,6.7705,6.7359,6.7244,6.7244,6.7513,6.7475,6.7321,6.7552,6.7167,6.6532,6.5549,6.4726,6.4162,6.3804,6.3375,6.3186,6.3113,6.2357,6.1352,6.0915,6.0441,5.9744,5.8914,5.8914,5.8914,5.9355,5.9893,6.0199,6.0554,6.0896,6.1227,6.1667,6.152,6.0896,6.1006,6.1251,6.1374,6.163,6.1924,6.2181,6.2548,6.2939,6.3417,6.3833,6.4237,7.7226,7.7226,7.7226,7.7226,7.7226,7.7226,7.7226,7.7226,7.7226,7.7226,7.7226,7.7226,7.7305,7.7422,7.7461,7.7422,7.7265,7.7226,7.7226,7.7226,7.7226,7.7226,7.7226,7.7226,7.7226,7.7187,7.7148,7.7226,7.6992,7.6484,7.6211,7.6055,7.539,7.5117,7.5234,7.5039,7.4922,7.4844,7.4883,7.4883,7.4844,7.4708,7.4249,7.3459,7.3171,7.2662,7.2077,7.1644,7.1435,7.1249,7.1087,7.0985,7.0973,7.0992,7.0362,6.9239,6.8963,6.8783,6.843,6.8622,6.8545,6.816,6.8507,6.8545,6.843,6.8468,6.8814,6.8853,6.8699,6.866,6.8622,6.843,6.8205,6.8013,6.809,6.8237,6.7821,6.7705,6.7705,6.7036,6.622,6.5496,6.4845,6.3946,6.3412,6.3245,6.318,6.2606,6.1749,6.1531,6.1079,6.0553,6.0089,6.0089,6.0126,6.0272,6.0713,6.1006,6.141,6.1814,6.2022,6.2316,6.1949,6.1667,6.1998,6.2205,6.2254,6.2218,6.2401,6.2536,6.2719,6.3233,6.4004,6.4517,6.4897,7.7226,7.7226,7.7226,7.7226,7.7226,7.7226,7.7226,7.7226,7.7226,7.7226,7.7226,7.7305,7.7656,7.8125,7.832,7.793,7.7461,7.7344,7.7383,7.7383,7.7265,7.7226,7.7226,7.7226,7.7226,7.7226,7.7226,7.7226,7.7148,7.7031,7.6992,7.6875,7.6758,7.6797,7.6484,7.6015,7.5742,7.5742,7.5742,7.5742,7.5703,7.5597,7.5059,7.439,7.3928,7.3634,7.3239,7.2673,7.2268,7.2154,7.1461,7.1088,7.0992,7.0939,7.088,7.0681,7.0482,6.9975,6.9007,6.9161,6.9314,6.9007,6.9199,6.9045,6.9007,6.9276,6.9783,7.0552,6.9975,6.9545,6.9391,6.893,6.8205,6.8129,6.8436,6.7821,6.7244,6.8629,6.8552,6.785,6.7137,6.6176,6.5314,6.4319,6.3428,6.3312,6.3121,6.2632,6.2217,6.2059,6.1814,6.1288,6.1068,6.1068,6.1141,6.1288,6.1447,6.1777,6.2071,6.2462,6.2536,6.2609,6.2646,6.2536,6.2793,6.2793,6.2609,6.2609,6.2756,6.2793,6.2793,6.371,6.4884,6.5251,6.5398,7.7226,7.7226,7.7226,7.7226,7.7226,7.7226,7.7226,7.7226,7.7226,7.7226,7.7305,7.7773,7.8164,7.8555,7.8906,7.8711,7.8086,7.793,7.793,7.7773,7.7539,7.7265,7.7226,7.7226,7.7226,7.7226,7.7226,7.7226,7.7226,7.7226,7.7226,7.7226,7.7226,7.7109,7.7226,7.6836,7.668,7.6601,7.6562,7.6523,7.6445,7.6247,7.5739,7.4911,7.463,7.4271,7.3787,7.3393,7.3067,7.2963,7.2524,7.244,7.2433,7.2374,7.2245,7.1668,7.2129,7.1507,7.0206,7.0244,7.009,6.9975,7.0122,7.0206,6.9968,7.0084,7.0437,7.0821,7.0591,7.036,7.0321,7.0052,6.9706,6.9475,6.9167,6.8706,6.8282,6.9129,6.9647,6.8852,6.8139,6.7385,6.6637,6.5887,6.5164,6.4756,6.4345,6.364,6.3137,6.2769,6.2475,6.2095,6.1985,6.1985,6.2059,6.2205,6.2205,6.2401,6.2365,6.2683,6.2719,6.2793,6.2793,6.2793,6.2793,6.2793,6.2793,6.2793,6.2793,6.2793,6.2793,6.371,6.4604,6.5251,6.5582,7.7344,7.75,7.7265,7.7305,7.75,7.7305,7.75,7.7812,7.7383,7.7344,7.7695,7.8398,7.8789,7.8984,7.957,7.957,7.8828,7.8789,7.8789,7.8555,7.8203,7.7812,7.7695,7.7578,7.7461,7.7226,7.7226,7.7226,7.7265,7.7383,7.7539,7.7226,7.7226,7.7226,7.7226,7.7148,7.707,7.707,7.6932,7.6909,7.6839,7.6586,7.6125,7.5643,7.5258,7.4873,7.4332,7.3951,7.3833,7.3805,7.3483,7.3252,7.3283,7.3206,7.3046,7.2706,7.3007,7.2776,7.1892,7.1629,7.136,7.1052,7.0898,7.0744,7.0783,7.0898,7.0898,7.0898,7.086,7.0821,7.086,7.0821,7.0437,7.0244,7.0244,6.9937,6.9706,6.9937,7.0045,6.9498,6.9075,6.928,6.8529,6.7798,6.7085,6.6406,6.5614,6.4722,6.4155,6.3701,6.3394,6.3149,6.2989,6.2989,6.2964,6.3075,6.3062,6.2976,6.2939,6.2866,6.2939,6.2866,6.2793,6.2793,6.2903,6.2793,6.2793,6.2793,6.2793,6.2793,6.2903,6.3319,6.4016,6.4861,6.5839,7.7695,7.832,7.7578,7.7734,7.8359,7.7539,7.8125,7.914,7.789,7.7812,7.8594,7.9219,7.9609,7.9844,8.039,8.0429,7.9648,7.9609,7.9609,7.9609,7.9453,7.8945,7.8594,7.832,7.8047,7.7539,7.7578,7.7539,7.7461,7.8203,7.789,7.7344,7.7656,7.7383,7.7265,7.7305,7.7226,7.7148,7.6996,7.6915,7.6814,7.6583,7.6292,7.6267,7.6108,7.5982,7.5859,7.5064,7.4644,7.4623,7.4161,7.3892,7.3969,7.393,7.3776,7.3584,7.3699,7.3546,7.3046,7.2776,7.2322,7.1475,7.0975,7.1014,7.0898,7.0898,7.0898,7.0898,7.0898,7.0898,7.0898,7.086,7.0629,7.0475,7.0321,6.9898,6.9706,6.986,6.9937,6.9853,6.9889,7.0057,7.0083,6.9264,6.8489,6.7785,6.671,6.5807,6.5348,6.4943,6.4635,6.4353,6.4106,6.3995,6.3896,6.3847,6.3552,6.3503,6.3503,6.3306,6.316,6.305,6.3099,6.3233,6.338,6.3086,6.2866,6.3086,6.3135,6.2903,6.2976,6.3392,6.4347,6.5521,6.6439,7.8476,7.918,7.8867,7.8945,7.9219,7.8867,7.9101,7.9531,7.9023,7.9219,8.0,8.0351,8.0508,8.0742,8.1328,8.1328,8.0586,8.0508,8.0469,8.0273,7.9961,7.957,7.9258,7.9219,7.9062,7.8711,7.8711,7.875,7.8867,7.9101,7.9062,7.8828,7.8711,7.8398,7.8125,7.7578,7.7344,7.7187,7.6972,7.6796,7.6729,7.6424,7.6217,7.6231,7.6127,7.6034,7.5935,7.5683,7.5553,7.5399,7.513,7.4976,7.4861,7.4899,7.4661,7.4392,7.463,7.4437,7.3699,7.3507,7.2899,7.2129,7.1668,7.1514,7.1168,7.0975,7.0898,7.0898,7.1014,7.1129,7.0937,7.0937,7.0783,7.0514,7.0283,6.9937,6.9853,7.0129,7.0206,7.0314,7.0468,7.0679,7.0675,7.0604,6.9821,6.9062,6.796,6.6992,6.6562,6.6214,6.5932,6.5639,6.5382,6.5285,6.5199,6.4648,6.3994,6.4091,6.419,6.3981,6.3847,6.3686,6.3759,6.3833,6.387,6.3686,6.3576,6.3613,6.3392,6.2976,6.305,6.3417,6.464,6.6072,6.6856,7.9336,8.0039,8.0117,8.0078,8.0039,7.9805,8.0,8.0312,7.9883,8.0195,8.0976,8.1015,8.1172,8.1523,8.1914,8.2031,8.1484,8.1406,8.1406,8.1211,8.0898,8.0351,8.0156,8.0,7.9922,7.9844,7.9726,7.9609,7.9531,7.9922,8.0,8.0117,8.0273,7.9883,7.8906,7.832,7.793,7.7851,7.7367,7.7063,7.7046,7.6449,7.6083,7.6076,7.6012,7.5991,7.5984,7.5899,7.5899,7.5899,7.5861,7.5938,7.5938,7.5899,7.5668,7.5515,7.5438,7.5361,7.4553,7.3661,7.3399,7.3091,7.2668,7.2322,7.186,7.1668,7.193,7.1853,7.1783,7.1668,7.1591,7.186,7.1668,7.1514,7.1321,7.1052,7.0783,7.0821,7.0821,7.0821,7.0937,7.0891,7.085,7.0748,7.0332,6.9716,6.9077,6.8251,6.7813,6.749,6.7283,6.6981,6.6691,6.6624,6.653,6.5823,6.5278,6.5423,6.5423,6.5002,6.4817,6.462,6.4519,6.4591,6.4554,6.4347,6.4127,6.3906,6.3466,6.2939,6.327,6.3796,6.5081,6.6402,6.6966,8.0156,8.0937,8.0976,8.0976,8.0898,8.0078,8.0664,8.1679,8.0586,8.0351,8.1094,8.1133,8.1523,8.207,8.2265,8.2187,8.2148,8.2109,8.2148,8.1992,8.1836,8.1562,8.1211,8.0898,8.0703,7.9922,8.0,8.0195,7.9961,8.0664,8.0937,8.1133,8.1367,8.1133,7.9805,7.9648,7.9609,7.9453,7.8359,7.7991,7.7632,7.6909,7.6524,7.6421,7.6299,7.6245,7.6245,7.6053,7.6015,7.5976,7.5976,7.5976,7.5976,7.5976,7.5899,7.5899,7.5899,7.5899,7.5784,7.4399,7.4053,7.4168,7.3668,7.3276,7.3315,7.3276,7.3084,7.2776,7.3007,7.3161,7.3276,7.3238,7.2699,7.2437,7.2245,7.2136,7.186,7.1706,7.1745,7.1668,7.1206,7.093,7.0843,7.0758,7.0493,7.0154,6.9898,6.9473,6.895,6.8761,6.855,6.8319,6.8022,6.7925,6.7712,6.6994,6.6571,6.676,6.6663,6.6259,6.5853,6.563,6.5542,6.55,6.5325,6.5191,6.4653,6.4139,6.3906,6.3833,6.3906,6.4494,6.5705,6.6673,6.7223,8.0742,8.1054,8.1601,8.1875,8.1836,8.1562,8.1797,8.2148,8.1719,8.1562,8.1797,8.1875,8.1953,8.2265,8.2304,8.2304,8.2304,8.2304,8.2304,8.2304,8.2304,8.2187,8.1875,8.1719,8.1601,8.1484,8.1406,8.1289,8.1484,8.1679,8.1797,8.2031,8.1989,8.164,8.0664,8.0116,7.9687,7.9609,7.9034,7.8676,7.8595,7.7986,7.7553,7.7515,7.7092,7.6861,7.6791,7.6476,7.613,7.6092,7.6092,7.5976,7.5976,7.5976,7.5976,7.5976,7.5976,7.5976,7.5938,7.5322,7.5007,7.4776,7.4514,7.4084,7.3661,7.3507,7.3469,7.3584,7.3738,7.3699,7.343,7.3469,7.3161,7.3161,7.3091,7.3053,7.2937,7.2853,7.2815,7.2668,7.2322,7.1472,7.1084,7.0966,7.073,7.0427,7.0179,7.0153,6.9755,6.9847,6.9757,6.9612,6.9436,6.9265,6.8922,6.8202,6.7881,6.8018,6.7857,6.7497,6.7116,6.6729,6.6689,6.6721,6.6347,6.5999,6.5411,6.4971,6.4934,6.4934,6.4934,6.5118,6.5999,6.6856,6.748,8.1445,8.1523,8.2031,8.2304,8.2304,8.2304,8.2304,8.2304,8.2304,8.2304,8.2304,8.2304,8.2304,8.2304,8.2304,8.2304,8.2304,8.2304,8.2304,8.2304,8.2304,8.2265,8.2265,8.2304,8.2148,8.2304,8.2304,8.2226,8.2109,8.2265,8.2263,8.2221,8.2334,8.1982,8.1398,8.0968,8.0735,8.059,8.0152,7.9566,7.9325,7.8867,7.8415,7.8253,7.7984,7.7715,7.7484,7.7022,7.6438,7.6399,7.6207,7.6053,7.6015,7.6015,7.6015,7.5976,7.5976,7.5976,7.5938,7.5938,7.5553,7.5284,7.5168,7.4899,7.4476,7.4553,7.4507,7.4507,7.4315,7.4315,7.4315,7.4238,7.4123,7.4123,7.393,7.393,7.3853,7.3776,7.3661,7.3514,7.3154,7.2258,7.1379,7.1214,7.1052,7.0729,7.0435,7.0465,7.0449,7.0411,7.0411,7.0281,7.0175,6.9921,6.9699,6.9387,6.9199,6.9299,6.8987,6.8564,6.8234,6.7846,6.7877,6.7821,6.7247,6.6749,6.6232,6.5888,6.5595,6.5632,6.5815,6.6072,6.6476,6.699,6.7627,8.2265,8.2265,8.2264,8.2303,8.2304,8.2304,8.2304,8.2304,8.2304,8.2304,8.2304,8.2304,8.2304,8.2304,8.2304,8.2304,8.2304,8.2304,8.2304,8.2304,8.2304,8.2304,8.2304,8.2304,8.2303,8.2341,8.2457,8.2651,8.2411,8.2802,8.2762,8.2604,8.2835,8.2596,8.2361,8.2168,8.2014,8.1591,8.0983,8.0512,8.0272,7.9462,7.9167,7.8946,7.8754,7.8561,7.8292,7.7823,7.7438,7.7099,7.6599,7.6284,7.6092,7.6015,7.6015,7.5976,7.5976,7.5976,7.5976,7.5976,7.5976,7.5745,7.5822,7.5899,7.5784,7.5515,7.5438,7.5476,7.5438,7.563,7.5745,7.5553,7.5361,7.513,7.4776,7.47,7.4623,7.4507,7.4392,7.4161,7.3877,7.3097,7.2095,7.1697,7.1657,7.1095,7.0856,7.0847,7.0763,7.0449,7.0449,7.0402,7.0323,7.0386,7.0158,6.9933,6.9892,6.9806,6.9778,6.9435,6.9143,6.8743,6.844,6.8136,6.7878,6.745,6.6869,6.6366,6.5925,6.6072,6.6439,6.6329,6.6512,6.7136,6.7627,8.191,8.1443,8.2028,8.2302,8.2303,8.23,8.2302,8.2304,8.2304,8.2304,8.2304,8.2304,8.2304,8.2304,8.2304,8.2344,8.2344,8.2304,8.2304,8.2343,8.2498,8.2379,8.2339,8.2377,8.2337,8.257,8.2842,8.3153,8.3384,8.3653,8.3961,8.4117,8.3837,8.3634,8.332,8.3163,8.285,8.2347,8.1658,8.1299,8.1106,8.0485,8.0191,8.0054,7.9631,7.9477,7.9246,7.8592,7.8253,7.8023,7.7369,7.6938,7.6945,7.6399,7.5976,7.5976,7.5976,7.5976,7.5976,7.5976,7.5976,7.5976,7.5976,7.5976,7.5976,7.5976,7.5976,7.5976,7.5976,7.5976,7.5976,7.5899,7.5822,7.563,7.5399,7.5361,7.5284,7.5245,7.5123,7.4978,7.4663,7.3813,7.2771,7.2569,7.2458,7.1751,7.1344,7.1336,7.1068,7.0716,7.0449,7.0411,7.0411,7.0411,7.0411,7.0213,7.0243,7.0239,7.0161,7.0038,6.9644,6.9202,6.8825,6.8406,6.7982,6.7747,6.748,6.699,6.6439,6.6659,6.6953,6.6696,6.6623,6.721,6.7444,8.2021,8.1634,8.2061,8.2294,8.2294,8.2293,8.2298,8.2302,8.2304,8.2304,8.2304,8.2304,8.2304,8.2383,8.2656,8.2851,8.289,8.3359,8.3511,8.3432,8.2963,8.3195,8.3114,8.2721,8.2838,8.3148,8.3457,8.3689,8.4154,8.4461,8.4768,8.4688,8.4793,8.4519,8.4122,8.3902,8.3644,8.3042,8.2372,8.181,8.1535,8.1333,8.1146,8.1016,8.0477,8.0362,8.0169,7.9438,7.9092,7.8907,7.8207,7.7792,7.7753,7.7253,7.6746,7.6746,7.6592,7.6322,7.613,7.5976,7.5976,7.6015,7.6053,7.5976,7.5976,7.5976,7.5976,7.5976,7.5976,7.5976,7.5976,7.5976,7.5976,7.5976,7.5976,7.5976,7.5938,7.5938,7.5877,7.5802,7.5203,7.4359,7.3851,7.3647,7.3275,7.2584,7.2215,7.2223,7.168,7.0992,7.064,7.0411,7.0411,7.0411,7.0411,7.0449,7.0424,7.0408,7.0353,7.0179,6.9945,6.9585,6.9112,6.8536,6.7994,6.78,6.7627,6.7444,6.71,6.7297,6.7297,6.7026,6.6916,6.721,6.7173,8.2291,8.229,8.232,8.2317,8.2315,8.2325,8.229,8.2293,8.2298,8.2301,8.2301,8.2301,8.2377,8.2687,8.3115,8.3545,8.378,8.4248,8.4403,8.483,8.4009,8.3968,8.3927,8.3461,8.3609,8.4113,8.45,8.4652,8.4953,8.534,8.5459,8.5024,8.5181,8.5135,8.4874,8.4704,8.4367,8.3773,8.2887,8.2178,8.1825,8.1501,8.1208,8.1246,8.1093,8.0977,8.0823,8.04,7.99,7.9631,7.9208,7.8669,7.8369,7.8292,7.7869,7.7638,7.7407,7.7099,7.6784,7.663,7.6515,7.6438,7.6207,7.6361,7.6438,7.6092,7.6015,7.5976,7.5976,7.5976,7.5976,7.5976,7.5976,7.5976,7.5976,7.5976,7.5976,7.5969,7.5947,7.5856,7.5626,7.4811,7.4309,7.4074,7.4015,7.3369,7.3093,7.3093,7.2635,7.1756,7.1175,7.0793,7.0754,7.0793,7.0487,7.0525,7.0525,7.0525,7.0563,7.0386,7.0243,6.9825,6.9354,6.8607,6.7876,6.7784,6.7627,6.7517,6.7444,6.7517,6.748,6.7297,6.7297,6.7444,6.71,8.231,8.2319,8.2315,8.2314,8.2313,8.2308,8.231,8.2319,8.2321,8.2328,8.2333,8.2373,8.2684,8.3228,8.3617,8.4046,8.4555,8.4982,8.4864,8.4978,8.4624,8.4736,8.4846,8.4379,8.449,8.48,8.5226,8.5812,8.6314,8.6586,8.6703,8.67,8.6538,8.6203,8.5579,8.5428,8.5092,8.4453,8.3894,8.3339,8.3218,8.2475,8.2016,8.1785,8.1631,8.1208,8.1016,8.0939,8.0746,8.0631,7.99,7.9208,7.8523,7.8561,7.8446,7.8253,7.8215,7.7984,7.7792,7.7599,7.7599,7.7715,7.7676,7.7407,7.7061,7.6399,7.6053,7.6015,7.5976,7.5976,7.5976,7.5976,7.5976,7.5976,7.5976,7.5976,7.5976,7.5993,7.597,7.5856,7.5779,7.5354,7.4766,7.4584,7.4571,7.4354,7.401,7.3858,7.3667,7.3055,7.2329,7.1909,7.1489,7.1336,7.103,7.0992,7.1183,7.1145,7.1183,7.0907,7.0563,7.0147,6.9681,6.8518,6.7754,6.7861,6.7884,6.77,6.7664,6.77,6.7664,6.748,6.7554,6.7664,6.7173,8.2298,8.2305,8.2305,8.2305,8.2304,8.2296,8.2298,8.2304,8.2305,8.2506,8.2826,8.2908,8.3143,8.3841,8.4308,8.4544,8.5129,8.5753,8.606,8.6017,8.5547,8.5737,8.5613,8.5259,8.5573,8.5844,8.6353,8.6939,8.7367,8.7362,8.7282,8.7284,8.7226,8.6944,8.6222,8.6091,8.5711,8.5114,8.4871,8.48,8.4638,8.3703,8.267,8.2285,8.1939,8.1516,8.1131,8.1093,8.1093,8.1054,8.0554,8.0323,7.9862,7.9831,7.9515,7.9208,7.9015,7.8907,7.8677,7.86,7.8638,7.8638,7.8523,7.8023,7.7946,7.733,7.6638,7.6553,7.6053,7.5976,7.5976,7.5976,7.5976,7.5976,7.5976,7.5976,7.5954,7.5963,7.5872,7.5794,7.5676,7.5548,7.5136,7.5094,7.5089,7.5051,7.4775,7.4698,7.4507,7.424,7.3552,7.3017,7.2643,7.2338,7.21,7.2062,7.21,7.2024,7.1871,7.1578,7.1256,7.0682,6.9979,6.91,6.8491,6.8325,6.8274,6.8141,6.7774,6.77,6.77,6.7664,6.7811,6.8031,6.7797,8.2293,8.2292,8.2293,8.2293,8.2292,8.2292,8.2293,8.2293,8.2332,8.2762,8.343,8.3637,8.3748,8.4406,8.5065,8.522,8.5652,8.6517,8.7097,8.7019,8.6511,8.6588,8.6392,8.6078,8.643,8.6781,8.7172,8.7289,8.7406,8.7347,8.726,8.7105,8.7043,8.6942,8.6752,8.6535,8.6164,8.5962,8.5868,8.5958,8.5409,8.467,8.3632,8.2901,8.2439,8.2093,8.1631,8.1323,8.1323,8.117,8.1131,8.0862,8.0785,8.0669,8.0439,8.0131,7.9977,7.9631,7.9254,7.9169,7.91,7.8984,7.8792,7.8754,7.8754,7.833,7.7638,7.7061,7.6592,7.6207,7.6207,7.6015,7.6015,7.5976,7.5976,7.6,7.597,7.5933,7.5818,7.5739,7.5649,7.5566,7.5523,7.5518,7.5509,7.5509,7.5509,7.5509,7.5395,7.5051,7.4554,7.4172,7.3858,7.356,7.3025,7.3055,7.3055,7.2788,7.2588,7.2317,7.1934,7.1251,7.0623,7.0088,6.9593,6.9195,6.8898,6.8788,6.8361,6.8104,6.8361,6.8618,6.8618,6.8765,6.8678,8.2292,8.2292,8.2292,8.2292,8.2292,8.2292,8.2292,8.2292,8.2331,8.2762,8.3505,8.4325,8.4872,8.5534,8.5026,8.5337,8.643,8.7211,8.7328,8.725,8.7093,8.7211,8.7172,8.6781,8.7093,8.7289,8.7406,8.7406,8.7395,8.726,8.7121,8.7078,8.6886,8.6752,8.6531,8.6362,8.6317,8.6208,8.616,8.6094,8.5901,8.5286,8.4777,8.417,8.3708,8.3401,8.2978,8.2439,8.217,8.19,8.1477,8.117,8.1093,8.1093,8.09,8.0785,8.0669,8.0554,8.0208,8.0169,8.0131,8.0208,8.0092,7.9977,7.9862,7.9554,7.89,7.8292,7.7753,7.713,7.6938,7.6361,7.6169,7.6053,7.5976,7.597,7.5925,7.5887,7.5794,7.5707,7.5608,7.554,7.5497,7.5509,7.5509,7.5509,7.5509,7.5509,7.5509,7.5471,7.5433,7.5165,7.486,7.4087,7.3323,7.3819,7.3896,7.359,7.3283,7.2971,7.2471,7.1702,7.1102,7.071,7.033,6.9922,6.9706,6.9486,6.9449,6.9265,6.9573,6.9756,6.9596,6.9522,6.9412]}]]